     2              OBSERVATION DATA    GPS                 RINEX VERSION / TYPE
srx-v1.3-(5/19/93) SEISMO 23-OCT-1996                       PGM / RUN BY / DATE
                                                            COMMENT
sig: 9 8 7 6 5 4 1 0                                        COMMENT
sig: 9 8 7 6 5 4 1 0                                        COMMENT
sig: 9 8 7 6 5 4 1 0                                        COMMENT
Original Marker Name: MUNS                                  COMMENT
Campaign Name: jpl 1993-1997                                COMMENT
4-Character Station Name: MUNS                              COMMENT
6-Character Antenna Code: DMRCHT                            COMMENT
Vertical Measurement Point: BPA                             COMMENT
Vertical Offset to Rinex Ref. Point: 0.0000                 COMMENT
Radial Measurement Point: RRP                               COMMENT
Radial Offset to Rinex Ref. Point: 0.0000                   COMMENT
Antenna Height from Field Measurement: 0.0814 m             COMMENT
Additional Antenna Identification Info.:                    COMMENT
Turborogue and Ashtech Choke Ring                           COMMENT
Original XYZ: -2555428.0287 -4591094.3196 3605979.0939      COMMENT
New XYZ position is based on association with SCEC monument COMMENT
E1E9J9S6+0011. Position of that monument is believed to be  COMMENT
valid to within 1 m horizontally; vertical accuracy         COMMENT
should be no worse than 3-times this value.                 COMMENT
                                                            COMMENT
Revised Rinex header created by UCSD GPS archive for        COMMENT
GSAC on 15-Apr-1999 (1999:105) 00:04:03 GMT                 COMMENT
For assistance contact dagnew@ucsd.edu or hjohnson@ucsd.edu COMMENT
                                                            COMMENT
MUNSON 1971                                                 MARKER NAME
MUNS                                                        MARKER NUMBER
KJH JET PROPULSION LABORATORY                               OBSERVER / AGENCY
263 TURBOROGUE SNR-8000 95.03.08                            REC # / TYPE / VERS
S/N UNKNOWN DORNE-MARGOL. TYPE T                            ANT # / TYPE
 -2571862.0000 -4582901.0000  3605893.0000                  APPROX POSITION XYZ
        0.0814        0.0000        0.0000                  ANTENNA: DELTA H/E/N
     1     1     0                                          WAVELENGTH FACT L1/2
     5    L1    L2    P1    P2    C1                        # / TYPES OF OBSERV
    30                                                      INTERVAL
  1996    10    16     5     1   30.000000                  TIME OF FIRST OBS
  1996    10    16    23    59   30.000000                  TIME OF LAST OBS
    26                                                      # OF SATELLITES
          01   810   810     0   810   810                  PRN / # OF OBS
          02   569   569     0   569   569                  PRN / # OF OBS
          03   556   556     0   556   556                  PRN / # OF OBS
          04   743   743     0   743   743                  PRN / # OF OBS
          05   777   777     0   777   777                  PRN / # OF OBS
          06   822   822     0   822   822                  PRN / # OF OBS
          07   685   685     0   685   685                  PRN / # OF OBS
          09   793   793     0   793   793                  PRN / # OF OBS
          10   699   699     0   699   699                  PRN / # OF OBS
          14   409   409     0   409   409                  PRN / # OF OBS
          15   906   906     0   906   906                  PRN / # OF OBS
          16   176   176     0   176   176                  PRN / # OF OBS
          17   850   850     0   850   850                  PRN / # OF OBS
          18   144   144     0   144   144                  PRN / # OF OBS
          19   275   275     0   275   275                  PRN / # OF OBS
          21   881   881     0   881   881                  PRN / # OF OBS
          22   647   647     0   647   647                  PRN / # OF OBS
          23   849   849     0   849   849                  PRN / # OF OBS
          24   758   758     0   758   758                  PRN / # OF OBS
          25   658   658     0   658   658                  PRN / # OF OBS
          26   581   581     0   581   581                  PRN / # OF OBS
          27   414   414     0   414   414                  PRN / # OF OBS
          28   711   711   711   711     0                  PRN / # OF OBS
          29   488   488     0   488   488                  PRN / # OF OBS
          30   896   896     0   896   896                  PRN / # OF OBS
                                                            END OF HEADER
 96 10 16 05 01 30.0000000  0  6 07 02 26 19 31 10
        -0.45158         0.29256         0.00051  22766738.51756  22766736.07158
        -0.44659         0.76057         0.00051  21308722.16557  21308719.95359
        -0.11658         0.65554         0.00051  24589080.10754  24589080.10758
        -0.39359         0.46256         0.00051  21183278.10456  21183277.08659
        -0.44858         0.42656         0.00051  22973696.40956  22973695.52958
        -0.94158        -0.54155         0.00051  24361626.07555  24361623.65758
 96 10 16 05 02 00.0000000  0  6 07 02 26 19 31 10
    -98612.62348    -76840.35846         0.00041  22747972.22246  22747970.55048
    -24155.11749    -18821.05747         0.00041  21304125.66447  21304123.47549
    -91167.47648    -71038.84044         0.00041  24571731.25244  24571731.25248
     42506.12249     33122.41146         0.00041  21191366.96246  21191365.80649
     82674.20048     64422.22546         0.00041  22989427.92046  22989427.69548
     60141.44648     46863.63445         0.00041  24373069.95045  24373068.21948
 96 10 16 05 02 30.0000000  0  8 07 02 26 27 15 19 31 10
   -197462.45848   -153866.19146         0.00041  22729162.48646  22729160.08348
    -48472.52749    -37769.68047         0.00041  21299497.91547  21299495.91149
   -182508.35148   -142213.51144         0.00041  24554353.08344  24554350.09148
        -0.83859         0.45357         0.00051  20284589.00857  20284587.91359
        -0.37357        -0.29154         0.00051  24969461.72254  24969461.72257
     84882.86149     66143.23746         0.00041  21199431.10146  21199429.71949
    165321.50048    128822.72046         0.00041  23005156.35346  23005155.20748
    120113.14148     93594.80845         0.00041  24384481.90945  24384480.44348
 96 10 16 05 03 00.0000000  0  8 07 02 26 27 15 19 31 10
   -296020.62148   -230664.75446         0.00041  22710407.45746  22710405.06848
    -72437.43449    -56443.63647         0.00041  21294937.63747  21294935.51249
   -273516.18448   -213128.72144         0.00041  24537031.70644  24537032.26648
    -20488.28049    -15963.79547         0.00041  20280690.44647  20280689.31949
    -68575.95847    -53435.81144         0.00041  24956412.45244  24956412.45247
    127642.60149     99462.49746         0.00041  21207567.91046  21207566.63849
    248453.58148    193600.95246         0.00041  23020975.19946  23020974.66048
    180427.87948    140593.27545         0.00041  24395960.35845  24395957.68548
 96 10 16 05 03 30.0000000  0  8 07 02 26 27 15 19 31 10
   -396661.31748   -309086.06646         0.00041  22691256.30046  22691253.37448
    -98456.95149    -76718.58147         0.00041  21289986.40047  21289984.30249
   -366605.72948   -285666.00644         0.00041  24519317.63544  24519318.17548
    -42950.88649    -33467.12747         0.00041  20276415.80847  20276414.75149
   -139293.88347   -108540.68844         0.00041  24942954.67544  24942954.67547
    168411.20849    131230.23546         0.00041  21215325.98246  21215324.71849
    329670.91648    256887.17946         0.00041  23036430.82646  23036430.00148
    238683.08248    185986.93545         0.00041  24407045.94545  24407043.44048
 96 10 16 05 04 00.0000000  0  8 07 02 26 27 15 19 31 10
   -498291.80248   -388278.64046         0.00041  22671916.76946  22671914.02448
   -125456.53149    -97757.20747         0.00041  21284848.35947  21284846.36549
   -460683.71948   -358973.52044         0.00041  24501415.49444  24501415.49448
    -66314.40849    -51672.46947         0.00041  20271969.97047  20271968.85049
   -211069.23347   -164469.53244         0.00041  24929295.49244  24929295.49247
    208286.96649    162302.25047         0.00041  21222914.25847  21222912.91249
    410060.37048    319528.32246         0.00041  23051727.84346  23051727.41648
    295960.15148    230618.39845         0.00041  24417945.89545  24417942.72548
 96 10 16 05 04 30.0000000  0  8 07 02 26 27 15 19 31 10
   -597373.06848   -465484.81546         0.00041  22653061.83446  22653059.55548
   -149898.56749   -116802.94447         0.00041  21280197.33847  21280195.10149
   -552226.71848   -430305.65244         0.00041  24483994.50644  24483994.50648
    -87059.92549    -67837.80847         0.00041  20268022.18347  20268021.04949
   -280370.70747   -218470.68044         0.00041  24916106.93744  24916106.93747
    250797.42349    195427.27147         0.00041  21231003.82147  21231002.19849
    493157.46248    384279.30846         0.00041  23067541.62846  23067540.23348
    355765.11048    277219.65745         0.00041  24429325.87245  24429323.04448
 96 10 16 05 05 00.0000000  0  8 07 02 26 27 15 19 31 10
   -700618.02348   -545935.43046         0.00041  22633414.97046  22633412.78748
   -178502.53349   -139091.74747         0.00041  21274754.22747  21274751.96649
   -647963.39848   -504905.72044         0.00041  24465776.19644  24465776.19648
   -111910.07849    -87201.56747         0.00041  20263293.39147  20263292.20549
   -353916.68747   -275779.23744         0.00041  24902111.61644  24902111.61647
    289224.23749    225370.23547         0.00041  21238316.09847  21238314.63249
    572247.37848    445907.81246         0.00041  23082591.34746  23082590.28148
    411344.60848    320528.33445         0.00041  24439903.14445  24439899.33348
 96 10 16 05 05 30.0000000  0  8 07 02 26 27 15 19 31 10
   -802954.54648   -625678.16246         0.00041  22613941.04746  22613938.72748
   -206188.30449   -160665.07047         0.00041  21269485.86347  21269483.69049
   -742797.56748   -578803.29944         0.00041  24447730.40144  24447730.40148
   -135787.24749   -105807.15747         0.00041  20258749.85047  20258748.54849
   -426623.22348   -332433.68144         0.00041  24888276.67144  24888276.67148
    328636.42649    256081.02446         0.00041  21245816.02746  21245814.51049
    652400.80648    508365.02245         0.00041  23097844.09345  23097842.88948
    467772.69948    364498.24345         0.00041  24450639.64945  24450637.58248
 96 10 16 05 06 00.0000000  0  8 07 02 26 27 15 19 31 10
   -904218.40048   -704585.05346         0.00041  22594670.73446  22594668.93848
   -232778.06549   -181384.36047         0.00041  21264425.88447  21264423.85549
   -836528.71148   -651839.73244         0.00041  24429894.30844  24429894.16648
   -158512.66249   -123515.27447         0.00041  20254425.30847  20254424.08249
   -498310.98848   -388294.27644         0.00041  24874634.49944  24874634.49948
    369184.33249    287676.78447         0.00041  21253532.02447  21253530.51649
    733790.98048    571785.94245         0.00041  23113332.77945  23113330.87148
    525228.03448    409268.60344         0.00041  24461572.79244  24461570.78648
 96 10 16 05 06 30.0000000  0  8 07 02 26 27 15 19 31 10
  -1004586.59948   -782794.03446         0.00041  22575571.51746  22575569.49648
   -258428.66149   -201371.83147         0.00041  21259544.67247  21259542.73549
   -929327.45048   -724150.43144         0.00041  24412234.89144  24412234.75448
   -180235.35949   -140442.05547         0.00041  20250291.35247  20250290.44349
   -569140.48248   -443486.09044         0.00041  24861155.92944  24861155.92948
    410693.60149    320021.65846         0.00041  21261431.04846  21261429.53849
    816245.26748    636036.03045         0.00041  23129022.59145  23129021.03048
    583547.88348    454712.65244         0.00041  24472671.72744  24472669.00048
 96 10 16 05 07 00.0000000  0  8 07 02 26 27 15 19 31 10
  -1103743.32148   -860058.99646         0.00041  22556702.47546  22556700.60548
   -282829.39849   -220385.38747         0.00041  21254901.35947  21254899.44249
  -1020869.44048   -795481.86944         0.00041  24394818.34444  24394815.33448
   -200617.25749   -156324.05647         0.00041  20246412.91447  20246411.91149
   -638791.34148   -497759.48744         0.00041  24847902.06144  24847902.06148
    453489.97649    353369.47146         0.00041  21269574.79546  21269573.49349
    900072.30048    701355.78445         0.00041  23144973.74145  23144973.25448
    643083.44248    501103.97044         0.00041  24484001.49444  24483998.04748
 96 10 16 05 07 30.0000000  0  8 07 02 26 27 15 19 31 10
  -1201130.30148   -935944.94546         0.00041  22538170.57446  22538168.76548
   -305426.96749   -237993.88147         0.00041  21250601.31947  21250599.27049
  -1110593.00548   -865396.34144         0.00041  24377744.63944  24377741.57948
   -219083.16349   -170713.08047         0.00041  20242899.01647  20242897.92749
   -706698.92648   -550674.48844         0.00041  24834980.28544  24834980.28548
    498140.96449    388162.43746         0.00041  21278071.69246  21278070.28949
    985832.30848    768181.76045         0.00041  23161293.69845  23161292.81048
    704415.24248    548894.97344         0.00041  24495671.82444  24495668.71848
 96 10 16 05 08 00.0000000  0  8 07 02 26 27 15 19 31 10
  -1296957.00548  -1010615.09646         0.00041  22519935.21446  22519933.54348
   -326435.87649   -254364.45447         0.00041  21246603.26447  21246601.30949
  -1198728.46748   -934073.32244         0.00041  24360971.54344  24360970.31048
   -235835.03449   -183766.48847         0.00041  20239711.31147  20239710.31749
   -773074.03348   -602395.35044         0.00041  24822349.76644  24822349.76648
    544451.41349    424248.48946         0.00041  21286884.13946  21286882.74549
   1073321.63848    836355.25945         0.00041  23177942.31545  23177941.79448
    767317.60048    597909.76344         0.00041  24507641.74444  24507639.30748
 96 10 16 05 08 30.0000000  0  8 07 02 26 27 15 19 31 10
  -1390239.98948  -1083303.12146         0.00041  22502184.19446  22502182.27748
   -344896.37549   -268749.25547         0.00041  21243090.49747  21243088.44449
  -1284303.99148  -1000755.51444         0.00041  24344687.16944  24344685.72548
   -249892.66649   -194720.49247         0.00041  20237036.29647  20237035.22049
   -836942.50048   -652161.71044         0.00041  24810195.02244  24810195.02248
    593410.72049    462398.58746         0.00041  21296200.95046  21296199.59049
   1163524.17248    906642.93245         0.00041  23195107.34745  23195106.76448
    832758.14948    648902.41544         0.00041  24520092.90544  24520091.93848
 96 10 16 05 09 00.0000000  0  8 07 02 26 27 15 19 31 10
  -1481584.96748  -1154481.02046         0.00041  22484801.40946  22484799.78248
   -361451.10549   -281649.04247         0.00041  21239940.06947  21239938.20949
  -1367940.65548  -1065926.97744         0.00041  24328771.29544  24328769.11548
   -261893.01149   -204071.41447         0.00041  20234752.68947  20234751.64749
   -898930.07448   -700463.71044         0.00041  24798399.52844  24798399.52848
    644390.44749    502123.03646         0.00041  21305901.95946  21305900.67049
   1255819.08848    978561.06246         0.00041  23212670.75946  23212670.20448
    900092.30948    701370.57244         0.00041  24532908.84544  24532904.81548
 96 10 16 05 09 30.0000000  0  8 07 02 26 27 15 19 31 10
  -1572580.98248  -1225386.99846         0.00041  22467485.73646  22467483.73448
   -377703.13849   -294312.96147         0.00041  21236847.45947  21236845.39949
  -1451227.23148  -1130825.61044         0.00041  24312923.40844  24312920.24948
   -273454.21149   -213080.14447         0.00041  20232552.58847  20232551.55349
   -960627.51648   -748540.92244         0.00041  24786658.89944  24786658.89948
    695793.09349    542177.03646         0.00041  21315683.58146  21315682.26849
   1348594.93248   1050853.91745         0.00041  23230324.95845  23230325.08448
    967691.38348    754045.15144         0.00041  24545771.19844  24545769.29248
 96 10 16 05 10 00.0000000  0  8 07 02 26 27 15 19 31 10
  -1664766.83148  -1297220.11746         0.00041  22449943.65246  22449941.38348
   -395189.87149   -307938.98547         0.00041  21233519.82447  21233517.77249
  -1535696.95648  -1196646.16144         0.00041  24296849.09044  24296846.81748
   -286139.14549   -222964.51247         0.00041  20230138.76047  20230137.62149
  -1023573.88848   -797588.71344         0.00041  24774680.59044  24774680.59048
    746065.71249    581350.49246         0.00041  21325250.08946  21325248.94749
   1440293.25548   1122307.14745         0.00041  23247774.11945  23247774.40348
   1034015.16448    805726.01144         0.00041  24558393.84144  24558390.07548
 96 10 16 05 10 30.0000000  0  8 07 02 26 27 15 19 31 10
  -1755243.23748  -1367721.20146         0.00041  22432726.97846  22432724.47148
   -411023.22149   -320276.65747         0.00041  21230506.79147  21230504.83449
  -1618456.68248  -1261134.27144         0.00041  24281100.15244  24281098.59348
   -297072.12449   -231483.71747         0.00041  20228058.21147  20228057.15249
  -1084879.72448   -845359.47544         0.00041  24763019.72844  24763015.21648
    798076.71749    621878.54046         0.00041  21335147.43546  21335146.28849
   1533783.78948   1195156.91745         0.00041  23265565.03445  23265565.01948
   1101957.81048    858668.30644         0.00041  24571322.01644  24571319.06748
 96 10 16 05 11 00.0000000  0  8 07 02 26 27 15 19 31 10
  -1847121.85148  -1439314.92346         0.00041  22415242.71646  22415240.39148
   -428290.38149   -333731.58147         0.00041  21227220.86747  21227218.93849
  -1702629.80748  -1326723.71744         0.00041  24265081.43344  24265080.93248
   -309367.69549   -241064.68247         0.00041  20225718.58047  20225717.48649
  -1147651.76348   -894274.10144         0.00041  24751070.12344  24751070.12348
    848718.03049    661339.30046         0.00041  21344784.02846  21344783.03949
   1625934.61648   1266962.75745         0.00041  23283100.42845  23283100.44248
   1168400.02548    910441.45344         0.00041  24583967.37944  24583962.38948
 96 10 16 05 11 30.0000000  0  8 07 02 26 27 15 19 31 10
  -1939856.84648  -1511575.95146         0.00041  22397595.80346  22397593.27948
   -446426.83449   -347863.87647         0.00041  21223769.81447  21223767.64049
  -1787655.44448  -1392977.46344         0.00041  24248903.66144  24248901.10048
   -322461.50049   -251267.64747         0.00041  20223226.81547  20223225.88549
  -1211327.39448   -943890.12044         0.00041  24738952.78044  24738953.27648
    898538.93849    700160.78446         0.00041  21354264.46446  21354263.69249
   1717294.07648   1338151.94345         0.00041  23300486.26445  23300485.32948
   1234183.27848    961701.25644         0.00041  24596427.33444  24596427.33448
 96 10 16 05 12 00.0000000  0  8 07 02 26 27 15 19 31 10
  -2032153.76648  -1583495.62446         0.00041  22380032.00846  22380030.02048
   -464129.86149   -361658.44247         0.00041  21220400.99347  21220398.96549
  -1872236.74348  -1458884.96344         0.00041  24232806.62344  24232805.59148
   -335035.62249   -261065.66747         0.00041  20220834.13147  20220832.99649
  -1274613.39648   -993203.84044         0.00041  24726910.12244  24726910.32648
    948824.16349    739344.06546         0.00041  21363833.75346  21363832.73049
   1809175.21148   1409747.63045         0.00041  23317970.18145  23317969.68848
   1300792.33648   1013604.41744         0.00041  24608961.69144  24608961.69148
 96 10 16 05 12 30.0000000  0  7 07 02 26 27 15 19 31
  -2127653.19248  -1657910.74746         0.00041  22361859.38746  22361857.11548
   -485049.04749   -377959.10147         0.00041  21216420.25347  21216418.17349
  -1960015.99948  -1527284.37244         0.00041  24216102.69444  24216101.85148
   -350720.20849   -273287.42147         0.00041  20217849.41347  20217848.27549
  -1341155.74548  -1045055.04344         0.00041  24714249.24744  24714248.08948
    995932.13649    776051.55946         0.00041  21372798.12346  21372797.12149
   1897935.10048   1478911.17545         0.00041  23334861.21645  23334860.19048
 96 10 16 05 13 00.0000000  0  7 07 02 26 27 15 19 31
  -2222682.48048  -1731959.53246         0.00041  22343776.13246  22343773.86148
   -505512.66849   -393904.77647         0.00041  21212526.03247  21212524.02149
  -2047300.99048  -1595298.65744         0.00041  24199493.47144  24199491.72948
   -365829.45249   -285060.85647         0.00041  20214974.10747  20214973.03849
  -1407272.23848  -1096574.40344         0.00041  24701667.56244  24701666.81848
   1043545.00749    813152.48346         0.00041  21381858.37446  21381857.49249
   1987261.00448   1548515.77245         0.00041  23351859.51945  23351858.37548
 96 10 16 05 13 30.0000000  0  7 07 02 26 27 15 19 31
  -2314398.84248  -1803426.81346         0.00041  22326323.33946  22326320.53748
   -522691.07049   -407290.53847         0.00041  21209257.04847  21209255.27849
  -2131230.50748  -1660698.27344         0.00041  24183522.45844  24183520.27948
   -377512.33449   -294164.40447         0.00041  20212750.95347  20212749.87449
  -1470109.97448  -1145538.82244         0.00041  24689709.51444  24689709.27548
   1094499.56249    852857.32446         0.00041  21391554.88346  21391553.80649
   2080006.59548   1620785.05845         0.00041  23369507.45545  23369507.07748
 96 10 16 05 14 00.0000000  0  7 07 02 26 27 15 19 31
  -2406404.88448  -1875119.82146         0.00041  22308814.47046  22308812.25448
   -540189.88349   -420925.97147         0.00041  21205927.16847  21205925.25149
  -2215415.70248  -1726297.10744         0.00041  24167501.41644  24167500.41748
   -389373.82249   -303407.12547         0.00041  20210493.70747  20210492.69649
  -1533273.81848  -1194757.44544         0.00041  24677691.67844  24677689.35748
   1145207.99149    892370.36646         0.00041  21401204.46846  21401203.11149
   2172570.74648   1692912.97045         0.00041  23387123.07045  23387121.42048
 96 10 16 05 14 30.0000000  0  7 07 02 26 27 15 19 31
  -2495509.72348  -1944552.15146         0.00041  22291858.55446  22291856.14748
   -554823.54849   -432328.81947         0.00041  21203142.51347  21203140.63949
  -2296667.90548  -1789610.50945         0.00041  24152040.49245  24152038.67848
   -398227.99549   -310306.48247         0.00041  20208808.93647  20208807.81349
  -1593568.40548  -1241740.20544         0.00041  24666217.70744  24666215.60248
   1198865.47249    934181.37446         0.00041  21411415.22746  21411413.88649
   2268121.56848   1767368.15745         0.00041  23405306.21445  23405304.03048
 96 10 16 05 15 00.0000000  0  7 07 02 26 27 15 19 31
  -2584253.18348  -2013702.89646         0.00041  22274971.13446  22274968.59848
   -569132.59149   -443478.71447         0.00041  21200419.60247  21200417.56149
  -2377523.72148  -1852615.05245         0.00041  24136653.17845  24136652.04748
   -406618.12749   -316844.24647         0.00041  20207212.49047  20207211.35849
  -1653527.87448  -1288461.82844         0.00041  24654809.17944  24654805.90448
   1252933.66049    976312.41246         0.00041  21421704.10046  21421702.72849
   2364112.25848   1842166.09045         0.00041  23423571.74245  23423570.65548
 96 10 16 05 15 30.0000000  0  7 07 02 26 27 15 19 31
  -2672711.31548  -2082631.29946         0.00041  22258138.56446  22258135.66048
   -583194.42749   -454435.98347         0.00041  21197743.68047  21197741.71649
  -2458077.86548  -1915384.52644         0.00041  24121323.86244  24121322.42648
   -414607.98649   -323070.11447         0.00041  20205691.88347  20205690.92449
  -1713230.06348  -1334983.03044         0.00041  24643445.50644  24643444.62948
   1307341.80449   1018708.35146         0.00041  21432057.50646  21432056.15649
   2460453.24648   1917236.98145         0.00041  23441903.54345  23441903.89348
 96 10 16 05 16 00.0000000  0  7 07 02 26 27 15 19 31
  -2761765.74148  -2152024.35246         0.00041  22241192.07146  22241189.28148
   -597908.55449   -465901.53247         0.00041  21194943.62147  21194941.59849
  -2539226.30848  -1978617.07245         0.00041  24105883.37945  24105880.74548
   -423092.68049   -329681.57247         0.00041  20204077.33647  20204076.22949
  -1773573.64348  -1382003.95944         0.00041  24631964.36644  24631961.16648
   1361200.96649   1060676.51046         0.00041  21442306.65946  21442305.42549
   2556234.15048   1991871.45045         0.00041  23460130.99845  23460130.33848
 96 10 16 05 16 30.0000000  0  7 07 02 26 27 15 19 31
  -2851449.81448  -2221908.03246         0.00041  22224125.70446  22224123.27348
   -613313.00249   -477904.99447         0.00041  21192012.34347  21192010.32549
  -2620998.19448  -2042335.41745         0.00041  24090323.51445  24090320.41648
   -432119.09849   -336715.14747         0.00041  20202359.74047  20202358.51849
  -1834594.95148  -1429552.99444         0.00041  24620351.33844  24620349.33248
   1414460.99949   1102177.81946         0.00041  21452441.62446  21452440.40349
   2651409.40348   2066033.98545         0.00041  23478242.52645  23478241.60548
 96 10 16 05 17 00.0000000  0  8 07 02 26 27 15 19 31 10
  -2941076.79948  -2291747.23346         0.00041  22207070.20646  22207067.78448
   -628711.91749   -489904.14047         0.00041  21189081.98447  21189079.92049
  -2702712.52148  -2106008.90745         0.00041  24074771.62445  24074770.84148
   -441007.87949   -343641.47747         0.00041  20200668.24147  20200667.05449
  -1895597.45748  -1477087.44144         0.00041  24608746.79544  24608740.92548
   1467818.94049   1143755.42146         0.00041  21462595.12546  21462593.94049
   2746690.49948   2140278.99045         0.00041  23496374.09245  23496373.11948
        -0.55958        -0.56654         0.00051  24735951.77554  24735943.87858
 96 10 16 05 17 30.0000000  0  8 07 02 26 27 15 19 31 10
  -3031178.59748  -2361956.41246         0.00041  22189924.25046  22189921.82148
   -644641.58149   -502316.86047         0.00041  21186050.67447  21186048.62849
  -2784903.93148  -2170054.17245         0.00041  24059132.03045  24059130.00848
   -450284.45849   -350869.98447         0.00041  20198903.10447  20198901.86349
  -1957110.27048  -1525019.44244         0.00041  24597035.76144  24597034.76948
   1520746.24849   1184997.46546         0.00041  21472667.05046  21472665.75549
   2841555.76848   2214199.96845         0.00041  23514426.06145  23514425.46448
     66883.68248     52117.04344         0.00041  24748671.52744  24748671.52748
 96 10 16 05 18 00.0000000  0  8 07 02 26 27 15 19 31 10
  -3121738.94649  -2432522.90446         0.00041  22172690.65046  22172688.74549
   -661086.58249   -515131.14447         0.00041  21182921.39447  21182919.41449
  -2867548.67548  -2234452.65945         0.00041  24043405.24845  24043403.53248
   -459962.49849   -358411.31947         0.00041  20197061.20747  20197060.14949
  -2019120.14248  -1573338.79844         0.00041  24585237.55244  24585235.02948
   1573241.03949   1225902.48546         0.00041  21482656.82446  21482655.24249
   2936008.71948   2287799.66545         0.00041  23532400.21845  23532399.22348
    133153.07948    103755.55344         0.00041  24761284.62944  24761282.68248
 96 10 16 05 18 30.0000000  0  8 07 02 26 27 15 19 31 10
  -3212492.93349  -2503240.28646         0.00041  22155421.12846  22155419.04649
   -677771.03149   -528132.01547         0.00041  21179746.43047  21179744.49049
  -2950383.80048  -2298999.50445         0.00041  24027642.69545  24027641.10948
   -469778.80349   -366060.38947         0.00041  20195193.26147  20195192.20049
  -2081352.78148  -1621831.72844         0.00041  24573395.91644  24573392.84048
   1625565.70149   1266674.93746         0.00041  21492613.57746  21492612.09249
   3030312.74348   2361283.32145         0.00041  23550345.69945  23550344.79848
    199064.13048    155114.74544         0.00041  24773830.25744  24773824.93048
 96 10 16 05 19 00.0000000  0  8 07 02 26 27 15 19 31 10
  -3303365.77449  -2574050.27946         0.00041  22138128.26346  22138126.45149
   -694631.37049   -541269.94047         0.00041  21176538.03647  21176536.05049
  -3033338.89948  -2363639.83645         0.00041  24011856.23745  24011854.90048
   -479657.43549   -373758.02347         0.00041  20193313.54647  20193312.35049
  -2143736.09648  -1670442.07344         0.00041  24561521.17144  24561521.62648
   1677793.59749   1307371.98746         0.00041  21502552.66946  21502550.93749
   3124521.93848   2434693.09045         0.00041  23568273.49245  23568272.30248
    264681.72448    206245.35744         0.00041  24786310.86644  24786310.86648
 96 10 16 05 19 30.0000000  0  8 07 02 26 27 15 19 31 10
  -3394579.06649  -2645125.56446         0.00041  22120771.29046  22120769.20549
   -711917.67149   -554739.78147         0.00041  21173248.57047  21173246.62649
  -3116638.08248  -2428548.28345         0.00041  23996005.09045  23996003.75348
   -489825.63249   -381681.29847         0.00041  20191378.45647  20191377.40449
  -2206511.18248  -1719357.68244         0.00041  24549579.90144  24549576.01948
   1729672.81449   1347797.33446         0.00041  21512424.71546  21512423.45649
   3218375.60848   2507825.79945         0.00041  23586133.11245  23586132.17848
    329761.18148    256956.64344         0.00041  24798695.32844  24798695.32848
 96 10 16 05 20 00.0000000  0  8 07 02 26 27 15 19 31 10
  -3485591.73649  -2716044.51846         0.00041  22103451.83946  22103449.89849
   -729088.11849   -568119.34747         0.00041  21169981.02347  21169979.18049
  -3199733.97748  -2493298.34145         0.00041  23980191.38245  23980191.45148
   -499755.21549   -389418.64547         0.00041  20189488.99047  20189487.89149
  -2269139.41048  -1768158.87744         0.00041  24537660.04544  24537658.35248
   1781734.55449   1388364.90546         0.00041  21522331.69046  21522330.31049
   3312397.51148   2581089.62545         0.00041  23604024.85045  23604023.50248
    394836.44248    307664.58544         0.00041  24811079.56444  24811079.56448
 96 10 16 05 20 30.0000000  0  8 07 02 26 27 15 19 31 10
  -3576611.02449  -2786968.63046         0.00041  22086131.46146  22086129.40149
   -746349.61649   -581569.86247         0.00041  21166696.42447  21166694.49749
  -3282824.82848  -2558044.48245         0.00041  23964380.53045  23964379.91548
   -509628.91449   -397112.44147         0.00041  20187610.16947  20187608.96349
  -2331813.21748  -1816995.56444         0.00041  24525730.54144  24525731.81948
   1833797.02549   1428933.04446         0.00041  21532238.93846  21532237.64649
   3406414.73048   2654349.80345         0.00041  23621915.53845  23621914.52848
    459704.42048    358211.10544         0.00041  24823423.70544  24823423.70548
 96 10 16 05 21 00.0000000  0  8 07 02 26 27 15 19 31 10
  -3669560.62949  -2859396.87946         0.00041  22068444.17146  22068441.66249
   -765625.26549   -596589.84347         0.00041  21163028.29447  21163026.25049
  -3367821.00948  -2624275.26745         0.00041  23948206.89745  23948205.03848
   -521353.02149   -406248.11447         0.00041  20185378.98647  20185377.89849
  -2396449.84448  -1867361.74844         0.00041  24513434.55344  24513431.93948
   1883941.70149   1468006.80646         0.00041  21541780.81146  21541779.88249
   3498521.21748   2726121.09745         0.00041  23639443.89745  23639441.95748
    522453.01048    407106.05344         0.00041  24835363.98644  24835363.98648
 96 10 16 05 21 30.0000000  0  8 07 02 26 27 15 19 31 10
  -3762665.85949  -2931946.40146         0.00041  22050726.30646  22050724.27649
   -785136.35749   -611793.28747         0.00041  21159315.46547  21159313.43049
  -3452942.77248  -2690603.90545         0.00041  23932008.33945  23932007.20148
   -533144.24049   -415436.08147         0.00041  20183135.32347  20183134.16249
  -2461267.24048  -1917868.75144         0.00041  24501097.78544  24501097.36548
   1933937.41449   1506964.49846         0.00041  21551295.07746  21551293.93049
   3590503.07548   2797795.26545         0.00041  23656947.99645  23656944.98548
    584864.90547    455738.71444         0.00041  24847240.84144  24847240.84147
 96 10 16 05 22 00.0000000  0  8 07 02 26 27 15 19 31 10
  -3853770.80249  -3002937.25546         0.00041  22033389.80846  22033387.78749
   -802698.58549   -625478.13647         0.00041  21155973.46247  21155971.40949
  -3536016.11348  -2755336.38445         0.00041  23916200.44145  23916198.88648
   -542823.59949   -422978.44247         0.00041  20181293.32547  20181292.28049
  -2524086.60248  -1966818.88644         0.00041  24489150.59944  24489143.03548
   1985966.97249   1547507.00346         0.00041  21561196.08546  21561194.83249
   3684537.02748   2871068.47145         0.00041  23674840.46545  23674838.89248
    649107.81048    505798.16944         0.00041  24859466.62844  24859466.62848
 96 10 16 05 22 30.0000000  0  8 07 02 26 27 15 19 31 10
  -3945997.96549  -3074802.57146         0.00041  22015839.52246  22015837.33549
   -821442.86449   -640084.06747         0.00041  21152406.50847  21152404.42649
  -3620177.58648  -2820916.75045         0.00041  23900185.37945  23900183.48648
   -553512.47549   -431307.44147         0.00041  20179259.16547  20179258.22349
  -2588034.92048  -2016648.73444         0.00041  24476976.70644  24476974.15748
   2036906.30249   1587199.97246         0.00041  21570889.77846  21570888.24849
   3777490.42048   2943499.69045         0.00041  23692529.16945  23692527.70648
    712053.66747    554847.01344         0.00041  24871443.84244  24871443.84247
 96 10 16 05 23 00.0000000  0  8 07 02 26 27 15 19 31 10
  -4041522.26349  -3149237.07946         0.00041  21997661.75546  21997659.55949
   -843554.61849   -657314.00247         0.00041  21148198.86747  21148196.62849
  -3707613.55348  -2889048.67945         0.00041  23883547.13045  23883545.19748
   -567399.15749   -442128.23447         0.00041  20176616.74047  20176615.68749
  -2655300.73148  -2069063.63444         0.00041  24464175.70644  24464173.80448
   2084553.35449   1624327.53046         0.00041  21579956.51046  21579955.05349
   3867142.79748   3013358.68645         0.00041  23709588.77145  23709587.99448
    771531.65547    601193.49744         0.00041  24882761.94144  24882761.94147
 96 10 16 05 23 30.0000000  0  8 07 02 26 27 15 19 31 10
  -4135048.63349  -3222114.75746         0.00041  21979864.42846  21979862.13049
   -863744.76749   -673046.58247         0.00041  21144356.89447  21144354.65349
  -3793032.26348  -2955608.72245         0.00041  23867291.35045  23867290.37248
   -579193.22949   -451318.42447         0.00041  20174372.35747  20174371.31649
  -2720590.07648  -2119938.41144         0.00041  24451750.04144  24451749.62248
   2134210.35649   1663021.28246         0.00041  21589405.92746  21589404.45449
   3958774.27548   3084759.85245         0.00041  23727026.96245  23727024.91548
    832827.88947    648956.79744         0.00041  24894427.06944  24894427.06947
 96 10 16 05 24 00.0000000  0  8 07 02 26 27 15 19 31 10
  -4227467.79149  -3294129.67446         0.00041  21962277.76746  21962275.36549
   -882912.28449   -687982.31047         0.00041  21140709.26847  21140707.14649
  -3877322.00248  -3021289.04545         0.00041  23851252.62845  23851250.46148
   -589792.51449   -459577.61147         0.00041  20172355.53047  20172354.33349
  -2784795.23548  -2169968.38244         0.00041  24439534.95544  24439531.73248
   2184997.49849   1702595.66146         0.00041  21599070.26746  21599068.88649
   4051484.10748   3157001.27445         0.00041  23744668.40645  23744666.84248
    895049.36547    697441.06444         0.00041  24906266.89444  24906266.89447
 96 10 16 05 24 30.0000000  0  8 07 02 26 27 15 19 31 10
  -4320897.45049  -3366931.99446         0.00041  21944498.67346  21944496.22149
   -903200.70349   -703791.46847         0.00041  21136848.64147  21136846.55849
  -3962623.39348  -3087757.66545         0.00041  23835020.09445  23835018.23748
   -601343.70049   -468578.54247         0.00041  20170157.49447  20170156.08249
  -2850049.76948  -2220816.03944         0.00041  24427112.36944  24427114.10448
   2234769.15949   1741378.74946         0.00041  21608541.31446  21608540.19549
   4143121.01048   3228406.64345         0.00041  23762105.38445  23762104.74948
    956074.83948    744993.20544         0.00041  24917879.68244  24917879.68248
 96 10 16 05 25 00.0000000  0  8 07 02 26 27 15 19 31 10
  -4414534.58749  -3439895.98946         0.00041  21926679.67946  21926677.44049
   -923802.07649   -719844.48747         0.00041  21132928.16647  21132926.09849
  -4048123.14748  -3154380.86145         0.00041  23818749.53545  23818747.93348
   -613043.75249   -477695.47147         0.00041  20167930.90647  20167929.69049
  -2915544.25548  -2271850.66944         0.00041  24414650.67744  24414650.67748
   2284317.40149   1779987.74946         0.00041  21617970.22946  21617968.85549
   4234481.68848   3299596.78345         0.00041  23779490.44345  23779490.02848
   1016709.17148    792240.91344         0.00041  24929417.54244  24929417.54248
 96 10 16 05 25 30.0000000  0  8 07 02 26 27 15 19 31 10
  -4507067.98249  -3511999.92246         0.00041  21909071.40946  21909069.08349
   -943399.80849   -735115.44647         0.00041  21129198.83047  21129196.84849
  -4132498.14148  -3220127.60145         0.00041  23802694.07445  23802691.88648
   -623581.74349   -485906.89647         0.00041  20165925.64847  20165924.34549
  -2979958.75448  -2322043.76044         0.00041  24402393.43244  24402392.98848
   2334967.49549   1819455.34246         0.00041  21627608.93646  21627607.36249
   4326890.07248   3371603.30045         0.00041  23797074.56745  23797074.98948
   1078245.28648    840191.13244         0.00041  24941127.99244  24941127.99248
 96 10 16 05 26 00.0000000  0  8 07 02 26 27 15 19 31 10
  -4597818.07449  -3582714.26946         0.00041  21891802.18846  21891800.04749
   -961326.14349   -749084.01847         0.00041  21125787.52747  21125785.51149
  -4215078.62548  -3284476.04445         0.00041  23786979.41745  23786977.41648
   -632299.47149   -492699.93347         0.00041  20164266.65147  20164265.49649
  -3042619.87448  -2370870.58544         0.00041  24390467.56544  24390468.76048
   2387373.01649   1860290.80146         0.00041  21637581.22146  21637579.65549
   4421014.91948   3444947.35045         0.00041  23814986.79645  23814986.99148
   1141349.95548    889363.60144         0.00041  24953136.11644  24953136.11648
 96 10 16 05 26 30.0000000  0  8 07 02 26 27 15 19 31 10
  -4686047.70749  -3651464.62246         0.00041  21875012.58446  21875010.45449
   -976842.08849   -761174.36247         0.00041  21122834.98447  21122833.04949
  -4295126.83948  -3346851.27345         0.00041  23771747.33845  23771744.59848
   -638459.50449   -497499.96347         0.00041  20163094.41447  20163093.26249
  -3102788.16348  -2417754.95244         0.00041  24379020.50144  24379019.40848
   2442267.31749   1903065.56146         0.00041  21648027.26546  21648025.59649
   4517584.05048   3520196.00645         0.00041  23833362.94345  23833362.99148
   1206738.57848    940315.57644         0.00041  24965578.70044  24965578.70048
 96 10 16 05 27 00.0000000  0  8 07 02 26 27 15 19 31 10
  -4770736.18549  -3717455.63746         0.00041  21858896.55346  21858894.85149
   -988930.08049   -770593.57547         0.00041  21120534.76647  21120532.81249
  -4371593.87348  -3406435.97745         0.00041  23757194.60645  23757193.58048
   -641020.49549   -499495.54247         0.00041  20162607.18047  20162606.10349
  -3159434.97048  -2461895.27044         0.00041  24368244.93244  24368239.84048
   2500700.49249   1948597.88146         0.00041  21659146.78246  21659144.94449
   4617635.69048   3598158.31145         0.00041  23852401.04145  23852401.88748
   1275410.58848    993826.43344         0.00041  24978646.90544  24978646.90548
 96 10 16 05 27 30.0000000  0  8 07 02 26 27 15 19 31 10
  -4853915.21349  -3782270.45946         0.00041  21843068.56946  21843066.35849
   -999633.00649   -778933.51547         0.00041  21118497.99247  21118495.99449
  -4446523.01248  -3464822.32646         0.00041  23742937.47846  23742935.32748
   -642018.62249   -500273.30647         0.00041  20162417.23447  20162416.18049
  -3214594.06548  -2504876.37544         0.00041  24357746.57544  24357743.00348
   2560642.16649   1995305.65846         0.00041  21670553.11346  21670551.45849
   4719143.59148   3677255.37045         0.00041  23871718.72545  23871718.16548
   1345318.20148   1048299.66244         0.00041  24991948.49044  24991948.49048
 96 10 16 05 28 00.0000000  0  8 07 02 26 27 15 19 31 10
  -4938497.53049  -3848178.74746         0.00041  21826973.44346  21826970.97649
  -1011894.50649   -788487.92647         0.00041  21116164.80547  21116162.71249
  -4522852.84648  -3524300.12745         0.00041  23728411.51245  23728410.20648
   -644383.91349   -502116.39747         0.00041  20161967.06347  20161966.17849
  -3271199.04048  -2548984.09944         0.00041  24346975.03644  24346971.80748
   2619140.60049   2040888.82946         0.00041  21681685.04746  21681683.44949
   4819156.51448   3755187.51945         0.00041  23890750.33245  23890749.83048
   1413522.40848   1101445.74244         0.00041  25004931.02644  25004928.01348
 96 10 16 05 28 30.0000000  0  8 07 02 26 27 15 19 31 10
  -5024152.75949  -3914923.07546         0.00041  21810673.42046  21810671.26049
  -1025381.93049   -798997.60247         0.00041  21113598.03847  21113596.08249
  -4600255.38048  -3584613.78946         0.00041  23713682.84846  23713680.95348
   -647775.82249   -504759.45047         0.00041  20161321.56447  20161320.58549
  -3328922.15548  -2593963.14844         0.00041  24335989.80944  24335987.72148
   2676521.52849   2085601.21746         0.00041  21692603.89846  21692602.70849
   4917997.90548   3832206.81344         0.00041  23909559.53644  23909558.56948
   1480340.87948   1153512.10444         0.00041  25017643.26144  25017643.26148
 96 10 16 05 29 00.0000000  0  8 07 02 26 27 15 19 31 10
  -5107749.99749  -3980063.77146         0.00041  21794765.73846  21794763.18749
  -1036965.00249   -808023.37147         0.00041  21111393.88647  21111392.03349
  -4675611.18348  -3643332.59146         0.00041  23699343.15246  23699341.58748
   -649064.41349   -505763.55247         0.00041  20161076.39947  20161075.44849
  -3384629.03748  -2637371.12444         0.00041  24325386.49844  24325386.49848
   2735901.75449   2131871.50546         0.00041  21703903.80146  21703902.35749
   5018809.75148   3910761.47644         0.00041  23928743.82544  23928742.01748
   1548909.16948   1206942.21044         0.00041  25030691.50444  25030691.50448
 96 10 16 05 29 30.0000000  0  8 07 02 26 27 15 19 31 10
  -5190561.40049  -4044592.12946         0.00041  21779007.25446  21779004.79749
  -1047901.30649   -816545.16547         0.00041  21109312.85647  21109310.85849
  -4750206.22848  -3701458.61246         0.00041  23685147.55946  23685146.49748
   -649529.91649   -506126.28547         0.00041  20160987.91947  20160986.84949
  -3439584.76948  -2680193.71644         0.00041  24314928.80244  24314928.80248
   2795986.75049   2178690.95646         0.00041  21715337.72346  21715336.27049
   5120306.24148   3989849.65144         0.00041  23948059.15344  23948056.39848
   1617971.80548   1260756.97044         0.00041  25043838.04844  25043833.60348
 96 10 16 05 30 00.0000000  0  8 07 02 26 27 15 19 31 10
  -5272140.04549  -4108159.89846         0.00041  21763482.98646  21763480.67549
  -1057733.98949   -824206.99147         0.00041  21107441.64847  21107439.74449
  -4823563.23948  -3758619.90946         0.00041  23671188.40146  23671187.18748
   -648713.93249   -505490.45947         0.00041  20161143.30447  20161142.12949
  -3493331.02748  -2722073.95144         0.00041  24304704.69844  24304700.65848
   2857241.67749   2226422.05046         0.00041  21726993.91046  21726992.53949
   5222938.26448   4069822.67744         0.00041  23967587.58244  23967587.23048
   1687987.69948   1315315.09044         0.00041  25057157.41244  25057157.41248
 96 10 16 05 30 30.0000000  0  8 07 02 26 27 15 19 31 10
  -5351988.54349  -4170379.49946         0.00041  21748288.31146  21748286.20449
  -1065907.72549   -830576.13347         0.00041  21105886.31947  21105884.32949
  -4895128.12548  -3814384.75546         0.00041  23657568.98646  23657568.78148
   -646076.45349   -503435.29147         0.00041  20161645.18747  20161644.06249
  -3545322.03348  -2762586.35444         0.00041  24294808.09744  24294807.49948
   2920232.86049   2275506.07446         0.00041  21738981.25146  21738979.39349
   5327262.03548   4151113.93244         0.00041  23987441.59044  23987439.54148
   1759506.48548   1371043.72244         0.00041  25070767.53144  25070767.53148
 96 10 16 05 31 00.0000000  0  8 07 02 26 27 15 19 31 10
  -5430036.73549  -4231196.26446         0.00041  21733436.21146  21733434.11149
  -1072345.85049   -835592.85147         0.00041  21104661.22247  21104659.19649
  -4964813.39848  -3868684.96946         0.00041  23644308.38046  23644307.95548
   -641537.38649   -499898.36147         0.00041  20162508.89847  20162507.81449
  -3595472.82348  -2801664.92244         0.00041  24285266.83244  24285264.46448
   2985048.75549   2326011.96146         0.00041  21751315.04646  21751313.49749
   5433360.10848   4233787.75044         0.00041  24007632.16244  24007628.87648
   1832609.16748   1428006.80944         0.00041  25084678.02144  25084678.02148
 96 10 16 05 31 30.0000000  0  8 07 02 26 27 15 19 31 10
  -5507043.18249  -4291201.28146         0.00041  21718782.15246  21718780.20049
  -1077814.79849   -839854.36647         0.00041  21103620.58547  21103618.44049
  -5033368.05248  -3922104.16346         0.00041  23631263.28646  23631262.66648
   -635855.42949   -495470.86547         0.00041  20163590.20347  20163589.06049
  -3644549.63348  -2839906.52544         0.00041  24275927.45144  24275925.51148
   3050933.12249   2377350.41346         0.00041  21763852.30146  21763851.03849
   5540462.31748   4317244.01844         0.00041  24028009.99544  24028009.57148
   1906536.92748   1485612.88744         0.00041  25098746.38744  25098746.38748
 96 10 16 05 32 00.0000000  0  8 07 02 26 27 15 19 31 10
  -5583715.39949  -4350945.85846         0.00041  21704191.72746  21704189.94949
  -1083034.37049   -843921.56047         0.00041  21102627.34247  21102625.13549
  -5101505.32648  -3975198.13846         0.00041  23618298.09646  23618296.61248
   -629737.60649   -490703.73347         0.00041  20164754.43947  20164753.29149
  -3693267.08848  -2877868.16744         0.00041  24266654.66044  24266655.48848
   3117172.69149   2428965.63846         0.00041  21776457.35146  21776456.06449
   5647872.26648   4400940.06644         0.00041  24048449.53644  24048449.13848
   1980558.67948   1543292.47744         0.00041  25112832.68644  25112832.68648
 96 10 16 05 32 30.0000000  0  8 07 02 26 27 15 19 31 10
  -5660210.04649  -4410552.06546         0.00041  21689635.32046  21689633.58849
  -1088185.63049   -847935.52247         0.00041  21101647.09347  21101644.85449
  -5169425.42048  -4028122.88846         0.00041  23605372.23846  23605371.64248
   -623353.78749   -485729.33847         0.00041  20165969.17947  20165968.03349
  -3741798.36648  -2915684.71244         0.00041  24257423.05144  24257420.11548
   3183580.20149   2480711.72646         0.00041  21789094.06646  21789093.04649
   5755404.67548   4484731.55744         0.00041  24068911.97844  24068912.17448
   2054491.23948   1600901.93244         0.00041  25126901.41844  25126901.41848
 96 10 16 05 33 00.0000000  0  8 07 02 26 27 15 19 31 10
  -5736889.45949  -4470302.24946         0.00041  21675043.94046  21675042.04549
  -1093694.07149   -852227.80947         0.00041  21100598.69747  21100596.51949
  -5237558.81848  -4081213.84946         0.00041  23592406.93746  23592406.39948
   -617104.85749   -480860.05147         0.00041  20167158.25247  20167157.11049
  -3790555.34148  -2953677.18144         0.00041  24248142.16944  24248141.62048
   3249735.00149   2532260.90446         0.00041  21801683.51846  21801681.90949
   5862626.32848   4568280.89844         0.00041  24089317.61444  24089315.59148
   2127916.16747   1658116.49444         0.00041  25140872.98944  25140872.98947
 96 10 16 05 33 30.0000000  0  8 07 02 26 27 15 19 31 10
  -5813590.94649  -4530069.63346         0.00041  21660448.14646  21660446.30549
  -1099423.05049   -856691.94447         0.00041  21099508.66747  21099506.41149
  -5305764.81548  -4134361.38446         0.00041  23579428.52346  23579427.13548
   -610852.37449   -475987.99347         0.00041  20168348.07247  20168346.90649
  -3839387.16048  -2991727.89844         0.00041  24238852.85044  24238849.04348
   3315788.68949   2583731.29546         0.00041  21814253.27146  21814251.23949
   5969667.70448   4651689.74844         0.00041  24109687.08144  24109685.06548
   2200976.08447   1715046.29944         0.00041  25154775.58544  25154775.58547
 96 10 16 05 34 00.0000000  0  8 07 02 26 27 15 19 31 10
  -5890563.30449  -4590048.08846         0.00041  21645800.77546  21645798.77749
  -1105629.13249   -861527.84747         0.00041  21098327.75047  21098325.42249
  -5374308.86448  -4187772.32646         0.00041  23566384.73146  23566383.68548
   -604855.48749   -471315.10047         0.00041  20169489.15547  20169488.10049
  -3888542.91848  -3030031.09244         0.00041  24229495.36144  24229495.36148
   3381490.90449   2634927.81646         0.00041  21826755.67046  21826754.18049
   6076257.14548   4734746.44544         0.00041  24129969.85144  24129968.24748
   2273395.15048   1771476.35944         0.00041  25168557.11544  25168557.11548
 96 10 16 05 34 30.0000000  0  8 07 02 26 27 15 19 31 10
  -5967628.61649  -4650098.97446         0.00041  21631135.86046  21631133.84149
  -1112139.25949   -866600.67347         0.00041  21097088.79647  21097086.71549
  -5443002.90048  -4241300.16046         0.00041  23553312.68646  23553311.55648
   -598937.23349   -466703.47947         0.00041  20170615.49447  20170614.40649
  -3937845.11648  -3068448.33244         0.00041  24220115.11144  24220113.10448
   3447024.60349   2685993.02546         0.00041  21839226.13946  21839224.69449
   6182545.94248   4817568.86044         0.00041  24150197.05544  24150194.31848
   2345355.94948   1827550.09044         0.00041  25182250.23744  25182250.23748
 96 10 16 05 35 00.0000000  0  8 07 02 26 27 15 19 31 10
  -6044873.09549  -4710289.46946         0.00041  21616436.56646  21616434.74849
  -1119035.67949   -871974.50647         0.00041  21095776.52847  21095774.46649
  -5511903.76848  -4294989.14546         0.00041  23540202.20346  23540199.80648
   -593183.52849   -462220.07847         0.00041  20171710.30447  20171709.21349
  -3987366.25148  -3107036.22944         0.00041  24210689.96644  24210689.96648
   3512312.69449   2736866.84746         0.00041  21851649.94746  21851648.59149
   6288468.21748   4900105.70444         0.00041  24170350.69144  24170350.20448
   2416782.64048   1883207.25244         0.00041  25195842.37444  25195842.37448
 96 10 16 05 35 30.0000000  0  8 07 02 26 27 15 19 31 10
  -6122004.44649  -4770391.81146         0.00041  21601758.96846  21601757.14249
  -1125995.26949   -877397.56347         0.00041  21094452.12047  21094449.99649
  -5580675.40948  -4348577.42846         0.00041  23527115.29946  23527112.92348
   -587286.26649   -457624.81447         0.00041  20172832.34147  20172831.33249
  -4036786.44448  -3145545.44044         0.00041  24201284.68944  24201285.61448
   3577653.67149   2787781.87346         0.00041  21864084.21146  21864082.63649
   6394354.09548   4982614.20444         0.00041  24190501.26044  24190499.54948
   2487991.51448   1938694.68644         0.00041  25209393.05944  25209393.05948
 96 10 16 05 36 00.0000000  0  8 07 02 26 27 15 19 31 10
  -6200533.26449  -4831583.08846         0.00041  21586815.53046  21586813.63249
  -1134506.06849   -884029.35147         0.00041  21092832.62047  21092830.52249
  -5650805.63248  -4403224.36946         0.00041  23513769.23946  23513767.21748
   -582734.97849   -454078.36047         0.00041  20173698.69747  20173697.51249
  -4087608.22948  -3185146.80844         0.00041  24191615.69244  24191614.43248
   3641532.09349   2837557.25046         0.00041  21876240.15846  21876238.36349
   6498709.80148   5063930.31544         0.00041  24210359.56844  24210358.15448
   2557487.58848   1992847.47144         0.00041  25222618.03844  25222618.03848
 96 10 16 05 36 30.0000000  0  8 07 02 26 27 15 19 31 10
  -6279074.16649  -4892783.77946         0.00041  21571869.46046  21571867.60249
  -1143178.37849   -890786.99747         0.00041  21091182.29047  21091180.08149
  -5720888.14448  -4457834.11946         0.00041  23500433.04246  23500431.03248
   -578131.49249   -450491.23247         0.00041  20174574.69347  20174573.43249
  -4138437.54448  -3224754.01844         0.00041  24181945.71744  24181941.50248
   3705334.29749   2887273.23546         0.00041  21888381.03446  21888379.35249
   6602930.86948   5145141.55644         0.00041  24230190.99744  24230191.08548
   2626671.27548   2046756.83844         0.00041  25235783.35744  25235783.35748
 96 10 16 05 37 00.0000000  0  8 07 02 26 27 15 19 31 10
  -6357086.09149  -4953572.28146         0.00041  21557024.31246  21557022.33349
  -1151469.51549   -897247.62547         0.00041  21089604.62947  21089602.33149
  -5790382.17248  -4511985.31846         0.00041  23487209.15946  23487206.82948
   -572932.31449   -446439.93447         0.00041  20175564.11947  20175562.83749
  -4188723.55648  -3263937.92644         0.00041  24172374.03744  24172372.47748
   3769600.15649   2937350.50946         0.00041  21900610.69146  21900608.85849
   6707558.97848   5226669.93344         0.00041  24250106.33144  24250101.38248
   2696080.94348   2100841.89444         0.00041  25248991.63544  25248991.63548
 96 10 16 05 37 30.0000000  0  8 07 02 26 27 15 19 31 10
  -6434636.92049  -5014001.48846         0.00041  21542266.47546  21542264.67449
  -1159438.77649   -903457.43747         0.00041  21088087.96147  21088085.79249
  -5859366.81248  -4565739.59246         0.00041  23474082.06246  23474079.46248
   -567202.37849   -441975.05547         0.00041  20176654.42847  20176653.37749
  -4238538.22948  -3302754.53244         0.00041  24162895.02044  24162893.07648
   3834250.68949   2987727.52846         0.00041  21912913.34146  21912911.63349
   6812489.94248   5308434.31044         0.00041  24270070.37144  24270069.30048
   2765633.00348   2155038.70444         0.00041  25262226.68944  25262226.68948
 96 10 16 05 38 00.0000000  0  8 07 02 26 27 15 19 31 10
  -6512177.75249  -5074422.90346         0.00041  21527510.94946  21527509.17549
  -1167550.54949   -909778.29547         0.00041  21086544.52347  21086542.21549
  -5928305.81048  -4619458.29046         0.00041  23460962.79646  23460961.00248
   -561395.72449   -437450.39647         0.00041  20177759.40247  20177758.32349
  -4288334.03148  -3341556.44344         0.00041  24153420.56844  24153417.50948
   3898845.13649   3038060.85546         0.00041  21925205.77046  21925203.55849
   6917242.36548   5390059.59944         0.00041  24290002.90344  24290003.24448
   2834848.85248   2208973.13244         0.00041  25275397.64644  25275397.64648
 96 10 16 05 38 30.0000000  0  8 07 02 26 27 15 19 31 10
  -6589969.02949  -5135039.47046         0.00041  21512707.88046  21512706.24649
  -1176071.05749   -916417.65147         0.00041  21084922.81547  21084920.80949
  -5997468.60248  -4673351.37546         0.00041  23447801.94046  23447799.58948
   -555784.72449   -433078.19347         0.00041  20178827.14647  20178825.95949
  -4338373.90048  -3380548.50244         0.00041  24143898.50144  24143895.65448
   3963124.09149   3088148.33846         0.00041  21937437.18546  21937435.30349
   7021534.98048   5471326.57744         0.00041  24309852.84244  24309849.53448
   2903449.55948   2262428.22844         0.00041  25288452.58244  25288452.58248
 96 10 16 05 39 00.0000000  0  8 07 02 26 27 15 19 31 10
  -6667774.83849  -5195667.36346         0.00041  21497902.31046  21497900.34349
  -1184758.25249   -923186.88747         0.00041  21083269.82447  21083267.75749
  -6066638.14348  -4727249.71546         0.00041  23434639.17046  23434637.20648
   -550154.48749   -428691.00247         0.00041  20179898.56747  20179897.39149
  -4388428.68048  -3419552.21444         0.00041  24134372.45744  24134370.59048
   4027309.18749   3138162.67946         0.00041  21949651.05546  21949649.32149
   7125590.10248   5552408.48644         0.00041  24329652.63044  24329650.98048
   2971664.26948   2315582.54744         0.00041  25301433.63644  25301433.63648
 96 10 16 05 39 30.0000000  0  8 07 02 26 27 15 19 31 10
  -6745902.48449  -5256546.03846         0.00041  21483034.97246  21483033.05849
  -1193933.07349   -930336.09247         0.00041  21081523.91847  21081521.89949
  -6136137.81248  -4781405.29446         0.00041  23421413.11046  23421411.85248
   -544822.35849   -424536.10147         0.00041  20180913.22147  20180912.08149
  -4438816.04248  -3458815.06244         0.00041  24124785.02844  24124781.87348
   4091098.16549   3187868.35346         0.00041  21961789.74546  21961787.99149
   7229102.67748   5633067.62344         0.00041  24349349.19044  24349348.56448
   3039182.08648   2368193.83344         0.00041  25314281.97344  25314281.97348
 96 10 16 05 40 00.0000000  0  8 07 02 26 27 15 19 31 10
  -6823921.00549  -5317339.67846         0.00041  21468188.67046  21468186.72149
  -1203169.70949   -937533.46547         0.00041  21079766.26347  21079764.09049
  -6205529.46548  -4835476.72346         0.00041  23408208.45346  23408207.21848
   -539354.05449   -420275.08947         0.00041  20181953.81247  20181952.68149
  -4489096.19748  -3497994.37644         0.00041  24115216.53344  24115213.69248
   4154945.29749   3237619.35246         0.00041  21973939.14046  21973937.78449
   7332546.52948   5713673.23544         0.00041  24369033.38144  24369032.89848
   3106450.63448   2420610.88444         0.00041  25327082.56944  25327082.56948
 96 10 16 05 40 30.0000000  0  8 07 02 26 27 15 19 31 10
  -6901932.02349  -5378127.47346         0.00041  21453343.50746  21453341.65449
  -1212570.02149   -944858.38147         0.00041  21077977.43447  21077975.48749
  -6274909.11948  -4889538.79246         0.00041  23395006.12646  23395004.34948
   -533845.80149   -415982.94847         0.00041  20183002.03747  20183000.76449
  -4539365.40748  -3537165.20244         0.00041  24105649.91144  24105647.47248
   4218750.02549   3287337.30646         0.00041  21986080.83046  21986079.38049
   7435857.65748   5794175.41444         0.00041  24388693.85244  24388692.21848
   3173394.94448   2472774.77844         0.00041  25339821.97044  25339821.97048
 96 10 16 05 41 00.0000000  0  8 07 02 26 27 15 19 31 10
  -6980158.77149  -5439083.37046         0.00041  21438457.70046  21438455.77549
  -1222373.05849   -952497.11447         0.00041  21076112.04247  21076110.07649
  -6344495.01248  -4943761.56446         0.00041  23381763.46146  23381762.80848
   -528509.84949   -411825.06947         0.00041  20184017.59347  20184016.27649
  -4589838.67548  -3576494.98044         0.00041  24096042.67944  24096042.89548
   4282296.61549   3336854.11346         0.00041  21998173.67046  21998171.83649
   7538836.47048   5874418.65644         0.00041  24408288.53144  24408288.68048
   3239789.83348   2524511.55844         0.00041  25352456.15544  25352456.15548
 96 10 16 05 41 30.0000000  0  8 07 02 26 27 15 19 31 10
  -7058648.97549  -5500244.55446         0.00041  21423521.35246  21423519.48249
  -1232650.54649   -960505.54647         0.00041  21074156.22647  21074154.37649
  -6414314.71348  -4998166.53446         0.00041  23368477.59546  23368476.52248
   -523381.09049   -407828.64147         0.00041  20184993.42247  20184992.11749
  -4640562.21248  -3616019.78244         0.00041  24086392.33444  24086390.71348
   4345543.10549   3386137.07346         0.00041  22010209.17746  22010207.39949
   7641450.63748   5954377.72244         0.00041  24427815.39444  24427815.65348
   3305585.10447   2575780.60044         0.00041  25364957.92344  25364957.92347
 96 10 16 05 42 00.0000000  0  7 07 02 26 27 15 19 31
  -7137285.54949  -5561519.79546         0.00041  21408557.37146  21408555.33049
  -1243278.44449   -968787.02947         0.00041  21072133.95547  21072131.90149
  -6484228.24448  -5052644.61146         0.00041  23355174.02146  23355172.65848
   -518344.79549   -403904.25947         0.00041  20185951.74047  20185950.53449
  -4691414.94748  -3655645.25944         0.00041  24076716.55944  24076713.73248
   4408582.51549   3435258.67946         0.00041  22022204.71446  22022203.43249
   7743810.84448   6034138.95644         0.00041  24447295.54544  24447294.15248
 96 10 16 05 42 30.0000000  0  7 07 02 26 27 15 19 31
  -7217807.70849  -5624264.32546         0.00041  21393234.29146  21393232.36349
  -1256008.39649   -978706.47547         0.00041  21069711.43347  21069709.49549
  -6555980.14048  -5108555.17746         0.00041  23341519.79746  23341518.42748
   -515158.97049   -401421.80647         0.00041  20186557.94247  20186556.84349
  -4744152.35948  -3696739.33344         0.00041  24066679.63144  24066677.82748
   4469645.90649   3482840.52946         0.00041  22033824.94046  22033823.39049
   7844114.64648   6112297.75244         0.00041  24466382.59744  24466380.82748
 96 10 16 05 43 00.0000000  0  7 07 02 26 27 15 19 31
  -7299106.71049  -5687614.18146         0.00041  21377763.84746  21377761.67449
  -1269740.36749   -989406.70947         0.00041  21067098.38947  21067096.22949
  -6628474.98948  -5165044.65946         0.00041  23327724.49446  23327723.11748
   -512738.62449   -399535.82847         0.00041  20187018.67447  20187017.46449
  -4797683.43948  -3738451.82844         0.00041  24056493.98844  24056491.21148
   4529816.36849   3529726.59346         0.00041  22045274.94846  22045273.52749
   7943409.89848   6189670.68044         0.00041  24485277.73644  24485275.62748
 96 10 16 05 43 30.0000000  0  7 07 02 26 27 15 19 31
  -7379043.52949  -5749902.60146         0.00041  21362552.29046  21362550.22249
  -1282325.81449   -999213.54547         0.00041  21064703.32647  21064701.27149
  -6699586.37248  -5220456.12946         0.00041  23314192.72646  23314191.28848
   -508951.19049   -396584.58547         0.00041  20187739.40147  20187738.27649
  -4849877.08048  -3779122.18344         0.00041  24046562.09844  24046558.92848
   4591216.27449   3577570.66246         0.00041  22056959.10746  22056957.48849
   8043801.32748   6267897.75644         0.00041  24504381.54144  24504379.24548
 96 10 16 05 44 00.0000000  0  7 07 02 26 27 15 19 31
  -7458156.43349  -5811549.01146         0.00041  21347497.40646  21347495.48049
  -1294281.50549  -1008529.66647         0.00041  21062428.10647  21062426.20049
  -6769860.69048  -5275215.33146         0.00041  23300820.39846  23300818.62348
   -504331.03349   -392984.47047         0.00041  20188618.61747  20188617.47149
  -4901263.61848  -3819163.62644         0.00041  24036784.12044  24036780.27148
   4653316.11149   3625960.13246         0.00041  22068776.25146  22068774.75849
   8144721.89948   6346537.17344         0.00041  24523588.72044  24523584.12348
 96 10 16 05 44 30.0000000  0  7 07 02 26 27 15 19 31
  -7536627.62149  -5872695.38047         0.00041  21332564.91247  21332563.08949
  -1305781.47449  -1017490.68047         0.00041  21060239.72547  21060237.67349
  -6839484.07648  -5329467.32746         0.00041  23287571.27246  23287569.51148
   -499046.98149   -388867.03447         0.00041  20189624.09247  20189622.94249
  -4952016.35448  -3858711.18944         0.00041  24027123.45844  24027121.87648
   4715950.31549   3674765.98646         0.00041  22080695.30146  22080693.79849
   8245986.18248   6425444.44144         0.00041  24542854.70244  24542854.11548
 96 10 16 05 45 00.0000000  0  7 07 02 26 27 15 19 31
  -7613744.49049  -5932786.43447         0.00041  21317890.05947  21317888.18149
  -1316102.77949  -1025533.25147         0.00041  21058275.50847  21058273.61349
  -6907739.50048  -5382653.36946         0.00041  23274583.13346  23274581.10948
   -492366.44949   -383661.43447         0.00041  20190895.32147  20190894.10549
  -5001408.39948  -3897198.47244         0.00041  24017723.43844  24017723.36048
   4779836.26549   3724547.21946         0.00041  22092852.44546  22092850.76249
   8348340.43948   6505200.99544         0.00041  24562334.49544  24562331.69948
 96 10 16 05 45 30.0000000  0  7 07 02 26 27 15 19 31
  -7689861.72449  -5992098.55447         0.00041  21303405.28847  21303403.41349
  -1325597.34949  -1032931.61447         0.00041  21056468.90947  21056466.82149
  -6974971.80048  -5435042.17446         0.00041  23261788.50846  23261786.93848
   -484628.34349   -377631.75147         0.00041  20192367.80847  20192366.52849
  -5049778.99148  -3934889.80244         0.00041  24008519.89444  24008519.03048
   4844636.44249   3775040.83546         0.00041  22105183.46346  22105181.96849
   8451453.19748   6585548.58844         0.00041  24581956.14344  24581953.34948
 96 10 16 05 46 00.0000000  0  7 07 02 26 27 15 19 31
  -7765101.56949  -6050726.99747         0.00041  21289087.39347  21289085.53249
  -1334391.54649  -1039784.23547         0.00041  21054795.41047  21054793.39449
  -7041290.18048  -5486718.83546         0.00041  23249169.31046  23249167.28748
   -475961.05849   -370878.02947         0.00041  20194017.35947  20194016.02549
  -5097245.72248  -3971876.86344         0.00041  23999487.50544  23999485.87148
   4910228.35949   3826151.39146         0.00041  22117665.10946  22117663.70749
   8555213.20148   6666400.54744         0.00041  24601699.91644  24601698.31348
 96 10 16 05 46 30.0000000  0  7 07 02 26 27 15 19 31
  -7839634.12249  -6108804.30247         0.00041  21274904.27047  21274902.47749
  -1342667.12949  -1046232.74247         0.00041  21053220.54947  21053218.72149
  -7106858.76148  -5537811.24246         0.00041  23236691.13146  23236689.88248
   -466523.28949   -363523.93247         0.00041  20195813.17247  20195811.98149
  -5143975.23648  -4008289.45044         0.00041  23990595.19844  23990593.84148
   4976429.24949   3877736.47046         0.00041  22130262.72646  22130261.40049
   8659474.17248   6747642.83844         0.00041  24621538.34844  24621538.40248
 96 10 16 05 47 00.0000000  0  7 07 02 26 27 15 19 31
  -7913518.58849  -6166376.60447         0.00041  21260844.86247  21260842.85549
  -1350512.98449  -1052346.39347         0.00041  21051727.52647  21051725.65349
  -7171748.16148  -5588374.41546         0.00041  23224343.54246  23224341.83748
   -456389.76049   -355627.68047         0.00041  20197741.76047  20197740.41249
  -5190035.29648  -4044180.38644         0.00041  23981829.62044  23981829.08548
   5043174.87549   3929746.02346         0.00041  22142963.99946  22142962.65849
   8764166.14348   6829221.01844         0.00041  24641464.39444  24641460.88048
 96 10 16 05 47 30.0000000  0  7 07 02 26 27 15 19 31
  -7986990.16549  -6223627.17147         0.00041  21246863.62247  21246861.73149
  -1358176.88849  -1058318.26247         0.00041  21050269.04347  21050267.25349
  -7236197.71148  -5638594.84546         0.00041  23212079.20946  23212077.45248
   -445818.90149   -347390.65247         0.00041  20199753.17947  20199751.88549
  -5235666.03148  -4079736.77744         0.00041  23973147.13444  23973146.06448
   5110231.36949   3981997.81946         0.00041  22155724.27946  22155722.73049
   8869045.28248   6910945.00344         0.00041  24661420.52844  24661419.08148
 96 10 16 05 48 00.0000000  0  7 07 02 26 27 15 19 31
  -8059326.22149  -6279992.91747         0.00041  21233098.73747  21233096.69549
  -1364938.69149  -1063587.19947         0.00041  21048982.19247  21048980.53849
  -7299491.14248  -5687914.40346         0.00041  23200034.94846  23200033.00548
   -434094.60649   -338254.84547         0.00041  20201984.28147  20201983.05649
  -5280151.47348  -4114400.74144         0.00041  23964681.01944  23964680.57348
   5178306.31449   4035043.21746         0.00041  22168678.66046  22168677.33949
   8974829.82848   6993374.56844         0.00041  24681549.39444  24681549.59148
 96 10 16 05 48 30.0000000  0  7 07 02 26 27 15 19 31
  -8130611.65449  -6335539.99847         0.00041  21219533.69247  21219531.60449
  -1370899.48949  -1068231.97547         0.00041  21047848.04747  21047846.26949
  -7361728.31948  -5736410.90546         0.00041  23188191.59346  23188189.77148
   -421309.45249   -328292.39547         0.00041  20204417.12647  20204415.93649
  -5323583.17648  -4148243.62944         0.00041  23956417.73944  23956415.91648
   5247313.13049   4088814.74746         0.00041  22181810.22346  22181808.84949
   9081410.43248   7076424.34744         0.00041  24701832.99844  24701831.24248
 96 10 16 05 49 00.0000000  0  7 07 02 26 27 15 19 31
  -8200987.04649  -6390377.95447         0.00041  21206141.50147  21206139.48949
  -1376203.46849  -1072364.94347         0.00041  21046838.94047  21046837.06949
  -7423058.61648  -5784200.74246         0.00041  23176520.47646  23176518.80048
   -407624.66249   -317628.93047         0.00041  20207021.34347  20207020.07549
  -5366109.00448  -4181380.61744         0.00041  23948324.01844  23948323.44848
   5317112.56049   4143203.90446         0.00041  22195092.51146  22195091.18349
   9188622.57248   7159966.29244         0.00041  24722232.53644  24722232.94348
 96 10 16 05 49 30.0000000  0  7 07 02 26 27 15 19 31
  -8272311.58849  -6445955.50547         0.00041  21192568.67447  21192566.84249
  -1382692.52749  -1077421.35247         0.00041  21045604.03847  21045602.16249
  -7485335.57248  -5832728.23646         0.00041  23164670.44746  23164668.15448
   -394882.84249   -307700.24547         0.00041  20209446.06147  20209444.69449
  -5409583.41048  -4215256.76744         0.00041  23940050.50044  23940050.73848
   5385837.49649   4196755.78246         0.00041  22208170.33346  22208169.27649
   9294604.37548   7242549.51544         0.00041  24742399.23944  24742400.50248
 96 10 16 05 50 00.0000000  0  7 07 02 26 27 15 19 31
  -8343881.89649  -6501724.56047         0.00041  21178949.49047  21178947.55649
  -1389653.28649  -1082845.32047         0.00041  21044279.56047  21044277.68249
  -7547842.91148  -5881435.25146         0.00041  23152775.05846  23152773.43548
   -382347.07049   -297932.11747         0.00041  20211831.41547  20211830.25149
  -5453289.65548  -4249313.54244         0.00041  23931735.84844  23931733.71948
   5454198.00149   4250023.68946         0.00041  22221179.00446  22221177.70549
   9400053.97148   7324718.01444         0.00041  24762464.19644  24762466.70148
 96 10 16 05 50 30.0000000  0  7 07 02 26 27 15 19 31
  -8413814.42149  -6556217.42247         0.00041  21165641.68447  21165639.80749
  -1395207.47249  -1087173.25347         0.00041  21043222.41347  21043220.55549
  -7608691.33748  -5928849.61646         0.00041  23141195.85846  23141194.37148
   -368131.87049   -286855.34447         0.00041  20214536.60147  20214535.28649
  -5495337.70048  -4282078.22844         0.00041  23923732.65144  23923732.03948
   5524077.96549   4304475.58946         0.00041  22234476.90646  22234475.59349
   9506846.99748   7407933.37644         0.00041  24782790.97344  24782788.85448
 96 10 16 05 51 00.0000000  0  7 07 02 26 27 15 19 31
  -8482038.68749  -6609379.17547         0.00041  21152659.21647  21152657.28949
  -1399272.72349  -1090340.97847         0.00041  21042448.89547  21042446.92949
  -7667799.02448  -5974907.54846         0.00041  23129948.06346  23129946.65248
   -352166.71149   -274414.96847         0.00041  20217574.58847  20217573.29049
  -5535649.62348  -4313490.06044         0.00041  23916062.70544  23916060.81948
   5595542.10449   4360161.91446         0.00041  22248075.66846  22248074.68549
   9615069.80048   7492262.82344         0.00041  24803384.48644  24803382.70548
 96 10 16 05 51 30.0000000  0  7 07 02 26 27 15 19 31
  -8548287.70149  -6661001.77347         0.00041  21140052.21447  21140050.39649
  -1401574.23849  -1092134.36347         0.00041  21042010.95747  21042008.98349
  -7724890.72648  -6019394.58746         0.00041  23119084.23846  23119082.63448
   -334187.41049   -260405.13047         0.00041  20220995.93547  20220994.67149
  -5573951.98148  -4343336.03344         0.00041  23908772.00644  23908772.12848
   5668850.92948   4417285.65546         0.00041  22262026.23446  22262025.03348
   9724990.38848   7577915.23744         0.00041  24824297.37644  24824299.69448
 96 10 16 05 52 00.0000000  0  7 07 02 26 27 15 19 31
  -8612745.31249  -6711228.47247         0.00041  21127786.60447  21127784.61549
  -1402287.41049  -1092690.08047         0.00041  21041875.16947  21041873.18649
  -7780145.16948  -6062449.99646         0.00041  23108569.29746  23108567.91048
   -314390.05249   -244978.62647         0.00041  20224763.32247  20224761.96249
  -5610424.63448  -4371756.26544         0.00041  23901830.38944  23901831.46048
   5743822.44848   4475705.00146         0.00041  22276292.70546  22276291.48748
   9836432.62448   7664753.36644         0.00041  24845508.66544  24845506.30448
 96 10 16 05 52 30.0000000  0  7 07 02 26 27 15 19 31
  -8676315.93349  -6760764.01147         0.00041  21115689.25847  21115687.47649
  -1402329.95049  -1092723.22847         0.00041  21041867.08747  21041865.16849
  -7834478.06948  -6104787.31946         0.00041  23098229.79146  23098228.42648
   -293709.58149   -228863.98347         0.00041  20228698.67347  20228697.34249
  -5645985.97548  -4399466.37144         0.00041  23895066.51144  23895063.97848
   5819543.85748   4534708.68246         0.00041  22290702.41646  22290700.90248
   9948490.69148   7752071.37844         0.00041  24866833.58244  24866830.46248
 96 10 16 05 53 00.0000000  0  7 07 02 26 27 15 19 31
  -8739095.06049  -6809682.80447         0.00041  21103742.69647  21103740.86849
  -1401790.10649  -1092302.56747         0.00041  21041969.91047  21041967.93549
  -7887981.79448  -6146478.53446         0.00041  23088048.80746  23088047.31648
   -272240.60649   -212134.92547         0.00041  20232784.05747  20232782.94849
  -5680727.62048  -4426537.75844         0.00041  23888455.32544  23888452.75848
   5895936.04648   4594235.04446         0.00041  22305239.42446  22305237.88448
  10061072.71348   7839797.59644         0.00041  24888253.91744  24888253.91748
 96 10 16 05 53 30.0000000  0  7 07 02 26 27 15 19 31
  -8800999.14149  -6857919.74447         0.00041  21091962.67647  21091960.98349
  -1400599.81049  -1091375.06047         0.00041  21042196.28147  21042194.53249
  -7940586.08548  -6187468.89446         0.00041  23078038.37046  23078036.96148
   -249899.71749   -194726.44747         0.00041  20237035.26047  20237034.22549
  -5714578.15148  -4452914.79244         0.00041  23882014.54144  23882011.46248
   5973075.22548   4654343.47846         0.00041  22319918.58946  22319917.22248
  10174241.64148   7927981.18144         0.00041  24909793.46444  24909789.30448
 96 10 16 05 54 00.0000000  0  7 07 02 26 27 15 19 31
  -8862064.49749  -6905503.12847         0.00041  21080342.43847  21080340.61949
  -1398828.04649  -1089994.46347         0.00041  21042533.56547  21042531.61249
  -7992335.69448  -6227793.26346         0.00041  23068191.11046  23068189.09748
   -226721.53949   -176665.53447         0.00041  20241445.98547  20241444.97649
  -5747584.85348  -4478634.26344         0.00041  23875733.22144  23875730.81248
   6050928.03648   4715007.98546         0.00041  22334734.00046  22334731.76248
  10287951.31148   8016586.11744         0.00041  24931428.89244  24931428.89248
 96 10 16 05 54 30.0000000  0  6 07 02 26 27 15 19
  -8923177.67549  -6953123.77947         0.00041  21068712.95347  21068711.02149
  -1397387.11049  -1088871.65347         0.00041  21042807.87747  21042805.94949
  -8044121.97248  -6268146.20846         0.00041  23058336.27246  23058334.76048
   -203594.06649   -158644.13147         0.00041  20245846.84147  20245845.87649
  -5780636.47648  -4504388.74144         0.00041  23869444.41644  23869441.29148
   6128611.39148   4775540.45046         0.00041  22349515.95046  22349514.49048
 96 10 16 05 55 00.0000000  0  6 07 02 26 27 15 19
  -8984268.72149  -7000727.18347         0.00041  21057087.35647  21057085.57849
  -1396204.98049  -1087950.51447         0.00041  21043032.87247  21043030.91949
  -8095861.87848  -6308463.01646         0.00041  23048491.08746  23048489.13248
   -180430.61249   -140594.69247         0.00041  20250254.66247  20250253.81549
  -5813654.70948  -4530117.19044         0.00041  23863160.26444  23863157.99748
   6206185.50948   4835987.79546         0.00041  22364278.19446  22364276.52148
 96 10 16 05 55 30.0000000  0  7 07 02 26 27 15 19 31
  -9045610.65849  -7048526.08847         0.00041  21045414.55347  21045412.73949
  -1395576.29749  -1087460.63247         0.00041  21043152.52947  21043150.54949
  -8147838.91048  -6348964.60746         0.00041  23038599.54646  23038598.26048
   -157507.10049   -122732.22347         0.00041  20254616.92847  20254616.08949
  -5846924.48448  -4556041.67244         0.00041  23856829.25344  23856827.19948
   6283351.14448   4896116.84146         0.00041  22378962.52046  22378960.53348
        -0.83558        -0.80854         0.00051  24995892.06754  24995892.06758
 96 10 16 05 56 00.0000000  0  7 07 02 26 27 15 19 31
  -9106932.44749  -7096309.28947         0.00041  21033745.50047  21033743.63849
  -1395201.29449  -1087168.42047         0.00041  21043223.89147  21043221.87949
  -8199758.55148  -6389421.48446         0.00041  23028719.70946  23028718.38748
   -134533.35249   -104830.60747         0.00041  20258988.76547  20258987.72949
  -5880147.31948  -4581929.56644         0.00041  23850506.65944  23850505.03148
   6360396.22348   4956151.95146         0.00041  22393623.15046  22393621.53448
    112086.33847     87340.00444         0.00041  25017221.46444  25017221.46447
 96 10 16 05 56 30.0000000  0  7 07 02 26 27 15 19 31
  -9168215.53249  -7144062.33247         0.00041  21022083.53347  21022081.74049
  -1395031.48549  -1087036.09647         0.00041  21043256.01647  21043254.17649
  -8251591.69548  -6429810.94946         0.00041  23018856.20946  23018854.57848
   -111485.76749    -86871.45647         0.00041  20263374.70147  20263373.49949
  -5913293.29648  -4607757.56044         0.00041  23844200.48444  23844197.32148
   6437328.70848   5016099.32646         0.00041  22408262.66946  22408261.41748
    223868.47747    174442.96944         0.00041  25038492.97144  25038492.97147
 96 10 16 05 57 00.0000000  0  7 07 02 26 27 15 19 31
  -9229640.55249  -7191925.97247         0.00041  21010394.70847  21010392.83949
  -1395241.02849  -1087199.37247         0.00041  21043216.17047  21043214.27349
  -8303519.16748  -6470273.92546         0.00041  23008974.24646  23008973.05948
    -88542.20749    -68993.36747         0.00041  20267740.70847  20267739.61449
  -5946540.91148  -4633664.78244         0.00041  23837873.48844  23837870.47248
   6513959.58648   5075811.68646         0.00041  22422845.70546  22422844.03348
    335181.74347    261180.57944         0.00041  25059674.43144  25059674.43147
 96 10 16 05 57 30.0000000  0  7 07 02 26 27 15 19 31
  -9291311.40149  -7239981.17047         0.00041  20998659.26247  20998657.27749
  -1395937.93949  -1087742.41747         0.00041  21043083.54447  21043081.75249
  -8355662.20048  -6510904.86246         0.00041  22999052.06346  22999050.80348
    -65817.79749    -51286.04347         0.00041  20272065.18047  20272064.11549
  -5979998.67148  -4659735.74144         0.00041  23831505.90744  23831504.07248
   6590188.72948   5135211.00746         0.00041  22437351.02246  22437349.75748
    445916.54247    347467.43644         0.00041  25080746.61344  25080746.61347
 96 10 16 05 58 00.0000000  0  7 02 26 07 27 15 19 31
  -1396843.70949  -1088448.21047         0.00041  21042911.24147  21042909.31049
  -8407746.48248  -6551490.01746         0.00041  22989140.87546  22989139.47248
  -9352973.18849  -7288029.30647         0.00041  20986925.46647  20986923.44049
    -43040.91249    -33537.82747         0.00041  20276399.27547  20276398.43549
  -6013391.23048  -4685755.90644         0.00041  23825151.56644  23825149.53948
   6666293.38748   5194513.31846         0.00041  22451833.24046  22451831.82348
    556339.17747    433511.04744         0.00041  25101760.38344  25101760.38347
 96 10 16 05 58 30.0000000  0  7 02 26 07 27 15 19 31
  -1397754.17449  -1089157.66047         0.00041  21042738.04447  21042735.98949
  -8459555.09848  -6591860.36446         0.00041  22979282.10546  22979280.70748
  -9414383.63049  -7335881.58747         0.00041  20975239.17047  20975237.22749
    -19995.48649    -15580.35647         0.00041  20280784.60247  20280783.70649
  -6046499.34148  -4711554.41544         0.00041  23818852.54544  23818849.09148
   6742503.87648   5253898.10046         0.00041  22466335.92846  22466334.43548
    666675.19447    519487.16444         0.00041  25122755.89144  25122755.89147
 96 10 16 05 59 00.0000000  0  7 02 26 07 27 15 19 31
  -1398640.75049  -1089848.49947         0.00041  21042569.30947  21042567.21249
  -8511056.55148  -6631991.37646         0.00041  22969481.58046  22969480.36948
  -9475497.81649  -7383503.02047         0.00041  20963609.37447  20963607.63149
      3351.75549      2612.29247         0.00041  20285227.53047  20285226.59649
  -6079285.40348  -4737102.01644         0.00041  23812611.28244  23812609.72748
   6818868.00748   5313402.59546         0.00041  22480867.68746  22480866.00648
    776969.62147    605430.87444         0.00041  25143743.50644  25143743.50647
 96 10 16 05 59 30.0000000  0  6 02 26 15 19 07 27
  -1399543.09749  -1090551.62747         0.00041  21042397.45647  21042395.48149
  -8562291.81748  -6671914.96346         0.00041  22959731.46046  22959730.68048
  -6111792.56948  -4762432.28644         0.00041  23806425.88444  23806423.04748
   6895342.11848   5372992.80246         0.00041  22495419.86546  22495418.66448
  -9536360.95849  -7430928.83547         0.00041  20952027.57347  20952025.75349
     26965.39449     21012.52547         0.00041  20289721.15147  20289720.08249
 96 10 16 06 00 00.0000000  0  6 02 26 15 19 07 27
  -1401026.33649  -1091707.39947         0.00041  21042115.43147  21042113.28249
  -8613819.71048  -6712066.58846         0.00041  22949926.46646  22949925.38448
  -6144582.49548  -4787982.87744         0.00041  23800184.97344  23800182.96248
   6971357.00748   5432225.16546         0.00041  22509885.07846  22509884.00648
  -9597540.37649  -7478601.10047         0.00041  20940385.71247  20940383.68549
     50281.95149     39181.26547         0.00041  20294158.08647  20294157.03049
 96 10 16 06 00 30.0000000  0  6 02 26 15 19 07 27
  -1402809.08649  -1093096.55647         0.00041  21041776.04047  21041773.99749
  -8665353.37048  -6752222.69346         0.00041  22940120.19146  22940118.34648
  -6177368.95248  -4813530.74244         0.00041  23793947.40544  23793944.54448
   7047192.39048   5491317.65646         0.00041  22524316.19246  22524315.28548
  -9658738.69349  -7526288.09047         0.00041  20928739.86747  20928737.89749
     73577.25049     57333.43647         0.00041  20298591.07347  20298589.85249
 96 10 16 06 01 00.0000000  0  6 02 26 15 19 07 27
  -1404821.24249  -1094664.46847         0.00041  21041393.07847  21041391.11549
  -8716830.76548  -6792334.95746         0.00041  22930324.61146  22930322.40648
  -6210097.28948  -4839033.33644         0.00041  23787718.86044  23787716.41248
   7122885.67448   5550299.41946         0.00041  22538720.29546  22538719.06248
  -9719914.59949  -7573957.61947         0.00041  20917098.59347  20917096.64949
     96915.55349     75519.11647         0.00041  20303032.30247  20303031.07549
 96 10 16 06 01 30.0000000  0  6 02 26 15 19 07 27
  -1406515.17649  -1095984.41647         0.00041  21041070.60947  21041068.69049
  -8767699.21548  -6831972.71346         0.00041  22920643.80446  22920642.74348
  -6242220.55748  -4864064.43344         0.00041  23781607.24344  23781603.85548
   7198966.39548   5609583.08546         0.00041  22553197.80046  22553196.51748
  -9780528.78549  -7621189.44347         0.00041  20905563.97447  20905562.01849
    120842.48449     94163.46847         0.00041  20307585.35147  20307584.20549
 96 10 16 06 02 00.0000000  0  6 02 26 15 19 07 27
  -1407739.44949  -1096938.39347         0.00041  21040837.62747  21040835.79149
  -8817810.54448  -6871020.50846         0.00041  22911108.33546  22911106.75348
  -6273587.15048  -4888505.89844         0.00041  23775638.68044  23775635.60148
   7275584.39048   5669285.40246         0.00041  22567777.77946  22567776.63948
  -9840424.15249  -7667861.14947         0.00041  20894166.29347  20894164.25149
    145478.79049    113360.57947         0.00041  20312273.40247  20312272.39249
 96 10 16 06 02 30.0000000  0  6 02 26 15 19 07 27
  -1408532.42649  -1097556.29647         0.00041  21040686.99247  21040684.88349
  -8867194.33148  -6909501.38646         0.00041  22901711.22746  22901709.37948
  -6304230.21448  -4912383.56044         0.00041  23769805.23044  23769803.74048
   7352712.22048   5729384.99146         0.00041  22582454.38546  22582453.21848
  -9899630.52449  -7713995.97547         0.00041  20882899.72747  20882897.88949
    170788.67749    133082.56047         0.00041  20317089.68847  20317088.74049
 96 10 16 06 03 00.0000000  0  6 02 26 15 19 07 27
  -1408968.96249  -1097896.44847         0.00041  21040603.78447  21040601.79049
  -8915923.18548  -6947471.92746         0.00041  22892438.06946  22892436.92148
  -6334218.47248  -4935751.01544         0.00041  23764098.30244  23764097.91748
   7430282.39948   5789829.26946         0.00041  22597216.25346  22597214.45848
  -9958210.37349  -7759642.60247         0.00041  20871752.29647  20871750.44849
    196702.16349    153274.87747         0.00041  20322020.85647  20322019.84349
 96 10 16 06 03 30.0000000  0  6 02 26 15 19 07 27
  -1409108.90349  -1098005.48847         0.00041  21040577.25747  21040575.27149
  -8964033.17048  -6984960.23146         0.00041  22883283.31046  22883282.14448
  -6363581.68848  -4958631.44644         0.00041  23758513.66844  23758510.26048
   7508272.26948   5850600.58346         0.00041  22612057.34146  22612055.60448
 -10016194.62549  -7804825.12547         0.00041  20860718.30947  20860716.43349
    223177.43049    173904.95147         0.00041  20327059.16147  20327057.89549
 96 10 16 06 04 00.0000000  0  6 02 26 15 19 07 27
  -1408965.34749  -1097893.62347         0.00041  21040604.45847  21040602.56149
  -9011521.42648  -7021964.06646         0.00041  22874246.43346  22874245.35248
  -6392314.17548  -4981020.36144         0.00041  23753045.80244  23753042.80548
   7586694.21948   5911708.58346         0.00041  22626980.43746  22626978.90848
 -10073581.59549  -7849542.23347         0.00041  20849798.16047  20849796.13549
    250226.40649    194982.07147         0.00041  20332206.35847  20332205.11549
 96 10 16 06 04 30.0000000  0  6 02 26 15 19 07 27
  -1408631.58449  -1097633.54747         0.00041  21040668.19047  21040666.15749
  -9058460.51448  -7058539.98046         0.00041  22865313.80046  22865312.98648
  -6420501.45648  -5002984.44544         0.00041  23747683.38244  23747678.99348
   7665450.21148   5973076.87546         0.00041  22641967.20946  22641965.88048
 -10130460.23049  -7893863.23947         0.00041  20838974.44547  20838972.47349
    277793.87949    216463.20947         0.00041  20337452.20647  20337450.98549
 96 10 16 06 05 00.0000000  0  6 02 26 15 19 07 27
  -1408141.21949  -1097251.44247         0.00041  21040761.36547  21040759.43149
  -9104899.32948  -7094726.07146         0.00041  22856477.09646  22856475.93148
  -6448189.04048  -5024559.14644         0.00041  23742409.86844  23742409.86848
   7744471.22548   6034651.67546         0.00041  22657004.79746  22657003.00248
 -10186883.25449  -7937829.22147         0.00041  20828237.54947  20828235.58949
    305840.44349    238317.66847         0.00041  20342789.24347  20342788.09649
 96 10 16 06 05 30.0000000  0  6 02 26 15 19 07 27
  -1407403.22949  -1096676.38447         0.00041  21040901.77047  21040899.86549
  -9150749.70748  -7130453.64346         0.00041  22847752.22946  22847750.93948
  -6475287.64148  -5045674.95644         0.00041  23737250.25344  23737253.24648
   7823833.68248   6096492.52846         0.00041  22672106.85846  22672105.05648
 -10242781.61749  -7981386.37747         0.00041  20817600.45547  20817598.42749
    334462.20249    260620.32947         0.00041  20348235.80947  20348234.69449
 96 10 16 06 06 00.0000000  0  6 02 26 15 19 07 27
  -1407842.91149  -1097018.99547         0.00041  21040818.02747  21040816.18149
  -9197462.43848  -7166853.17846         0.00041  22838863.36646  22838861.68348
  -6503250.15148  -5067463.93144         0.00041  23731931.84144  23731931.84148
   7902081.78448   6157465.05946         0.00041  22686996.30046  22686995.15148
 -10299604.05249  -8025663.59147         0.00041  20806787.34847  20806785.54749
    362208.77049    282241.02347         0.00041  20353515.81047  20353514.77249
 96 10 16 06 06 30.0000000  0  6 02 26 15 19 07 27
  -1408863.07049  -1097813.92747         0.00041  21040623.82347  21040622.08349
  -9244468.85948  -7203481.57246         0.00041  22829918.38346  22829916.43748
  -6531498.98548  -5089476.01244         0.00041  23726560.25244  23726556.94548
   7979792.68448   6218018.99846         0.00041  22701784.21946  22701782.91848
 -10356772.56849  -8070210.48047         0.00041  20795908.50347  20795906.61149
    389652.44649    303625.69847         0.00041  20358738.34747  20358737.27349
 96 10 16 06 07 00.0000000  0  6 02 26 15 19 07 27
  -1409542.24549  -1098343.15547         0.00041  21040494.63147  21040492.80249
  -9290851.99948  -7239624.27846         0.00041  22821091.87246  22821090.27048
  -6559100.50048  -5110983.63344         0.00041  23721303.94844  23721303.94848
   8057920.29548   6278897.62946         0.00041  22716651.67146  22716650.00648
 -10413357.25349  -8114302.43747         0.00041  20785141.02947  20785138.88749
    417702.47749    325482.86047         0.00041  20364075.97947  20364074.86749
 96 10 16 06 07 30.0000000  0  6 02 26 15 19 07 27
  -1409597.65049  -1098386.32847         0.00041  21040483.86547  21040482.14349
  -9336309.90748  -7275046.03546         0.00041  22812440.81446  22812439.70848
  -6585752.26248  -5131751.23444         0.00041  23716233.01944  23716233.01948
   8136790.76248   6340355.10546         0.00041  22731660.42446  22731658.62948
 -10469047.55149  -8157697.46647         0.00041  20774543.14647  20774541.29049
    446651.92849    348040.86847         0.00041  20369584.95047  20369583.85949
 96 10 16 06 08 00.0000000  0  6 02 26 15 19 07 27
  -1407910.50049  -1097071.66547         0.00041  21040805.12747  21040803.30149
  -9379729.12348  -7308879.19346         0.00041  22804178.61146  22804177.41848
  -6610336.49748  -5150907.72744         0.00041  23711553.18644  23711553.18648
   8217530.91148   6403269.48646         0.00041  22747024.54846  22747022.91548
 -10522705.23349  -8199508.64147         0.00041  20764332.67647  20764330.79949
    477617.51049    372169.88447         0.00041  20375477.50047  20375476.36449
 96 10 16 06 08 30.0000000  0  6 02 26 15 19 07 27
  -1406342.03149  -1095849.47847         0.00041  21041103.58747  21041101.72049
  -9422938.33548  -7342548.71146         0.00041  22795956.29546  22795955.17948
  -6634687.27048  -5169882.32744         0.00041  23706915.74844  23706918.97548
   8298310.00248   6466214.21746         0.00041  22762396.20946  22762394.73548
 -10576165.74549  -8241166.17647         0.00041  20754159.37547  20754157.48449
    508762.19249    396438.45947         0.00041  20381404.20747  20381403.04649
 96 10 16 06 09 00.0000000  0  6 02 26 15 19 07 27
  -1404100.40649  -1094102.75247         0.00041  21041530.25447  21041528.17149
  -9465112.60948  -7375411.77846         0.00041  22787930.48146  22787929.38148
  -6657996.46948  -5188045.35644         0.00041  23702483.62444  23702484.51248
   8379934.53148   6529817.73046         0.00041  22777929.36946  22777927.36148
 -10628616.43849  -8282036.83747         0.00041  20744178.27347  20744176.32049
    540890.15849    421473.23147         0.00041  20387517.80247  20387516.74749
 96 10 16 06 09 30.0000000  0  6 02 26 15 19 07 27
  -1401722.77249  -1092250.04747         0.00041  21041982.61247  21041980.61349
  -9506798.96548  -7407894.65246         0.00041  22779998.25346  22779996.88248
  -6680806.75948  -5205819.58244         0.00041  23698146.74244  23698143.44648
   8461838.37048   6593638.88246         0.00041  22793514.76246  22793513.10348
 -10680595.27849  -8322539.81847         0.00041  20734287.11647  20734285.23049
    573470.18449    446860.25747         0.00041  20393717.72847  20393716.52649
 96 10 16 06 10 00.0000000  0  6 02 26 15 19 07 27
  -1399076.75349  -1090188.21147         0.00041  21042486.26347  21042484.19249
  -9547871.19748  -7439898.98546         0.00041  22772182.14746  22772181.18148
  -6702992.57248  -5223107.17444         0.00041  23693924.29644  23693921.49148
   8544131.54548   6657763.42446         0.00041  22809174.78246  22809173.09748
 -10731975.57849  -8362576.40747         0.00041  20724509.77147  20724507.82149
    606622.30949    472693.07547         0.00041  20400026.31347  20400025.18049
 96 10 16 06 10 30.0000000  0  6 02 26 15 19 07 27
  -1395958.92449  -1087758.73447         0.00041  21043079.41347  21043077.54449
  -9588108.30648  -7471252.58246         0.00041  22764525.47346  22764524.21648
  -6724343.58348  -5239744.31444         0.00041  23689860.96844  23689858.65348
   8627015.83248   6722348.57446         0.00041  22824946.96846  22824945.37648
 -10782547.63849  -8401983.19847         0.00041  20714886.09747  20714884.16849
    640540.73649    499123.01547         0.00041  20406480.80947  20406479.69449
 96 10 16 06 11 00.0000000  0  6 02 26 15 19 07 27
  -1392156.44849  -1084795.76447         0.00041  21043803.04447  21043801.15049
  -9627319.23448  -7501806.56046         0.00041  22757063.90346  22757062.46248
  -6744656.89148  -5255572.84044         0.00041  23685994.30044  23685992.73748
   8710670.83648   6787534.27846         0.00041  22840865.95846  22840864.54848
 -10832097.36349  -8440593.36247         0.00041  20705457.16247  20705455.22749
    675428.31649    526308.13147         0.00041  20413119.76547  20413118.59549
 96 10 16 06 11 30.0000000  0  6 02 26 15 19 07 27
  -1388271.79249  -1081768.75947         0.00041  21044542.48147  21044540.51549
  -9666121.60848  -7532042.18546         0.00041  22749680.04546  22749678.63048
  -6764542.93348  -5271068.42944         0.00041  23682211.21444  23682208.96448
   8794469.49648   6852831.91046         0.00041  22856812.96146  22856810.79248
 -10881231.61549  -8478879.78247         0.00041  20696107.20547  20696105.30049
    710677.77549    553775.23347         0.00041  20419827.50547  20419826.30549
 96 10 16 06 12 00.0000000  0  6 02 26 15 19 07 27
  -1384562.71849  -1078878.57247         0.00041  21045248.28247  21045246.29149
  -9704766.92848  -7562155.42546         0.00041  22742326.81446  22742324.83048
  -6784267.99848  -5286438.60144         0.00041  23678456.34544  23678455.17448
   8878150.48448   6918037.85946         0.00041  22872735.90546  22872734.68448
 -10930225.99149  -8517057.20547         0.00041  20686783.88347  20686782.04249
    746021.49749    581315.79147         0.00041  20426553.17947  20426552.01049
 96 10 16 06 12 30.0000000  0  6 02 26 15 19 07 27
  -1380935.65749  -1076052.29047         0.00041  21045938.45547  21045936.57149
  -9743154.10548  -7592067.52746         0.00041  22735021.92146  22735019.63348
  -6803734.22448  -5301607.06444         0.00041  23674752.70244  23674751.16948
   8961803.67948   6983222.14545         0.00041  22888655.03745  22888653.16448
 -10979002.30449  -8555064.71047         0.00041  20677502.11847  20677500.30749
    781566.14049    609012.90747         0.00041  20433316.91547  20433315.80349
 96 10 16 06 13 00.0000000  0  6 02 26 15 19 07 27
  -1377308.63149  -1073226.03447         0.00041  21046628.71047  21046626.79249
  -9781217.21048  -7621727.09946         0.00041  22727778.74746  22727776.48248
  -6822867.44648  -5316516.05144         0.00041  23671110.80344  23671110.15348
   9045498.11348   7048438.56645         0.00041  22904580.54645  22904579.85148
 -11027517.46249  -8592868.71847         0.00041  20668269.97947  20668268.07249
    817398.36049    636934.10747         0.00041  20440135.64947  20440134.57749
 96 10 16 06 13 30.0000000  0  6 02 26 15 19 07 27
  -1373577.33949  -1070318.53247         0.00041  21047338.60647  21047336.81149
  -9818846.79648  -7651048.86246         0.00041  22720618.10946  22720616.01548
  -6841563.41948  -5331084.32144         0.00041  23667556.87344  23667552.69848
   9129352.77848   7113779.84045         0.00041  22920538.57445  22920536.94048
 -11075690.61349  -8630406.22747         0.00041  20659102.91147  20659101.02649
    853607.06049    665148.66947         0.00041  20447025.87747  20447024.92049
 96 10 16 06 14 00.0000000  0  6 02 26 15 19 07 27
  -1369689.46349  -1067289.01947         0.00041  21048078.34447  21048076.59549
  -9855978.77548  -7679982.88146         0.00041  22713551.46346  22713549.67148
  -6859758.84948  -5345262.57444         0.00041  23664090.43444  23664090.32548
   9213443.75048   7179305.26945         0.00041  22936540.46745  22936538.86748
 -11123474.53349  -8667640.44247         0.00041  20650009.77847  20650008.11949
    890249.22649    693700.99847         0.00041  20453998.65147  20453997.55249
 96 10 16 06 14 30.0000000  0  6 02 26 15 19 07 27
  -1365782.44749  -1064244.58947         0.00041  21048821.89147  21048820.16749
  -9892737.49248  -7708626.03746         0.00041  22706556.60446  22706554.97648
  -6877569.20048  -5359140.74444         0.00041  23660702.80644  23660701.12548
   9297651.78348   7244921.90245         0.00041  22952564.53845  22952563.23448
 -11170980.74249  -8704658.25947         0.00041  20640969.79647  20640967.97249
    927198.32249    722492.49247         0.00041  20461029.86547  20461028.56249
 96 10 16 06 15 00.0000000  0  6 02 26 15 19 07 27
  -1361786.73749  -1061131.04847         0.00041  21049582.22047  21049580.45249
  -9929061.62448  -7736930.56146         0.00041  22699644.48546  22699642.85548
  -6894924.70648  -5372664.51044         0.00041  23657400.81544  23657398.10648
   9382056.48148   7310691.78945         0.00041  22968625.94745  22968624.96248
 -11218116.53249  -8741387.43747         0.00041  20632000.06147  20631998.21049
    964509.13349    751565.84047         0.00041  20468130.00747  20468128.71449
 96 10 16 06 15 30.0000000  0  6 02 26 15 19 07 27
  -1357879.83449  -1058086.70647         0.00041  21050325.70847  21050323.81249
  -9965112.85748  -7765022.43346         0.00041  22692783.87046  22692782.46548
  -6911984.30148  -5385957.67744         0.00041  23654153.38644  23654152.27848
   9466503.65648   7376494.76945         0.00041  22984696.55045  22984694.88448
 -11265011.08849  -8777928.64247         0.00041  20623076.33747  20623074.50449
   1002018.86949    780794.19847         0.00041  20475267.82247  20475266.56849
 96 10 16 06 16 00.0000000  0  6 02 26 15 19 07 27
  -1353910.72149  -1054993.89347         0.00041  21051080.95447  21051079.01949
 -10000748.73248  -7792790.64946         0.00041  22686002.77046  22686001.56348
  -6928591.08148  -5398898.06644         0.00041  23650993.91844  23650992.49748
   9551138.79848   7442444.21345         0.00041  23000802.50345  23000800.33048
 -11311493.92149  -8814149.02447         0.00041  20614230.93147  20614229.12549
   1039907.69349    810317.94847         0.00041  20482477.95847  20482476.66149
 96 10 16 06 16 30.0000000  0  6 02 26 15 19 07 27
  -1349585.62549  -1051623.69447         0.00041  21051903.95047  21051902.15249
 -10035683.09148  -7820012.23046         0.00041  22679354.74946  22679353.63848
  -6944455.57848  -5411259.95344         0.00041  23647972.50144  23647973.51648
   9636243.91848   7508759.87645         0.00041  23016995.84445  23016995.09448
 -11357261.64749  -8849812.18047         0.00041  20605521.46947  20605519.72849
   1078470.76749    840367.08647         0.00041  20489816.13047  20489814.90949
 96 10 16 06 17 00.0000000  0  6 02 26 15 19 07 27
  -1345050.62349  -1048089.93147         0.00041  21052766.81047  21052765.04649
 -10070074.80848  -7846810.97946         0.00041  22672809.92746  22672808.74348
  -6959739.18148  -5423169.21744         0.00041  23645064.60344  23645064.42848
   9721649.42148   7575309.60545         0.00041  23033248.13645  23033247.20848
 -11402480.54649  -8885047.67947         0.00041  20596916.70247  20596914.83249
   1117560.59149    870826.68047         0.00041  20497254.74947  20497253.47249
 96 10 16 06 17 30.0000000  0  6 02 26 15 19 07 27
  -1340375.45749  -1044446.94747         0.00041  21053656.54047  21053654.74549
 -10103985.34848  -7873234.77946         0.00041  22666357.26146  22666355.92548
  -6974504.87248  -5434674.93544         0.00041  23642254.72044  23642254.76448
   9807279.44248   7642034.27445         0.00041  23049544.81845  23049542.14848
 -11447232.77649  -8919919.53847         0.00041  20588400.62047  20588398.66749
   1157132.01549    901661.55147         0.00041  20504784.87147  20504783.76549
 96 10 16 06 18 00.0000000  0  6 02 26 15 19 07 27
  -1335529.94549  -1040671.22547         0.00041  21054578.70347  21054576.96749
 -10137381.62948  -7899257.85546         0.00041  22660002.17046  22660000.82048
  -6988733.05348  -5445761.82744         0.00041  23639549.93744  23639547.61148
   9893153.52648   7708949.13345         0.00041  23065885.58545  23065883.40148
 -11491512.12649  -8954422.92147         0.00041  20579974.43647  20579972.60649
   1197208.09149    932889.65647         0.00041  20512411.26747  20512410.09049
 96 10 16 06 18 30.0000000  0  6 02 26 15 19 07 27
  -1330472.65449  -1036730.47747         0.00041  21055541.11547  21055539.21849
 -10170195.12748  -7924826.81346         0.00041  22653757.36946  22653756.71148
  -7002377.62448  -5456393.96544         0.00041  23636951.09844  23636951.15148
   9979322.88448   7776094.06445         0.00041  23082283.23345  23082281.30848
 -11535277.13649  -8988525.52047         0.00041  20571646.34647  20571644.50449
   1237822.02249    964536.86747         0.00041  20520139.70447  20520138.66649
 96 10 16 06 19 00.0000000  0  6 02 26 15 19 07 27
  -1325234.02049  -1032648.42447         0.00041  21056537.97147  21056536.17949
 -10202447.92448  -7949958.87346         0.00041  22647620.47446  22647619.34748
  -7015459.99548  -5466588.01844         0.00041  23634462.40744  23634461.71648
  10065771.31648   7843456.46345         0.00041  23098733.04445  23098731.63548
 -11578556.00149  -9022249.30147         0.00041  20563410.70547  20563408.88549
   1278949.56849    996584.29447         0.00041  20527965.96147  20527964.88349
 96 10 16 06 19 30.0000000  0  6 02 26 15 19 07 27
  -1319813.83049  -1028424.89547         0.00041  21057569.47947  21057567.64749
 -10234127.41848  -7974644.19546         0.00041  22641591.73146  22641591.18248
  -7027967.13948  -5476333.81244         0.00041  23632083.33744  23632081.77348
  10152517.35448   7911050.75545         0.00041  23115241.63145  23115238.93548
 -11621328.27249  -9055578.33447         0.00041  20555271.31347  20555269.47849
   1320590.50549   1029031.76547         0.00041  20535889.81647  20535888.99349
 96 10 16 06 20 00.0000000  0  6 02 26 15 19 07 27
  -1314306.18049  -1024133.21747         0.00041  21058617.50847  21058615.61049
 -10265327.31848  -7998955.81446         0.00041  22635654.97346  22635653.93548
  -7039996.64348  -5485707.44744         0.00041  23629792.63744  23629792.53048
  10239465.30048   7978802.38045         0.00041  23131787.15645  23131784.87748
 -11663681.68149  -9088580.98247         0.00041  20547211.84147  20547209.82549
   1362626.75949   1061787.28047         0.00041  20543889.01147  20543888.35649
 96 10 16 06 20 30.0000000  0  6 02 26 15 19 07 27
  -1308689.28649  -1019756.41347         0.00041  21059686.31547  21059684.37449
 -10296043.77148  -8022890.72046         0.00041  22629809.69346  22629808.59748
  -7051527.79548  -5494692.72444         0.00041  23627599.13444  23627598.34848
  10326631.39748   8046723.98745         0.00041  23148374.83545  23148371.64848
 -11705594.07249  -9121239.97847         0.00041  20539236.05547  20539234.11349
   1405061.13049   1094853.01647         0.00041  20551964.18547  20551963.33549
 96 10 16 06 21 00.0000000  0  6 02 26 15 19 07 27
  -1302948.51549  -1015283.08347         0.00041  21060778.81747  21060776.87949
 -10326275.35748  -8046447.80846         0.00041  22624056.84246  22624055.71348
  -7062546.48648  -5503278.72145         0.00041  23625504.71345  23625501.78148
  10414022.03748   8114820.56645         0.00041  23165003.57945  23165001.31548
 -11747050.37149  -9153543.57647         0.00041  20531347.10947  20531345.17549
   1447892.83749   1128228.35947         0.00041  20560114.76647  20560113.92249
 96 10 16 06 21 30.0000000  0  6 02 26 15 19 07 27
  -1296943.10049  -1010603.53547         0.00041  21061921.70647  21061919.58649
 -10355896.63048  -8069529.32246         0.00041  22618420.44746  22618418.61048
  -7072920.77548  -5511362.55745         0.00041  23623528.56045  23623527.95548
  10501757.34248   8183185.71145         0.00041  23181698.48445  23181697.20648
 -11787914.50849  -9185385.75347         0.00041  20523571.02547  20523569.17649
   1491243.67049   1162008.21947         0.00041  20568364.23547  20568363.28049
 96 10 16 06 22 00.0000000  0  6 02 26 15 19 07 27
  -1290864.07149  -1005866.62647         0.00041  21063078.37747  21063076.39149
 -10385113.50448  -8092295.72346         0.00041  22612860.60046  22612858.80248
  -7082844.60548  -5519095.41945         0.00041  23621640.47945  23621639.25048
  10589642.18848   8251667.37345         0.00041  23198424.25845  23198421.07948
 -11828379.80649  -9216917.14547         0.00041  20515870.72747  20515868.89649
   1534919.42949   1196041.26547         0.00041  20576675.40447  20576674.58149
 96 10 16 06 22 30.0000000  0  6 02 26 15 19 07 27
  -1284682.05249  -1001049.47247         0.00041  21064254.52047  21064252.72449
 -10413892.99348  -8114721.30646         0.00041  22607384.31846  22607382.40348
  -7092280.29448  -5526447.88844         0.00041  23619843.61344  23619843.55748
  10677711.59348   8320292.85044         0.00041  23215180.59044  23215179.88848
 -11868415.33749  -9248113.65547         0.00041  20508252.04647  20508250.21149
   1578970.27849   1230366.59147         0.00041  20585058.08347  20585057.21349
 96 10 16 06 23 00.0000000  0  6 02 26 15 19 07 27
  -1278321.29249   -996093.03647         0.00041  21065464.98747  21065463.15549
 -10442147.77048  -8136738.01346         0.00041  22602007.25846  22602005.72748
  -7101151.78948  -5533360.72244         0.00041  23618155.60844  23618155.32348
  10766029.03448   8389111.61545         0.00041  23231989.08145  23231986.37648
 -11907945.65049  -9278916.48947         0.00041  20500729.62147  20500727.92049
   1623486.64449   1265054.65447         0.00041  20593529.32847  20593528.35049
 96 10 16 06 23 30.0000000  0  6 02 26 15 19 07 27
  -1271706.26749   -990938.47247         0.00041  21066723.82647  21066721.86549
 -10469808.46848  -8158291.79946         0.00041  22596743.77246  22596741.95648
  -7109397.16548  -5539785.67944         0.00041  23616587.14444  23616586.16248
  10854653.00648   8458169.23945         0.00041  23248852.62245  23248850.78848
 -11946912.26249  -9309280.07547         0.00041  20493314.62247  20493312.93149
   1668545.90749   1300165.74847         0.00041  20602103.82347  20602102.82649
 96 10 16 06 24 00.0000000  0  6 02 26 15 19 07 27
  -1264946.56849   -985671.17647         0.00041  21068010.17447  21068008.32349
 -10496953.91348  -8179444.10346         0.00041  22591578.18246  22591576.60748
  -7117115.71148  -5545800.13344         0.00041  23615117.72844  23615117.03848
  10943485.31048   8527389.18445         0.00041  23265758.94145  23265755.16148
 -11985424.51949  -9339289.61647         0.00041  20485985.97347  20485984.33949
   1714061.39649   1335632.34447         0.00041  20610765.23947  20610764.18149
 96 10 16 06 24 30.0000000  0  6 02 26 15 19 07 27
  -1258033.59649   -980284.44447         0.00041  21069325.70347  21069323.83349
 -10523563.74048  -8200179.02646         0.00041  22586514.70546  22586513.16048
  -7124302.36448  -5551400.08544         0.00041  23613752.25444  23613748.96548
  11032515.74648   8596763.53945         0.00041  23282699.55445  23282697.53448
 -12023491.73649  -9368952.37547         0.00041  20478741.95747  20478740.25249
   1760038.22749   1371458.43147         0.00041  20619514.39547  20619513.29749
 96 10 16 06 25 00.0000000  0  6 02 26 15 19 07 27
  -1250954.55649   -974768.31147         0.00041  21070672.87447  21070671.04749
 -10549623.08748  -8220485.01946         0.00041  22581555.24246  22581554.30748
  -7130946.94048  -5556577.67745         0.00041  23612487.28445  23612484.91848
  11121751.51648   8666297.88745         0.00041  23299680.31745  23299678.26748
 -12061091.91349  -9398251.20447         0.00041  20471586.89847  20471585.10149
   1806490.89449   1407655.29947         0.00041  20628353.91847  20628352.94249
 96 10 16 06 25 30.0000000  0  6 02 26 15 19 07 27
  -1243714.78449   -969126.93447         0.00041  21072050.43547  21072048.70349
 -10575123.95948  -8240355.82946         0.00041  22576702.98846  22576701.93648
  -7137036.10448  -5561322.45244         0.00041  23611328.76644  23611325.62448
  11211212.95448   8736008.06745         0.00041  23316704.98345  23316701.89748
 -12098202.07149  -9427168.20147         0.00041  20464524.96647  20464523.07449
   1853430.83149   1444231.86147         0.00041  20637286.36347  20637285.26649
 96 10 16 06 26 00.0000000  0  6 02 26 15 19 07 27
  -1236356.35049   -963393.09647         0.00041  21073450.64447  21073449.02449
 -10600098.30848  -8259816.36446         0.00041  22571950.32946  22571949.28048
  -7142594.32448  -5565653.52344         0.00041  23610269.33944  23610268.04048
  11300869.04548   8805869.94645         0.00041  23333765.38145  23333763.22348
 -12134845.00249  -9455721.12547         0.00041  20457552.11647  20457550.35049
   1900826.73949   1481163.72047         0.00041  20646305.49147  20646304.33549
 96 10 16 06 26 30.0000000  0  6 02 26 15 19 07 27
  -1228879.07849   -957566.65247         0.00041  21074873.59247  21074871.82649
 -10624564.58748  -8278880.99846         0.00041  22567294.44346  22567293.48148
  -7147624.20148  -5569572.90244         0.00041  23609313.05444  23609311.26948
  11390711.93348   8875877.35045         0.00041  23350862.93845  23350860.13248
 -12171010.01549  -9483901.64347         0.00041  20450669.94547  20450668.21949
   1948666.59949   1518441.52047         0.00041  20655409.00747  20655407.94549
 96 10 16 06 27 00.0000000  0  6 02 26 15 19 07 27
  -1221308.03849   -951667.14247         0.00041  21076314.23747  21076312.40849
 -10648544.40848  -8297566.57946         0.00041  22562731.27746  22562730.42148
  -7152136.83348  -5573089.23744         0.00041  23608452.73644  23608452.16148
  11480737.97948   8946027.50745         0.00041  23367992.90645  23367991.21248
 -12206692.63249  -9511706.26947         0.00041  20443880.00847  20443878.31349
   1996933.28249   1556051.90547         0.00041  20664594.01447  20664592.96049
 96 10 16 06 27 30.0000000  0  6 02 26 15 19 07 27
  -1213669.67149   -945715.16747         0.00041  21077767.92747  21077766.02349
 -10672079.73748  -8315905.80746         0.00041  22558252.70346  22558251.49148
  -7156163.24248  -5576226.68644         0.00041  23607686.13244  23607685.37648
  11570917.19448   9016297.00245         0.00041  23385154.08145  23385151.56948
 -12241943.44549  -9539174.42647         0.00041  20437171.92347  20437170.31949
   2045572.87349   1593952.87447         0.00041  20673849.80247  20673848.83949
 96 10 16 06 28 00.0000000  0  6 02 26 15 19 07 27
  -1205920.26449   -939676.66947         0.00041  21079242.66147  21079240.75549
 -10695149.62848  -8333882.35146         0.00041  22553862.65146  22553861.37848
  -7159677.96448  -5578965.44644         0.00041  23607019.49044  23607016.08748
  11661276.85248   9086707.09045         0.00041  23402348.26245  23402346.62148
 -12276754.03549  -9566299.55247         0.00041  20430547.49347  20430545.97049
   2094601.71849   1632157.15647         0.00041  20683179.73947  20683178.70649
 96 10 16 06 28 30.0000000  0  6 02 26 15 19 07 27
  -1197924.31849   -933446.05947         0.00041  21080764.34347  21080762.36049
 -10717634.55748  -8351403.08346         0.00041  22549583.57546  22549582.86248
  -7162550.22648  -5581203.54744         0.00041  23606470.49744  23606469.59048
  11751961.07748   9157370.11145         0.00041  23419605.42545  23419603.13148
 -12311002.30149  -9592986.50347         0.00041  20424030.40947  20424028.81049
   2144144.84549   1670762.17847         0.00041  20692607.52047  20692606.44249
 96 10 16 06 29 00.0000000  0  6 02 26 15 19 07 27
  -1189755.89249   -927081.04947         0.00041  21082318.64947  21082316.66049
 -10739614.42848  -8368530.26846         0.00041  22545401.44246  22545400.39248
  -7164863.03248  -5583005.71044         0.00041  23606031.42744  23606029.65048
  11842892.43248   9228225.69245         0.00041  23436909.80545  23436906.88248
 -12344790.44349  -9619314.91747         0.00041  20417600.87347  20417599.14549
   2194113.90949   1709699.09847         0.00041  20702116.30247  20702115.20649
 96 10 16 06 29 30.0000000  0  6 02 26 15 19 07 27
  -1181422.73149   -920587.67647         0.00041  21083904.26447  21083902.42049
 -10761102.80848  -8385274.46346         0.00041  22541311.69846  22541311.01148
  -7166632.12948  -5584384.21944         0.00041  23605694.18844  23605693.11648
  11934057.56848   9299263.44845         0.00041  23454256.39445  23454255.11748
 -12378153.28349  -9645311.92447         0.00041  20411252.07647  20411250.35349
   2244496.43449   1748958.19547         0.00041  20711703.61747  20711702.73349
 96 10 16 06 30 00.0000000  0  6 02 26 15 19 07 27
  -1172907.70949   -913952.59147         0.00041  21085524.75247  21085522.69849
 -10782063.75748  -8401607.67746         0.00041  22537323.66446  22537322.32848
  -7167833.12448  -5585320.02944         0.00041  23605466.27644  23605464.79448
  12025479.12448   9370500.99145         0.00041  23471654.82145  23471652.42448
 -12411051.50249  -9670946.89147         0.00041  20404991.59047  20404989.91049
   2295331.86449   1788570.20547         0.00041  20721377.50747  20721376.33949
 96 10 16 06 30 30.0000000  0  6 02 26 15 19 07 27
  -1164228.70449   -907189.72847         0.00041  21087176.12947  21087174.37349
 -10802488.66048  -8417523.19446         0.00041  22533436.76046  22533435.52848
  -7168470.25748  -5585816.50644         0.00041  23605344.28144  23605343.35348
  12117148.94348   9441932.02145         0.00041  23489097.12645  23489096.56648
 -12443474.01549  -9696211.17647         0.00041  20398821.99947  20398820.18249
   2346623.99649   1828538.08747         0.00041  20731138.11247  20731136.88649
 96 10 16 06 31 00.0000000  0  6 02 26 15 07 27 19
  -1155358.83349   -900278.14247         0.00041  21088864.08447  21088862.36849
 -10822318.73548  -8432975.20346         0.00041  22529662.93646  22529661.88748
  -7168506.93048  -5585845.06144         0.00041  23605337.39344  23605336.34748
 -12475370.78749  -9721065.79447         0.00041  20392752.07247  20392750.40949
   2398416.59249   1868895.94447         0.00041  20740993.79847  20740992.69549
  12209094.27448   9513577.71045         0.00041  23506593.77345  23506593.05648
 96 10 16 06 31 30.0000000  0  7 02 26 15 07 27 19 04
  -1146333.62949   -893245.51947         0.00041  21090581.57447  21090579.81349
 -10841569.15448  -8447975.53346         0.00041  22526000.49646  22525998.91948
  -7167964.82848  -5585422.64244         0.00041  23605438.69744  23605439.61748
 -12506750.43549  -9745517.46047         0.00041  20386780.70547  20386779.11349
   2450694.87749   1909632.25847         0.00041  20750941.93547  20750940.76449
  12301290.02448   9585418.55145         0.00041  23524137.75045  23524137.34948
         0.11058         0.61454         0.00051  25179428.92254  25179427.06258
 96 10 16 06 32 00.0000000  0  7 02 26 07 27 15 19 04
  -1137190.52049   -886121.02247         0.00041  21092321.47547  21092319.72149
 -10860269.16048  -8462546.97246         0.00041  22522441.31546  22522440.33848
 -12537633.95449  -9769582.52947         0.00041  20380903.79047  20380902.26849
   2503419.94249   1950716.71047         0.00041  20760975.30647  20760974.22849
  -7166879.88748  -5584577.22844         0.00041  23605648.04644  23605646.40048
  12393684.77748   9657414.45044         0.00041  23541719.93144  23541719.36348
    -96281.46648    -75024.00644         0.00041  25161101.97944  25161105.70148
 96 10 16 06 32 30.0000000  0  7 02 26 07 27 15 19 04
  -1127927.90349   -878903.40247         0.00041  21094083.93147  21094082.44549
 -10878424.32748  -8476693.85646         0.00041  22518986.43746  22518985.50048
 -12568038.16049  -9793274.11247         0.00041  20375118.04947  20375116.52849
   2556583.66649   1992142.97347         0.00041  20771092.00647  20771090.99449
  -7165253.54848  -5583309.93744         0.00041  23605958.38144  23605956.51448
  12486266.65448   9729556.14144         0.00041  23559338.59544  23559336.86548
   -192760.25148   -150202.34044         0.00041  25142746.34444  25142745.71648
 96 10 16 06 33 00.0000000  0  7 02 26 07 27 15 19 04
  -1118550.33949   -871596.20947         0.00041  21095868.42247  21095866.83349
 -10896055.73648  -8490432.62846         0.00041  22515631.69246  22515630.53348
 -12597992.69149  -9816615.29847         0.00041  20369417.94247  20369416.24549
   2610166.39249   2033895.73447         0.00041  20781288.66247  20781287.46549
  -7163098.94948  -5581631.02644         0.00041  23606367.29044  23606366.22948
  12579010.43648   9801824.01044         0.00041  23576986.47144  23576985.40048
   -289443.79148   -225540.10144         0.00041  25124350.66544  25124347.58648
 96 10 16 06 33 30.0000000  0  7 02 26 07 27 15 19 04
  -1108997.87249   -864152.73047         0.00041  21097686.38247  21097684.61149
 -10913117.92148  -8503727.84346         0.00041  22512384.37546  22512383.46248
 -12627448.35649  -9839567.75847         0.00041  20363812.77147  20363811.10649
   2664229.90049   2076023.12347         0.00041  20791576.47747  20791575.18649
  -7160358.94548  -5579495.88144         0.00041  23606889.85844  23606887.92648
  12671965.66048   9874256.63944         0.00041  23594676.39444  23594674.36648
   -386270.46248   -300989.44544         0.00041  25105922.32544  25105922.32548
 96 10 16 06 34 00.0000000  0  7 02 26 07 27 15 19 04
  -1099278.59049   -856579.26647         0.00041  21099535.97947  21099534.03649
 -10929629.68049  -8516594.15946         0.00041  22509242.06646  22509241.55149
 -12656411.61649  -9862136.52547         0.00041  20358301.05947  20358299.41949
   2718776.09149   2118526.63547         0.00041  20801956.38947  20801955.01049
  -7157037.43448  -5576907.73045         0.00041  23607521.90945  23607520.05548
  12765119.20248   9946843.80045         0.00041  23612404.91145  23612400.93048
   -483249.41548   -376557.48344         0.00041  25087472.66944  25087468.27448
 96 10 16 06 34 30.0000000  0  7 02 26 07 27 15 19 04
  -1089455.92649   -848925.24647         0.00041  21101405.21947  21101403.31949
 -10945650.40148  -8529077.84046         0.00041  22506193.62846  22506192.77548
 -12684945.50149  -9884370.71547         0.00041  20352871.42447  20352869.65949
   2773753.93449   2161366.49947         0.00041  20812418.34347  20812416.89849
  -7153192.79548  -5573911.87145         0.00041  23608253.08245  23608251.71548
  12858424.06948  10019548.85745         0.00041  23630157.66345  23630156.48748
   -580425.33048   -452278.98344         0.00041  25068978.02244  25068976.36148
 96 10 16 06 35 00.0000000  0  7 02 26 07 27 15 19 04
  -1079499.52249   -841167.01247         0.00041  21103299.74647  21103297.78449
 -10961150.69848  -8541155.99946         0.00041  22503244.43346  22503243.09348
 -12713001.43049  -9906232.47147         0.00041  20347532.45347  20347530.70649
   2829199.35249   2204570.70847         0.00041  20822969.17247  20822968.00149
  -7148789.55448  -5570480.76745         0.00041  23609092.26245  23609089.49648
  12951930.11448  10092410.67345         0.00041  23647952.90745  23647950.35248
   -677746.49648   -528113.70144         0.00041  25050458.31544  25050456.84248
 96 10 16 06 35 30.0000000  0  7 02 26 07 27 15 19 04
  -1069389.35849   -833288.96447         0.00041  21105223.66047  21105221.72049
 -10976117.63148  -8552818.55146         0.00041  22500395.88946  22500395.11748
 -12740541.53049  -9927692.28347         0.00041  20342291.71447  20342290.01649
   2885133.06849   2248155.40047         0.00041  20833613.07447  20833612.00749
  -7143803.75148  -5566595.72245         0.00041  23610039.66645  23610038.42848
  13045671.77548  10165456.09745         0.00041  23665789.28445  23665788.90948
   -775189.22548   -604043.16444         0.00041  25031915.95844  25031914.05548
 96 10 16 06 36 00.0000000  0  7 02 26 07 27 15 19 04
  -1059131.78549   -825296.05247         0.00041  21107175.66847  21107173.74649
 -10990586.46248  -8564092.96946         0.00041  22497643.49946  22497641.78248
 -12767579.99349  -9948761.20947         0.00041  20337146.62047  20337144.82049
   2941509.14849   2292084.79647         0.00041  20844341.02747  20844339.87949
  -7138255.61948  -5562272.50244         0.00041  23611094.27344  23611093.85948
  13139638.15548  10238676.63045         0.00041  23683673.46045  23683670.16948
   -872765.87948   -680076.97844         0.00041  25013349.26344  25013345.83848
 96 10 16 06 36 30.0000000  0  7 02 26 07 27 15 19 04
  -1048670.57149   -817144.45947         0.00041  21109166.36547  21109164.41349
 -11004498.22448  -8574933.30746         0.00041  22494995.89846  22494994.37448
 -12794065.76749  -9969399.46747         0.00041  20332106.48247  20332104.78749
   2998351.41649   2336377.45247         0.00041  20855157.85247  20855156.61249
  -7132100.39548  -5557476.22744         0.00041  23612264.71144  23612265.11348
  13233882.13848  10312113.46445         0.00041  23701605.61345  23701604.08848
   -970425.19048   -756175.19044         0.00041  24994762.47544  24994762.01948
 96 10 16 06 37 00.0000000  0  7 02 26 07 27 15 19 04
  -1037958.19449   -808797.15447         0.00041  21111204.87147  21111202.88949
 -11017809.91448  -8585306.06046         0.00041  22492462.40246  22492461.35748
 -12819943.85149  -9989564.20147         0.00041  20327182.04047  20327180.27849
   3055697.89949   2381063.00847         0.00041  20866070.42547  20866069.30049
  -7125289.39948  -5552168.94145         0.00041  23613562.32445  23613561.15748
  13328443.98948  10385797.99945         0.00041  23719600.52345  23719598.58648
  -1068124.94248   -832304.86344         0.00041  24976171.36144  24976170.71948
 96 10 16 06 37 30.0000000  0  7 02 26 07 27 15 19 04
  -1027127.08249   -800357.32447         0.00041  21113266.02747  21113264.01849
 -11030638.24648  -8595302.17046         0.00041  22490021.37346  22490020.25048
 -12845349.01349 -10009360.42247         0.00041  20322347.50047  20322345.69349
   3113414.43849   2426036.91847         0.00041  20877053.52447  20877052.37049
  -7117956.48648  -5546454.96045         0.00041  23614957.19345  23614956.38148
  13423173.45248  10459613.15945         0.00041  23737627.03045  23737624.98448
  -1166001.33948   -908572.23244         0.00041  24957546.51944  24957545.35948
 96 10 16 06 38 00.0000000  0  7 02 26 07 27 15 19 04
  -1016287.37849   -791910.79847         0.00041  21115328.48947  21115326.76349
 -11043056.61948  -8604978.83146         0.00041  22487657.74546  22487657.02048
 -12870396.14049 -10028877.65347         0.00041  20317581.36947  20317579.45249
   3171407.18549   2471226.05547         0.00041  20888089.21947  20888088.13249
  -7110205.73448  -5540415.39545         0.00041  23616432.70745  23616432.07348
  13517954.30348  10533468.35545         0.00041  23755664.66245  23755661.00248
  -1264150.46748   -985052.07744         0.00041  24938869.52644  24938868.02748
 96 10 16 06 38 30.0000000  0  7 02 26 07 27 15 19 04
  -1005312.04749   -783358.59147         0.00041  21117416.99547  21117415.08649
 -11054902.52649  -8614209.40846         0.00041  22485403.75346  22485402.89949
 -12894957.23749 -10048016.16247         0.00041  20312907.46747  20312905.57149
   3229843.81849   2516761.08047         0.00041  20899209.38247  20899208.24249
  -7101896.55148  -5533940.64244         0.00041  23618013.81544  23618012.62048
  13612910.10848  10607459.86245         0.00041  23773733.45545  23773730.12048
  -1362439.93248  -1061641.29244         0.00041  24920167.66144  24920164.13048
 96 10 16 06 39 00.0000000  0  7 02 26 07 27 15 19 04
   -994168.92349   -774675.63647         0.00041  21119537.38647  21119535.57349
 -11066165.52249  -8622985.77546         0.00041  22483260.42646  22483259.72849
 -12919010.60949 -10066759.04147         0.00041  20308330.40447  20308328.47249
   3288768.96449   2562676.76047         0.00041  20910422.60647  20910421.36949
  -7092997.89648  -5527006.60644         0.00041  23619707.00444  23619705.94048
  13708061.65748  10681603.90644         0.00041  23791839.83444  23791836.76148
  -1460835.52948  -1138313.15744         0.00041  24901440.75044  24901440.09848
 96 10 16 06 39 30.0000000  0  7 02 26 07 27 15 19 04
   -982882.85549   -765881.29847         0.00041  21121685.08747  21121683.22849
 -11076895.30949  -8631346.65446         0.00041  22481218.61646  22481217.82349
 -12942610.86049 -10085148.83947         0.00041  20303839.42747  20303837.45149
   3348147.07149   2608945.39947         0.00041  20921721.82347  20921720.68349
  -7083545.28648  -5519640.95644         0.00041  23621504.56544  23621504.56548
  13803367.09648  10755867.86844         0.00041  23809976.08244  23809972.90948
  -1559355.81348  -1215082.21244         0.00041  24882693.96044  24882692.39348
 96 10 16 06 40 00.0000000  0  7 02 26 07 27 15 19 04
   -971435.98649   -756961.66147         0.00041  21123863.24947  21123861.54449
 -11087111.56949  -8639307.37946         0.00041  22479274.85546  22479273.50449
 -12965752.42349 -10103181.22047         0.00041  20299435.63847  20299433.80249
   3407982.58149   2655570.45647         0.00041  20933108.04847  20933106.93349
  -7073525.31248  -5511837.90544         0.00041  23623411.90344  23623411.90348
  13898839.77048  10830262.12444         0.00041  23828142.96744  23828140.44048
  -1657988.83748  -1291939.07544         0.00041  24863924.96544  24863923.16448
 96 10 16 06 40 30.0000000  0  7 02 26 07 27 15 19 04
   -959815.67349   -747906.87347         0.00041  21126074.43447  21126072.83049
 -11096842.69449  -8646890.07646         0.00041  22477423.24546  22477421.78949
 -12988424.80049 -10120848.00047         0.00041  20295121.26147  20295119.43949
   3468253.42649   2702534.73647         0.00041  20944577.35947  20944576.05049
  -7062934.10948  -5503585.02044         0.00041  23625427.00044  23625427.00048
  13994489.32948  10904794.23944         0.00041  23846344.14644  23846342.36848
  -1756734.80448  -1368884.00044         0.00041  24845134.43444  24845132.48848
 96 10 16 06 41 00.0000000  0  7 02 26 07 27 15 19 04
   -947989.97749   -738692.04847         0.00041  21128324.87747  21128323.34049
 -11106081.11849  -8654088.85346         0.00041  22475664.65746  22475663.79749
 -13010599.21649 -10138126.76147         0.00041  20290901.54447  20290899.75549
   3528962.87749   2749840.79247         0.00041  20956129.93847  20956128.49149
  -7051747.36348  -5494865.12246         0.00041  23627557.03646  23627555.44848
  14090341.54548  10979484.24544         0.00041  23864584.88744  23864582.60848
  -1855564.21948  -1445893.93344         0.00041  24826327.78144  24826325.93148
 96 10 16 06 41 30.0000000  0  7 02 26 07 27 15 19 04
   -935982.29449   -729335.41147         0.00041  21130609.93347  21130608.39249
 -11114809.63249  -8660890.29846         0.00041  22474003.91146  22474002.81049
 -13032281.31449 -10155021.89647         0.00041  20286775.53747  20286773.86349
   3590089.36549   2797471.80247         0.00041  20967761.80147  20967760.56349
  -7039975.64748  -5485698.81646         0.00041  23629797.35346  23629795.80248
  14186394.76748  11054330.89044         0.00041  23882861.88844  23882861.06048
  -1954491.55348  -1522980.14644         0.00041  24807502.64344  24807500.85848
 96 10 16 06 42 00.0000000  0  7 07 02 26 27 15 19 04
 -13053467.78849 -10171530.83447         0.00041  20282743.80647  20282742.31749
   -923815.63749   -719854.90247         0.00041  21132925.15847  21132923.74749
 -11123007.98349  -8667278.62446         0.00041  22472444.25246  22472442.81749
   3651623.77949   2845420.67747         0.00041  20979471.56747  20979470.15249
  -7027629.69948  -5476070.85246         0.00041  23632147.06546  23632145.08248
  14282647.45048  11129332.95344         0.00041  23901178.82644  23901177.24048
  -2053537.84748  -1600159.08644         0.00041  24788655.88844  24788652.49448
 96 10 16 06 42 30.0000000  0  7 07 02 26 27 15 19 04
 -13074141.18149 -10187639.96647         0.00041  20278809.70347  20278808.10449
   -911480.46949   -710243.08547         0.00041  21135272.47447  21135271.04549
 -11130625.29149  -8673214.19146         0.00041  22470994.14646  22470993.46849
   3713612.58849   2893723.62547         0.00041  20991267.85847  20991266.39849
  -7014687.96348  -5465985.29044         0.00041  23634609.37844  23634607.72648
  14379134.46248  11204517.64344         0.00041  23919540.73544  23919537.66348
  -2152687.68948  -1677418.70744         0.00041  24769788.35444  24769785.46048
 96 10 16 06 43 00.0000000  0  7 07 02 26 27 15 19 04
 -13094321.87949 -10203365.18147         0.00041  20274969.62947  20274967.82349
   -899014.19549   -700529.10747         0.00041  21137644.85547  21137643.16849
 -11137658.44849  -8678694.57946         0.00041  22469655.98146  22469655.05749
   3776068.87249   2942390.84147         0.00041  21003152.66047  21003151.50249
  -7001168.07848  -5455455.64544         0.00041  23637180.57444  23637180.57448
  14475844.24748  11279875.89244         0.00041  23937943.75444  23937941.71948
  -2251962.77548  -1754775.91544         0.00041  24750896.06144  24750893.93548
 96 10 16 06 43 30.0000000  0  7 07 02 26 27 15 19 04
 -13114002.05249 -10218700.37547         0.00041  20271224.51047  20271222.68149
   -886425.55549   -690719.77747         0.00041  21140040.36947  21140038.66149
 -11144088.26849  -8683704.83546         0.00041  22468432.62446  22468431.66849
   3839005.81749   2991432.60547         0.00041  21015129.38147  21015128.03649
  -6987066.33348  -5444467.27244         0.00041  23639863.43344  23639863.43348
  14572791.48948  11355419.14044         0.00041  23956389.45544  23956389.92848
  -2351357.64348  -1832226.47844         0.00041  24731978.99244  24731979.96048
 96 10 16 06 44 00.0000000  0  7 07 02 26 27 15 19 04
 -13133202.60149 -10233661.83747         0.00041  20267570.83047  20267568.98549
   -873732.96849   -680829.45147         0.00041  21142455.88647  21142454.07749
 -11149960.34549  -8688280.48146         0.00041  22467315.23246  22467314.10749
   3902419.12749   3040845.56047         0.00041  21027196.55147  21027195.18149
  -6972404.24948  -5433036.74244         0.00041  23642658.48844  23642653.45548
  14669939.89848  11431119.22244         0.00041  23974878.82844  23974876.68748
  -2450896.85848  -1909789.54344         0.00041  24713039.88044  24713038.35648
 96 10 16 06 44 30.0000000  0  7 07 02 26 27 15 19 04
 -13151908.00149 -10248237.46847         0.00041  20264011.40147  20264009.54349
   -860906.33949   -670834.67447         0.00041  21144896.64347  21144894.83049
 -11155285.57649  -8692430.02146         0.00041  22466302.17646  22466300.72749
   3966314.28849   3090633.98647         0.00041  21039355.10247  21039354.14149
  -6957168.51848  -5421165.48645         0.00041  23645554.20145  23645552.73348
  14767288.26948  11506975.08044         0.00041  23993403.24044  23993401.73148
  -2550554.20848  -1987444.61544         0.00041  24694072.06844  24694073.74948
 96 10 16 06 45 00.0000000  0  7 07 02 26 27 15 19 04
 -13170166.38549 -10262464.77447         0.00041  20260536.91147  20260535.16549
   -847987.04049   -660767.68747         0.00041  21147355.22447  21147353.26749
 -11160125.45449  -8696201.36446         0.00041  22465381.07046  22465379.67049
   4030609.75849   3140734.33647         0.00041  21051590.37847  21051589.20149
  -6941413.13748  -5408888.62745         0.00041  23648553.77945  23648551.05248
  14864757.37948  11582925.03144         0.00041  24011951.64344  24011949.50348
  -2650364.97648  -2065219.26844         0.00041  24675082.51944  24675080.51548
 96 10 16 06 45 30.0000000  0  7 07 02 26 27 15 19 04
 -13188011.38149 -10276369.95947         0.00041  20257140.97747  20257139.31249
   -834969.68949   -650624.29847         0.00041  21149832.29747  21149830.29849
 -11164519.23249  -8699625.09846         0.00041  22464544.97846  22464543.57749
   4095264.06349   3191114.29447         0.00041  21063893.74047  21063892.40749
  -6925159.44948  -5396223.37545         0.00041  23651645.72345  23651643.38048
  14962310.10448  11658940.13444         0.00041  24030519.90044  24030512.78248
  -2750326.14948  -2143111.10444         0.00041  24656060.64344  24656058.30548
 96 10 16 06 46 00.0000000  0  7 07 02 26 27 15 19 04
 -13205320.74549 -10289857.77047         0.00041  20253847.23647  20253845.39649
   -821709.22349   -640291.46747         0.00041  21152355.75747  21152353.54749
 -11168343.81049  -8702605.30446         0.00041  22463817.23346  22463815.66649
   4160409.86349   3241877.23447         0.00041  21076290.39947  21076289.26649
  -6908275.46548  -5383067.04644         0.00041  23654858.83544  23654856.70748
  15060076.13048  11735121.44044         0.00041  24049120.17744  24049116.95748
  -2850297.80248  -2221011.09344         0.00041  24637034.31644  24637034.21348
 96 10 16 06 46 30.0000000  0  7 07 02 26 27 15 19 04
 -13222118.95649 -10302947.27747         0.00041  20250650.51847  20250648.84649
   -808217.65049   -629778.55247         0.00041  21154923.04747  21154920.91549
 -11171604.91249  -8705146.43046         0.00041  22463196.22146  22463194.94149
   4226019.98649   3293001.99646         0.00041  21088775.61846  21088774.34149
  -6890778.14148  -5369432.74544         0.00041  23658187.42544  23658186.74948
  15158048.07748  11811466.03444         0.00041  24067760.16044  24067760.16048
  -2950277.12048  -2298917.06144         0.00041  24618010.99344  24618009.07648
 96 10 16 06 47 00.0000000  0  7 07 02 26 27 15 19 04
 -13238500.68749 -10315712.25947         0.00041  20247533.25747  20247531.50949
   -794598.44149   -619166.18247         0.00041  21157514.86547  21157512.71249
 -11174377.27549  -8707306.72146         0.00041  22462668.80246  22462667.16349
   4292013.35649   3344425.38047         0.00041  21101334.04347  21101332.56049
  -6872752.00048  -5355386.39544         0.00041  23661619.60244  23661616.68348
  15256155.13548  11887913.09344         0.00041  24086429.51144  24086429.51148
  -3050356.47648  -2376900.97744         0.00041  24598966.81944  24598964.33748
 96 10 16 06 47 30.0000000  0  7 07 02 26 27 15 19 04
 -13254439.21649 -10328131.88747         0.00041  20244500.37247  20244498.54749
   -780823.56349   -608432.50847         0.00041  21160135.99247  21160133.86849
 -11176634.05949  -8709065.25946         0.00041  22462239.43046  22462237.99049
   4358421.36749   3396171.86246         0.00041  21113970.92346  21113969.59249
  -6854173.89048  -5340909.95944         0.00041  23665154.02744  23665151.62148
  15354439.02748  11964495.10144         0.00041  24105132.40144  24105132.40148
  -3150518.29348  -2454949.11544         0.00041  24579906.93444  24579904.28248
 96 10 16 06 48 00.0000000  0  7 07 02 26 27 15 19 04
 -13269873.62649 -10340158.69347         0.00041  20241563.13547  20241561.35249
   -766873.44549   -597562.28447         0.00041  21162790.54947  21162788.61949
 -11178319.95749  -8710378.95046         0.00041  22461918.04346  22461917.33649
   4425276.92049   3448267.08147         0.00041  21126692.93447  21126691.67849
  -6835008.03648  -5325975.53244         0.00041  23668800.81444  23668799.01948
  15452935.17048  12041248.18544         0.00041  24123875.75944  24123875.75948
  -3250748.77348  -2533050.77144         0.00041  24560835.12544  24560831.45848
 96 10 16 06 48 30.0000000  0  7 07 02 26 27 15 19 04
 -13284785.44649 -10351778.28647         0.00041  20238725.62347  20238723.85849
   -752739.90249   -586549.13747         0.00041  21165480.20547  21165478.20449
 -11179419.67949  -8711235.88146         0.00041  22461709.58646  22461708.21549
   4492585.99949   3500715.69747         0.00041  21139501.74747  21139500.47649
  -6815241.05348  -5310572.70744         0.00041  23672561.54044  23672560.82748
  15551643.98347  12118164.14344         0.00041  24142659.43344  24142659.43347
  -3351040.66748  -2611200.28444         0.00041  24541748.87144  24541746.15048
 96 10 16 06 49 00.0000000  0  7 07 02 26 27 15 19 04
 -13299212.38049 -10363020.04647         0.00041  20235980.23347  20235978.48449
   -738464.03949   -575425.09047         0.00041  21168196.72947  21168194.69249
 -11179986.53549  -8711677.58446         0.00041  22461601.48046  22461600.45849
   4560303.54849   3553482.59947         0.00041  21152387.85147  21152386.66449
  -6794913.61148  -5294733.14844         0.00041  23676430.75744  23676428.94448
  15650518.21347  12195208.99744         0.00041  24161474.29744  24161474.29747
  -3451448.04148  -2689439.74944         0.00041  24522641.22044  24522639.15948
 96 10 16 06 49 30.0000000  0  6 02 26 07 27 15 04
   -724034.00849   -564180.91147         0.00041  21170942.63647  21170940.75249
 -11180011.68449  -8711697.18246         0.00041  22461596.78746  22461595.64649
 -13313137.55449 -10373870.82547         0.00041  20233330.28047  20233328.44149
   4628449.96149   3606583.68246         0.00041  21165355.60446  21165354.55749
  -6774014.89448  -5278448.42244         0.00041  23680407.77144  23680405.71148
  -3551947.04948  -2767750.65444         0.00041  24503517.81244  24503514.64948
 96 10 16 06 50 00.0000000  0  6 02 26 07 27 15 04
   -709461.88649   -552826.01347         0.00041  21173715.67247  21173713.77549
 -11179507.87049  -8711304.60746         0.00041  22461692.88846  22461691.51149
 -13326563.10149 -10384332.28347         0.00041  20230775.42147  20230773.64749
   4697025.26549   3660018.96846         0.00041  21178405.16846  21178404.13849
  -6752543.98448  -5261717.83244         0.00041  23684494.66844  23684491.64148
  -3652532.41148  -2846128.83744         0.00041  24484377.12844  24484373.95048
 96 10 16 06 50 30.0000000  0  6 02 26 07 27 15 04
   -694771.29149   -541378.79947         0.00041  21176511.14647  21176509.32549
 -11178527.08449  -8710540.37346         0.00041  22461879.10646  22461877.85149
 -13339536.54549 -10394441.45647         0.00041  20228306.75947  20228304.88449
   4766003.85149   3713768.50346         0.00041  21191531.26846  21191530.23549
  -6730533.28748  -5244566.64044         0.00041  23688683.92244  23688679.65648
  -3753217.37048  -2924584.63144         0.00041  24465215.11544  24465214.28548
 96 10 16 06 51 00.0000000  0  6 02 26 07 27 15 04
   -679919.29249   -529805.81447         0.00041  21179337.17147  21179335.55349
 -11177020.05249  -8709366.06546         0.00041  22462165.76746  22462164.82649
 -13352008.63549 -10404159.96447         0.00041  20225933.58947  20225931.55349
   4835431.14349   3767867.67646         0.00041  21204742.63946  21204741.68649
  -6707937.49548  -5226959.52644         0.00041  23692980.81444  23692979.65848
  -3853943.71048  -3003072.66544         0.00041  24446049.35844  24446046.59748
 96 10 16 06 51 30.0000000  0  6 02 26 07 27 15 04
   -664928.23049   -518124.46747         0.00041  21182189.91947  21182188.24249
 -11175000.24149  -8707792.19546         0.00041  22462550.43846  22462549.07349
 -13363991.62949 -10413497.35847         0.00041  20223653.14047  20223651.24849
   4905273.84449   3822290.54346         0.00041  21218033.35646  21218032.38949
  -6684779.75948  -5208914.52945         0.00041  23697390.03545  23697386.22648
  -3954717.91948  -3081598.01145         0.00041  24426870.49145  24426869.98048
 96 10 16 06 52 00.0000000  0  6 02 26 07 27 15 04
   -649771.98349   -506314.40747         0.00041  21185074.01747  21185072.45749
 -11172462.96249  -8705815.10746         0.00041  22463033.25846  22463031.87249
 -13375474.16949 -10422444.78847         0.00041  20221468.03147  20221466.18849
   4975529.86349   3877035.47446         0.00041  21231402.58446  21231401.80149
  -6661046.05648  -5190420.74344         0.00041  23701906.46944  23701903.30448
  -4055531.29948  -3160153.88944         0.00041  24407686.00444  24407686.04548
 96 10 16 06 52 30.0000000  0  6 02 26 07 27 15 04
   -634437.72449   -494365.63747         0.00041  21187991.92447  21187990.33049
 -11169394.20049  -8703423.87546         0.00041  22463617.33046  22463615.86249
 -13386459.95749 -10431005.13747         0.00041  20219377.39847  20219375.71649
   5046209.21449   3932110.27846         0.00041  21244852.56546  21244851.59949
  -6636726.07748  -5171470.09344         0.00041  23706532.10644  23706531.12648
  -4156365.78448  -3238726.17644         0.00041  24388499.51844  24388497.55848
 96 10 16 06 53 00.0000000  0  6 02 26 07 27 15 04
   -618934.34549   -482285.08547         0.00041  21190942.32847  21190940.59149
 -11165775.86149  -8700604.39746         0.00041  22464305.81146  22464304.31249
 -13396957.05249 -10439184.68748         0.00041  20217379.95348  20217378.30649
   5117309.05449   3987512.73046         0.00041  21258382.13446  21258381.47649
  -6611820.00548  -5152062.78045         0.00041  23711271.31045  23711270.44948
  -4257219.53348  -3317313.51544         0.00041  24369307.52144  24369305.79548
 96 10 16 06 53 30.0000000  0  6 02 26 07 27 15 04
   -603267.89749   -470077.46547         0.00041  21193923.52647  21193921.76049
 -11161621.31949  -8697367.10146         0.00041  22465096.69446  22465094.96049
 -13406982.65249 -10446996.83848         0.00041  20215472.10548  20215470.38449
   5188822.27949   4043237.30746         0.00041  21271990.63846  21271990.10149
  -6586340.16348  -5132208.34645         0.00041  23716121.34745  23716119.64748
  -4358108.16348  -3395928.03444         0.00041  24350109.10744  24350107.58748
 96 10 16 06 54 00.0000000  0  6 02 26 07 27 15 04
   -587456.80349   -457757.13447         0.00041  21196932.37647  21196930.54349
 -11156949.37749  -8693726.63446         0.00041  22465985.64146  22465984.11549
 -13416568.95249 -10454466.67648         0.00041  20213647.93848  20213646.21649
   5260737.83149   4099275.38446         0.00041  21285676.08946  21285675.17049
  -6560307.58948  -5111923.21945         0.00041  23721075.38345  23721073.50148
  -4459056.70048  -3474589.20144         0.00041  24330899.86544  24330897.55948
 96 10 16 06 54 30.0000000  0  6 02 26 07 27 15 04
   -571498.96349   -445322.46047         0.00041  21199969.08247  21199967.20749
 -11151741.27649  -8689668.38146         0.00041  22466976.63246  22466975.17349
 -13425698.22549 -10461580.38947         0.00041  20211910.55947  20211908.84449
   5333071.60949   4155639.35046         0.00041  21299440.55646  21299439.83349
  -6533711.29348  -5091198.81545         0.00041  23726136.12745  23726134.44748
  -4560047.61948  -3553283.38744         0.00041  24311681.20444  24311679.60648
 96 10 16 06 55 00.0000000  0  6 02 26 07 27 15 04
   -555389.24349   -432769.43547         0.00041  21203034.65347  21203032.70649
 -11146003.72249  -8685197.56446         0.00041  22468068.42446  22468067.03449
 -13434357.46549 -10468327.84247         0.00041  20210262.81847  20210261.04249
   5405818.36949   4212325.11946         0.00041  21313283.98846  21313283.03049
  -6506559.84048  -5070041.83745         0.00041  23731303.37845  23731300.84348
  -4661090.70448  -3632018.25744         0.00041  24292448.51144  24292451.65548
 96 10 16 06 55 30.0000000  0  6 02 26 07 27 15 04
   -539126.48149   -420097.15747         0.00041  21206129.17247  21206127.41149
 -11139750.71049  -8680325.09246         0.00041  22469258.00146  22469256.68149
 -13442532.62249 -10474698.08747         0.00041  20208707.10047  20208705.35449
   5478977.57749   4269332.28146         0.00041  21327205.69446  21327204.78149
  -6478854.25448  -5048453.08045         0.00041  23736575.37745  23736573.18848
  -4762196.12948  -3710801.68144         0.00041  24273213.89644  24273212.17148
 96 10 16 06 56 00.0000000  0  6 02 26 07 27 15 04
   -522720.11549   -407312.97647         0.00041  21209251.19647  21209249.61949
 -11132985.37649  -8675053.40746         0.00041  22470545.66546  22470544.28649
 -13450231.72649 -10480697.38047         0.00041  20207241.97247  20207240.20649
   5552553.98849   4326664.53246         0.00041  21341207.06646  21341205.79949
  -6450593.54848  -5026431.75245         0.00041  23741953.46445  23741950.84348
  -4863357.20148  -3789628.48244         0.00041  24253962.02544  24253961.34948
 96 10 16 06 56 30.0000000  0  6 02 07 26 27 15 04
   -506193.52149   -394435.11247         0.00041  21212396.16247  21212394.42649
 -13457466.12449 -10486334.56447         0.00041  20205865.14247  20205863.40049
 -11125718.41549  -8669390.84446         0.00041  22471928.49046  22471927.15749
   5626549.56949   4384323.41746         0.00041  21355287.74546  21355286.79149
  -6421789.97648  -5003987.38445         0.00041  23747433.70745  23747431.94648
  -4964586.25048  -3868508.24644         0.00041  24234701.61444  24234698.58948
 96 10 16 06 57 00.0000000  0  6 02 07 26 27 15 04
   -489504.71949   -381430.85147         0.00041  21215572.14447  21215570.23749
 -13464196.27249 -10491578.83147         0.00041  20204584.51047  20204582.80649
 -11117904.12149  -8663301.78546         0.00041  22473415.43246  22473414.52549
   5701010.62949   4442345.01246         0.00041  21369457.32046  21369456.22249
  -6392399.41548  -4981085.65545         0.00041  23753026.95545  23753025.03048
  -5065844.46348  -3947410.75344         0.00041  24215431.06644  24215429.74148
 96 10 16 06 57 30.0000000  0  6 07 02 26 27 15 04
 -13470456.48749 -10496456.91547         0.00041  20203393.44947  20203391.69149
   -472690.17649   -368328.61047         0.00041  21218771.96447  21218769.94949
 -11109561.91049  -8656801.36446         0.00041  22475002.58446  22475001.99749
   5775900.25549   4500700.55246         0.00041  21383707.98446  21383707.26249
  -6362446.21848  -4957745.50645         0.00041  23758725.85445  23758725.26348
  -5167145.15248  -4026346.34345         0.00041  24196153.20245  24196152.62448
 96 10 16 06 58 00.0000000  0  6 07 02 26 27 15 04
 -13476257.05249 -10500976.83247         0.00041  20202289.51347  20202287.82949
   -455731.18449   -355113.81147         0.00041  21221998.94947  21221996.99849
 -11100683.36749  -8649883.02146         0.00041  22476692.29946  22476691.29449
   5851215.77649   4559387.96146         0.00041  21398040.33446  21398039.42949
  -6331930.04348  -4933966.61245         0.00041  23764533.92245  23764532.23448
  -5268472.93848  -4105303.06044         0.00041  24176872.11844  24176870.70948
 96 10 16 06 58 30.0000000  0  7 07 02 26 27 15 04 09
 -13481589.50249 -10505131.98347         0.00041  20201274.81947  20201273.20149
   -438613.30849   -341775.20847         0.00041  21225256.44447  21225254.42849
 -11091267.77949  -8642546.21146         0.00041  22478484.25146  22478483.28949
   5926933.41949   4618388.71146         0.00041  21412448.94746  21412447.89449
  -6300855.15348  -4909752.43945         0.00041  23770446.71445  23770445.65948
  -5369821.79748  -4184276.18244         0.00041  24157586.07744  24157584.89048
        -0.55157        -0.43054         0.00051  24796914.01254  24796914.01257
 96 10 16 06 59 00.0000000  0  7 07 02 26 27 15 04 09
 -13486448.63649 -10508918.31447         0.00041  20200350.23647  20200348.48149
   -421319.34349   -328299.39447         0.00041  21228547.25347  21228545.41049
 -11081311.99149  -8634788.45846         0.00041  22480378.67046  22480377.67849
   6003028.99049   4677683.94846         0.00041  21426929.43846  21426928.29249
  -6269215.99748  -4885098.55645         0.00041  23776467.63145  23776466.17748
  -5471163.85648  -4263244.02744         0.00041  24138301.66544  24138300.13048
    -99563.43347    -77581.89644         0.00041  24777967.96144  24777967.96147
 96 10 16 06 59 30.0000000  0  7 07 02 26 27 15 04 09
 -13490866.76149 -10512360.99948         0.00041  20199509.58148  20199507.67249
   -403882.57149   -314712.30147         0.00041  21231865.29047  21231863.54249
 -11070848.65049  -8626635.21746         0.00041  22482370.10846  22482368.58349
   6079474.13749   4737251.58746         0.00041  21441476.61246  21441475.33549
  -6237040.28848  -4860026.56945         0.00041  23782591.27345  23782588.96048
  -5572508.74548  -4342214.05044         0.00041  24119015.88744  24119014.34348
   -199117.83747   -155156.75644         0.00041  24759022.38944  24759022.38947
 96 10 16 07 00 00.0000000  0  7 07 02 26 27 15 04 09
 -13494805.31349 -10515429.99747         0.00041  20198760.05247  20198758.17349
   -386274.50549   -300991.73247         0.00041  21235216.13347  21235214.38449
 -11059855.44749  -8618069.08946         0.00041  22484462.19146  22484460.56549
   6156313.79349   4797126.63346         0.00041  21456098.94846  21456097.46249
  -6204295.33648  -4834511.02445         0.00041  23788821.06945  23788820.07448
  -5673826.82648  -4421163.18344         0.00041  24099737.65044  24099734.85448
   -298617.53847   -232688.99044         0.00041  24740089.07644  24740089.07647
 96 10 16 07 00 30.0000000  0  7 07 02 26 27 15 04 09
 -13498291.13049 -10518146.21347         0.00041  20198096.80247  20198094.86449
   -368550.26549   -287180.63847         0.00041  21238588.83747  21238587.23849
 -11048377.97349  -8609125.60946         0.00041  22486646.06246  22486644.57649
   6233516.89849   4857284.88946         0.00041  21470790.01046  21470788.78949
  -6171017.25348  -4808580.03745         0.00041  23795153.61245  23795152.62348
  -5775149.28648  -4500115.74844         0.00041  24080455.07944  24080453.27748
   -398090.81548   -310200.63544         0.00041  24721160.28044  24721160.28048
 96 10 16 07 01 00.0000000  0  7 07 02 26 27 15 04 09
 -13501290.84549 -10520483.64647         0.00041  20197525.93147  20197524.01649
   -350693.46249   -273266.25047         0.00041  21241986.85547  21241985.41149
 -11036398.20149  -8599790.73346         0.00041  22488925.83346  22488924.29849
   6311127.81949   4917760.92446         0.00041  21485559.10046  21485557.76249
  -6137178.26948  -4782212.01045         0.00041  23801593.39145  23801592.15348
  -5876460.01048  -4579059.16444         0.00041  24061176.03744  24061174.74348
   -497507.35648   -387668.07044         0.00041  24702241.55344  24702241.55348
 96 10 16 07 01 30.0000000  0  8 07 02 26 27 15 19 04 09
 -13503825.63349 -10522458.80047         0.00041  20197043.50247  20197041.71849
   -332705.96149   -259250.01947         0.00041  21245409.77547  21245408.16649
 -11023930.63149  -8590075.76246         0.00041  22491298.09546  22491296.56049
   6389158.61049   4978564.13346         0.00041  21500407.69846  21500406.55349
  -6102793.99448  -4755419.05245         0.00041  23808136.93645  23808135.18048
         0.21957         0.17054         0.00051  24641564.87054  24641564.87057
  -5977793.45348  -4658020.30144         0.00041  24041891.71344  24041891.36048
   -596890.82348   -465109.73244         0.00041  24683328.82544  24683328.82548
 96 10 16 07 02 00.0000000  0  8 07 02 26 27 15 19 04 09
 -13505904.90849 -10524079.00747         0.00041  20196647.63847  20196645.93449
   -314568.60949   -245117.02147         0.00041  21248861.26047  21248859.69249
 -11010982.27849  -8579986.14946         0.00041  22493761.92946  22493760.93049
   6467594.53749   5039683.03146         0.00041  21515333.52846  21515332.37649
  -6067877.42548  -4728211.34145         0.00041  23814780.19245  23814779.74548
    102739.17747     80056.50144         0.00041  24661115.55444  24661115.55447
  -6079166.33348  -4737012.15844         0.00041  24022601.90544  24022601.03148
   -696261.35048   -542541.31244         0.00041  24664419.91044  24664419.91048
 96 10 16 07 02 30.0000000  0  8 07 02 26 27 15 19 04 09
 -13507513.72149 -10525332.62547         0.00041  20196341.52547  20196339.82349
   -296250.90149   -230843.48647         0.00041  21252346.78647  21252345.34549
 -10997517.94949  -8569494.47246         0.00041  22496324.14646  22496323.04349
   6546458.48949   5101135.44946         0.00041  21530340.61846  21530339.61649
  -6032400.18048  -4700566.73345         0.00041  23821532.60545  23821530.92448
    205615.08247    160219.54444         0.00041  24680692.35544  24680692.35547
  -6180554.31648  -4816015.77744         0.00041  24003306.95744  24003307.63848
   -795598.01548   -619946.50544         0.00041  24645517.09744  24645517.09748
 96 10 16 07 03 00.0000000  0  8 07 02 26 27 15 19 04 09
 -13508657.73049 -10526224.05647         0.00041  20196123.74947  20196122.17449
   -277751.28849   -216428.20847         0.00041  21255867.29047  21255865.69049
 -10983535.15349  -8558598.80046         0.00041  22498985.14446  22498983.92449
   6625740.05449   5162913.28146         0.00041  21545427.66946  21545426.42349
  -5996364.14248  -4672486.71645         0.00041  23828388.60645  23828388.27548
    308626.15147    240487.91044         0.00041  24700293.46044  24700293.46047
  -6281971.60448  -4895042.26844         0.00041  23984008.00344  23984008.41748
   -894900.45248   -697324.40544         0.00041  24626620.55444  24626620.55448
 96 10 16 07 03 30.0000000  0  8 07 02 26 27 15 19 04 09
 -13509363.62349 -10526774.10047         0.00041  20195989.47947  20195987.91649
   -259079.57749   -201878.82847         0.00041  21259420.41547  21259418.77349
 -10969037.86349  -8547302.21346         0.00041  22501743.69846  22501742.67449
   6705411.41949   5224994.85346         0.00041  21560588.55546  21560587.42949
  -5959781.56348  -4643980.81345         0.00041  23835351.32845  23835349.55748
    411749.75947    320843.96844         0.00041  24719917.31044  24719917.31047
  -6383414.06948  -4974088.33745         0.00041  23964706.10745  23964704.88948
   -994186.17248   -774689.87044         0.00041  24607727.02444  24607727.02448
 96 10 16 07 04 00.0000000  0  8 07 02 26 27 15 19 04 09
 -13509597.57749 -10526956.40347         0.00041  20195944.96147  20195943.40449
   -240230.38349   -187191.14547         0.00041  21263007.39247  21263005.55049
 -10954005.61749  -8535588.77946         0.00041  22504604.29646  22504603.28449
   6785473.37849   5287380.79146         0.00041  21575823.63146  21575822.82149
  -5922627.59348  -4615029.67545         0.00041  23842421.75545  23842419.83548
    515001.76847    401300.07944         0.00041  24739566.04644  24739566.04647
  -6484845.59248  -5053125.88245         0.00041  23945402.98045  23945402.94148
  -1093424.07948   -852018.10444         0.00041  24588842.18744  24588842.18748
 96 10 16 07 04 30.0000000  0  8 07 02 26 27 15 19 04 09
 -13509358.08249 -10526769.78147         0.00041  20195990.47847  20195988.90949
   -221237.58349   -172391.56547         0.00041  21266621.76247  21266619.79349
 -10938445.13149  -8523463.72846         0.00041  22507565.27846  22507564.32149
   6865917.41149   5350064.44546         0.00041  21591131.86046  21591130.60649
  -5884905.86448  -4585636.13844         0.00041  23849599.95644  23849597.70648
    618386.94547    481859.95744         0.00041  24759240.35344  24759240.35347
  -6586275.13048  -5132161.87845         0.00041  23926101.68745  23926101.95048
  -1192605.33948   -929302.21444         0.00041  24569968.68844  24569968.34648
 96 10 16 07 05 00.0000000  0  8 07 02 26 27 15 19 04 09
 -13508662.12249 -10526227.47048         0.00041  20196123.05548  20196121.41749
   -202100.39749   -157479.47347         0.00041  21270263.40247  21270261.35649
 -10922377.86149  -8510943.77846         0.00041  22510622.44946  22510621.79749
   6946720.48049   5413027.87546         0.00041  21606508.34146  21606507.02049
  -5846634.91848  -4555814.61444         0.00041  23856881.93344  23856879.99548
    721893.63547    562514.52044         0.00041  24778935.43944  24778935.43947
  -6687697.97248  -5211192.64545         0.00041  23906802.48145  23906801.85648
  -1291744.37048  -1006553.35844         0.00041  24551103.49744  24551102.96848
 96 10 16 07 05 30.0000000  0  8 07 02 26 27 15 19 04 09
 -13507521.68349 -10525338.81248         0.00041  20196340.15848  20196338.34549
   -182804.55649   -142443.75547         0.00041  21273935.18347  21273933.33549
 -10905802.39849  -8498027.83746         0.00041  22513776.99946  22513776.07349
   7027897.66149   5476282.81446         0.00041  21621955.82746  21621954.52549
  -5807810.00548  -4525561.44244         0.00041  23864271.66044  23864268.25948
    825523.36947    643264.96344         0.00041  24798655.91544  24798655.91547
  -6789083.89648  -5290194.64745         0.00041  23887508.22845  23887508.88248
  -1390838.85148  -1083769.85044         0.00041  24532246.77144  24532246.30148
 96 10 16 07 06 00.0000000  0  8 07 02 26 27 15 19 04 09
 -13505921.98749 -10524092.28948         0.00041  20196644.67048  20196642.81249
   -163346.45649   -127281.60547         0.00041  21277637.97647  21277636.25549
 -10888721.74349  -8484718.24346         0.00041  22517027.40346  22517026.44949
   7109463.05049   5539840.25346         0.00041  21637477.20846  21637475.90649
  -5768427.93848  -4494874.12245         0.00041  23871764.97445  23871762.56048
    929281.02047    724115.08044         0.00041  24818401.44644  24818401.44647
  -6890438.37948  -5369172.16945         0.00041  23868224.09345  23868221.78148
  -1489870.07948  -1160937.05944         0.00041  24513403.06544  24513401.29948
 96 10 16 07 06 30.0000000  0  7 07 02 26 27 15 04 09
 -13503860.23149 -10522485.71948         0.00041  20197036.90848  20197035.02749
   -143707.10249   -111978.21247         0.00041  21281375.26047  21281373.35149
 -10871127.85949  -8471008.73346         0.00041  22520374.75546  22520374.14649
   7191444.36049   5603721.78246         0.00041  21653077.56846  21653076.41849
  -5728481.96748  -4463747.40444         0.00041  23879367.36444  23879364.03648
  -6991739.47748  -5448108.06745         0.00041  23848944.47845  23848944.75848
  -1588839.54748  -1238056.14644         0.00041  24494569.63244  24494567.95548
 96 10 16 07 07 00.0000000  0  7 07 02 26 27 15 04 09
 -13501377.60049 -10520551.19348         0.00041  20197509.30248  20197507.49349
   -123899.34249    -96543.59447         0.00041  21285144.65347  21285142.74149
 -10853054.21249  -8456925.38146         0.00041  22523814.47946  22523813.29649
   7273816.81349   5667908.10146         0.00041  21668752.52946  21668751.43549
  -5688005.04748  -4432206.90845         0.00041  23887069.47045  23887067.01048
  -7092999.47448  -5527011.96245         0.00041  23829675.98445  23829675.40848
  -1687787.86448  -1315158.72544         0.00041  24475738.95344  24475739.14548
 96 10 16 07 07 30.0000000  0  7 07 02 26 27 15 04 09
 -13498473.91249 -10518288.57448         0.00041  20198061.94148  20198060.11449
   -103949.70449    -80998.42447         0.00041  21288940.86947  21288939.09749
 -10834506.65049  -8442472.75246         0.00041  22527344.47146  22527342.95549
   7356575.06149   5732395.03946         0.00041  21684500.92246  21684499.89749
  -5647012.36448  -4400264.57345         0.00041  23894870.36545  23894867.19048
  -7194248.22248  -5605907.08145         0.00041  23810409.11645  23810408.14748
  -1786722.27948  -1392250.46244         0.00041  24456915.35844  24456912.61548
 96 10 16 07 08 00.0000000  0  7 07 02 26 27 15 04 09
 -13495104.41049 -10515662.98548         0.00041  20198703.10448  20198701.18949
    -83838.18249    -65327.10847         0.00041  21292768.03747  21292766.08949
 -10815450.89949  -8427624.13346         0.00041  22530970.30246  22530969.06449
   7439733.74949   5797194.01146         0.00041  21700325.80746  21700324.36749
  -5605479.95848  -4367901.66745         0.00041  23902773.43545  23902770.51248
  -7295459.98648  -5684773.37045         0.00041  23791147.91145  23791148.34648
  -1885615.58648  -1469310.22344         0.00041  24438097.30244  24438094.10948
 96 10 16 07 08 30.0000000  0  7 07 02 26 27 15 04 09
 -13491253.26649 -10512662.09248         0.00041  20199435.71148  20199433.93149
    -63543.81249    -49513.32047         0.00041  21296629.89847  21296627.99049
 -10795865.09749  -8412362.48946         0.00041  22534697.50246  22534696.29049
   7523307.10749   5862316.09346         0.00041  21716229.21046  21716227.86149
  -5563386.02248  -4335101.20345         0.00041  23910783.66345  23910780.91348
  -7396589.29048  -5763575.41845         0.00041  23771905.69845  23771903.95048
  -1984451.37248  -1546325.06844         0.00041  24419290.09444  24419286.52548
 96 10 16 07 09 00.0000000  0  7 07 02 26 27 15 04 09
 -13486953.17349 -10509311.37048         0.00041  20200253.99348  20200252.28849
    -43117.27449    -33596.53747         0.00041  21300516.96147  21300514.91449
 -10775793.26149  -8396722.17546         0.00041  22538516.91746  22538515.58749
   7607239.54949   5927717.98646         0.00041  21732200.69346  21732199.64949
  -5520772.59048  -4301895.94145         0.00041  23918891.89745  23918889.76948
  -7497681.95648  -5842348.90445         0.00041  23752668.13645  23752666.91548
  -2083261.64948  -1623320.13744         0.00041  24400485.56644  24400483.72148
 96 10 16 07 09 30.0000000  0  7 07 02 26 27 15 04 09
 -13482173.63049 -10505587.05247         0.00041  20201163.46247  20201161.65949
    -22548.09449    -17568.60847         0.00041  21304431.19047  21304429.06149
 -10755218.88049  -8380690.09746         0.00041  22542432.88546  22542430.81049
   7691545.38849   5993410.83446         0.00041  21748243.62846  21748242.49049
  -5477618.16148  -4268269.10145         0.00041  23927104.82045  23927101.91548
  -7598716.12548  -5921076.82145         0.00041  23733442.28545  23733440.51948
  -2182021.54848  -1700275.87244         0.00041  24381693.51844  24381690.20448
 96 10 16 07 10 00.0000000  0  7 07 02 26 27 15 04 09
 -13476911.68149 -10501486.83447         0.00041  20202164.84547  20202163.08449
     -1823.47449     -1419.56147         0.00041  21308374.92447  21308372.94049
 -10734138.98749  -8364264.23646         0.00041  22546443.63646  22546442.34349
   7776230.21049   6059398.98846         0.00041  21764358.89746  21764357.53149
  -5433909.11848  -4234210.10245         0.00041  23935421.68245  23935419.21048
  -7699666.80948  -5999739.70845         0.00041  23714232.02145  23714230.24248
  -2280719.28048  -1777183.22244         0.00041  24362910.51744  24362908.67348
 96 10 16 07 10 30.0000000  0  7 07 02 26 27 15 04 09
 -13471200.41049 -10497036.49147         0.00041  20203251.61847  20203250.03049
     19025.21949     14826.16747         0.00041  21312342.00447  21312340.31549
 -10712593.30949  -8347475.40146         0.00041  22550544.15546  22550542.47849
   7861262.61049   6125657.99146         0.00041  21780539.88746  21780538.84049
  -5389677.15448  -4199743.63445         0.00041  23943839.63545  23943836.42948
  -7800574.29248  -6078368.91745         0.00041  23695029.19645  23695028.40548
  -2379375.26848  -1854058.00044         0.00041  24344134.33144  24344134.93648
 96 10 16 07 11 00.0000000  0  7 07 02 26 27 15 04 09
 -13465042.21249 -10492237.89447         0.00041  20204423.66747  20204421.94149
     40015.78149     31182.44547         0.00041  21316336.52947  21316334.78449
 -10690571.33549  -8330315.43046         0.00041  22554734.56346  22554733.10749
   7946651.27549   6192194.60346         0.00041  21796788.47146  21796787.72349
  -5344916.13448  -4164864.90145         0.00041  23952357.06045  23952354.41948
  -7901449.80348  -6156973.20045         0.00041  23675834.29345  23675832.38148
  -2477964.89148  -1930881.09344         0.00041  24325374.36144  24325373.73448
 96 10 16 07 11 30.0000000  0  7 07 02 26 27 15 04 09
 -13458451.07149 -10487101.93848         0.00041  20205677.72248  20205676.03749
     61158.20149     47657.05447         0.00041  21320359.82647  21320358.23349
 -10668067.30549  -8312779.82346         0.00041  22559017.01346  22559015.75149
   8032394.34749   6259007.37146         0.00041  21813104.97246  21813104.08749
  -5299625.47648  -4129573.47545         0.00041  23960975.34045  23960972.93448
  -8002293.86248  -6235553.00045         0.00041  23656643.77145  23656642.25848
  -2576482.04848  -2007647.71944         0.00041  24306626.90744  24306626.64948
 96 10 16 07 12 00.0000000  0  7 07 02 26 27 15 04 09
 -13451428.41549 -10481629.73548         0.00041  20207014.17448  20207012.53949
     82473.64849     64266.48847         0.00041  21324415.74947  21324414.39449
 -10645072.64349  -8294861.91146         0.00041  22563392.92046  22563391.62549
   8118488.17449   6326093.46046         0.00041  21829487.90246  21829487.21649
  -5253800.39048  -4093865.62745         0.00041  23969696.13445  23969693.14048
  -8103102.55048  -6314105.21645         0.00041  23637460.05845  23637459.01748
  -2674908.03448  -2084343.28644         0.00041  24287897.68444  24287896.66148
 96 10 16 07 12 30.0000000  0  7 07 02 26 27 15 04 09
 -13443989.42849 -10475833.11948         0.00041  20208429.88648  20208428.15949
    103959.50649     81008.71247         0.00041  21328504.53647  21328502.95249
 -10621600.31449  -8276571.78946         0.00041  22567859.01246  22567858.16449
   8204921.38049   6393443.99946         0.00041  21845935.79246  21845934.90149
  -5207452.58148  -4057750.45945         0.00041  23978515.27745  23978512.66148
  -8203884.30948  -6392636.44345         0.00041  23618282.30245  23618281.13148
  -2773248.32248  -2160972.07444         0.00041  24269184.06944  24269183.05148
 96 10 16 07 13 00.0000000  0  7 07 02 26 27 15 04 09
 -13436127.21049 -10469706.71148         0.00041  20209925.85048  20209924.12749
    125643.25449     97905.13747         0.00041  21332630.71447  21332629.24149
 -10597626.54949  -8257890.94446         0.00041  22572421.29346  22572420.12349
   8291730.07249   6461087.13146         0.00041  21862455.24846  21862454.05449
  -5160561.54948  -4021211.98145         0.00041  23987439.18945  23987435.87048
  -8304604.25548  -6471119.52645         0.00041  23599116.46245  23599114.90148
  -2871494.97448  -2237527.91244         0.00041  24250487.68544  24250487.30148
 96 10 16 07 13 30.0000000  0  7 07 02 26 27 15 04 09
 -13427853.79849 -10463259.89648         0.00041  20211500.41348  20211498.68449
    147501.83349    114937.79247         0.00041  21336790.33247  21336788.70549
 -10573174.76649  -8238837.62146         0.00041  22577074.12646  22577073.16849
   8378888.88749   6529003.07746         0.00041  21879041.00646  21879039.73849
  -5113153.44048  -3984270.59045         0.00041  23996460.62645  23996457.15548
  -8405268.75148  -6549559.39945         0.00041  23579960.73845  23579958.90348
  -2969681.30548  -2314036.73344         0.00041  24231802.13844  24231802.66548
 96 10 16 07 14 00.0000000  0  7 07 02 26 27 15 04 09
 -13419138.04349 -10456468.39648         0.00041  20213158.91348  20213157.19349
    169558.29549    132124.63747         0.00041  21340987.50647  21340986.01249
 -10548223.41949  -8219395.01846         0.00041  22581822.44046  22581821.09149
   8466428.74649   6597215.94446         0.00041  21895699.19946  21895698.11449
  -5065204.81448  -3946908.02245         0.00041  24005582.70545  24005581.46248
  -8505845.67848  -6627931.03545         0.00041  23560820.60345  23560819.69348
  -3067776.94048  -2390474.88344         0.00041  24213138.48544  24213135.17248
 96 10 16 07 14 30.0000000  0  7 07 02 26 27 15 04 09
 -13409987.89549 -10449338.41048         0.00041  20214900.04748  20214898.26749
    191790.02949    149448.06347         0.00041  21345218.03347  21345216.48449
 -10522781.32049  -8199570.02146         0.00041  22586663.90746  22586662.35649
   8554359.38949   6665733.31446         0.00041  21912431.67246  21912430.63649
  -5016729.26748  -3909134.87645         0.00041  24014807.29245  24014805.90848
  -8606339.84148  -6706238.18945         0.00041  23541697.67645  23541696.00448
  -3165801.93448  -2466858.00144         0.00041  24194484.10244  24194481.59648
 96 10 16 07 15 00.0000000  0  7 07 02 26 27 15 04 09
 -13400396.59549 -10441864.66548         0.00041  20216725.24348  20216723.50549
    214187.95949    166900.99047         0.00041  21349479.95147  21349478.81549
 -10496847.38248  -8179361.76546         0.00041  22591599.08446  22591597.39148
   8642661.10549   6734539.83046         0.00041  21929234.68046  21929233.85649
  -4967739.67448  -3870961.16145         0.00041  24024129.29045  24024128.28348
  -8706755.15248  -6784483.89545         0.00041  23522588.75145  23522587.48548
  -3263760.23448  -2543189.14144         0.00041  24175842.30744  24175841.10948
 96 10 16 07 15 30.0000000  0  7 07 02 26 27 15 04 09
 -13390347.67349 -10434034.33148         0.00041  20218637.49948  20218635.71649
    236744.92749    184477.84247         0.00041  21353772.46047  21353771.18049
 -10470431.11648  -8158777.67246         0.00041  22596626.21446  22596624.46448
   8731303.42748   6803611.75046         0.00041  21946103.46646  21946101.89748
  -4918233.19848  -3832384.67245         0.00041  24033550.78445  24033549.59048
  -8807091.65948  -6862668.17645         0.00041  23503495.00645  23503493.75548
  -3361638.90748  -2619458.25145         0.00041  24157216.55645  24157215.27848
 96 10 16 07 16 00.0000000  0  7 07 02 26 27 15 04 09
 -13379828.64749 -10425837.68348         0.00041  20220639.27648  20220637.49149
    259471.16849    202186.59547         0.00041  21358097.18947  21358095.92049
 -10443528.23348  -8137814.39546         0.00041  22601745.58346  22601743.92548
   8820296.78948   6872957.20646         0.00041  21963038.16646  21963036.75148
  -4868195.90348  -3793394.58445         0.00041  24043071.94445  24043071.48148
  -8907339.67848  -6940783.51845         0.00041  23484419.43145  23484417.21648
  -3459431.19048  -2695660.01645         0.00041  24138608.09245  24138606.41648
 96 10 16 07 16 30.0000000  0  7 07 02 26 27 15 04 09
 -13368874.41549 -10417301.91848         0.00041  20222723.66848  20222721.97849
    282337.75749    220004.71047         0.00041  21362448.63347  21362447.38949
 -10416171.22948  -8116497.25646         0.00041  22606951.19046  22606949.71148
   8909605.80348   6942548.63146         0.00041  21980033.11546  21980031.61148
  -4817654.37548  -3754011.59645         0.00041  24052690.97145  24052689.11248
  -9007516.44148  -7018843.34645         0.00041  23465355.35345  23465354.28248
  -3557167.67448  -2771818.30045         0.00041  24120008.68245  24120008.26448
 96 10 16 07 17 00.0000000  0  7 07 02 26 27 15 04 09
 -13357501.68949 -10408440.05248         0.00041  20224887.75648  20224886.00449
    305329.65649    237920.47047         0.00041  21366823.80447  21366822.54549
 -10388381.21148  -8094842.70546         0.00041  22612239.62146  22612237.98848
   8999200.24948   7012362.47446         0.00041  21997082.38546  21997080.94848
  -4766617.63848  -3714242.70745         0.00041  24062401.16545  24062400.95748
  -9107630.30648  -7096854.14845         0.00041  23446304.40945  23446303.24548
  -3654853.87248  -2847937.41945         0.00041  24101420.81145  24101419.24648
 96 10 16 07 17 30.0000000  0  7 07 02 26 27 15 04 09
 -13345648.14349 -10399203.52148         0.00041  20227143.46148  20227141.73349
    328522.45449    255992.77847         0.00041  21371237.18847  21371236.00749
 -10360092.73048  -8072799.73946         0.00041  22617622.19846  22617621.09748
   9089179.35848   7082476.05046         0.00041  22014205.17146  22014203.29448
  -4715009.69748  -3674028.73045         0.00041  24072222.09345  24072221.76748
  -9207609.66048  -7174760.13345         0.00041  23427279.51845  23427277.93548
  -3752415.07648  -2923959.13645         0.00041  24082854.63345  24082853.95548
 96 10 16 07 18 00.0000000  0  7 07 02 26 27 15 04 09
 -13333368.67449 -10389635.10248         0.00041  20229480.20948  20229478.50149
    351879.26949    274192.89147         0.00041  21375681.91847  21375680.59349
 -10331334.94048  -8050391.07946         0.00041  22623095.10946  22623093.78948
   9179531.11748   7152880.00246         0.00041  22031398.66546  22031396.98248
  -4662876.86848  -3633405.75444         0.00041  24082141.99144  24082142.11848
  -9307494.49448  -7252592.46445         0.00041  23408272.55745  23408270.52648
  -3849887.46448  -2999911.62145         0.00041  24064306.15045  24064305.69348
 96 10 16 07 18 30.0000000  0  7 07 02 26 27 15 04 09
 -13320665.56249 -10379736.57148         0.00041  20231897.56248  20231895.86549
    375395.85249    292517.49647         0.00041  21380157.06147  21380155.66349
 -10302094.72649  -8027606.50646         0.00041  22628659.02846  22628658.15049
   9270275.53348   7223589.92046         0.00041  22048666.42946  22048664.99448
  -4610213.45348  -3592369.31644         0.00041  24092163.82944  24092163.38848
  -9407277.93848  -7330345.78745         0.00041  23389283.62645  23389282.37148
  -3947247.50848  -3075776.60145         0.00041  24045777.83145  24045778.82048
 96 10 16 07 19 00.0000000  0  7 07 02 26 27 15 04 09
 -13307542.11149 -10369510.50148         0.00041  20234394.83648  20234393.13149
    399067.73549    310963.11847         0.00041  21384661.79647  21384660.14749
 -10272385.02348  -8004456.10046         0.00041  22634312.95946  22634311.51948
   9361409.86348   7294603.66846         0.00041  22066008.64646  22066007.36848
  -4557037.26748  -3550933.31444         0.00041  24102285.22744  24102282.75248
  -9506984.75948  -7408039.40545         0.00041  23370310.23345  23370308.82848
  -4044514.80148  -3151569.29545         0.00041  24027269.56445  24027269.57748
 96 10 16 07 19 30.0000000  0  7 07 02 26 27 15 04 09
 -13293988.06449 -10358948.90448         0.00041  20236973.98648  20236972.22549
    422917.79149    329547.57147         0.00041  21389200.62947  21389198.61149
 -10242185.37848  -7980923.91746         0.00041  22640059.64946  22640058.19148
   9452951.41948   7365934.73746         0.00041  22083428.85546  22083427.23648
  -4503340.83348  -3509091.91544         0.00041  24112502.45044  24112500.58248
  -9606603.00648  -7485664.01245         0.00041  23351352.64645  23351352.38248
  -4141677.82548  -3227280.73145         0.00041  24008780.30045  24008780.04148
 96 10 16 07 20 00.0000000  0  7 07 02 26 27 15 04 09
 -13280027.85549 -10348070.81848         0.00041  20239630.64148  20239628.92949
    446918.54749    348249.45647         0.00041  21393767.70847  21393765.84449
 -10211523.66548  -7957031.67646         0.00041  22645894.61646  22645893.13648
   9544864.88748   7437555.60546         0.00041  22100918.94946  22100917.73548
  -4449145.73348  -3466861.97344         0.00041  24122813.69744  24122813.96848
  -9706135.44148  -7563221.75845         0.00041  23332412.21445  23332411.78848
  -4238763.66648  -3302932.02745         0.00041  23990306.12245  23990305.19248
 96 10 16 07 20 30.0000000  0  7 07 02 26 27 15 04 09
 -13265630.13449 -10336851.81248         0.00041  20242370.50348  20242368.80349
    471095.53449    367088.66347         0.00041  21398368.44447  21398366.50549
 -10180402.62148  -7932781.52846         0.00041  22651816.66346  22651815.32548
   9637143.40948   7509460.92846         0.00041  22118479.03746  22118477.64848
  -4394431.71048  -3424227.66544         0.00041  24133226.52744  24133226.03448
  -9805547.42448  -7640685.64145         0.00041  23313495.39545  23313494.37448
  -4335753.99748  -3378508.90045         0.00041  23971848.34645  23971848.18948
 96 10 16 07 21 00.0000000  0  7 07 02 26 27 15 04 09
 -13250794.28649 -10325291.40848         0.00041  20245193.66948  20245191.94249
    495455.30249    386070.29947         0.00041  21403004.05947  21403002.08549
 -10148835.58848  -7908183.84846         0.00041  22657823.72246  22657822.22248
   9729756.63548   7581627.06446         0.00041  22136103.13146  22136101.50048
  -4339207.11648  -3381195.49744         0.00041  24143735.24944  24143734.74048
  -9904829.14248  -7718048.01845         0.00041  23294602.78845  23294601.50748
  -4432656.03348  -3454016.97145         0.00041  23953408.53645  23953408.30448
 96 10 16 07 21 30.0000000  0  7 07 02 26 27 15 04 09
 -13235541.51449 -10313406.12748         0.00041  20248096.00048  20248094.32549
    519971.48349    405173.81647         0.00041  21407669.23347  21407667.35649
 -10116830.27148  -7883244.65146         0.00041  22663914.21246  22663912.84348
   9822674.52048   7654030.60246         0.00041  22153784.55146  22153783.06248
  -4283483.30148  -3337774.37244         0.00041  24154339.33444  24154338.68848
 -10003979.40548  -7795307.95845         0.00041  23275735.37045  23275733.76648
  -4529459.84148  -3529448.52745         0.00041  23934986.42945  23934986.78848
 96 10 16 07 22 00.0000000  0  7 07 02 26 27 15 04 09
 -13219872.16949 -10301196.24547         0.00041  20251077.78847  20251076.10449
    544639.62649    424395.74647         0.00041  21412363.35347  21412361.58149
 -10084394.52448  -7857970.05646         0.00041  22670086.81946  22670085.04148
   9915889.68348   7726665.77446         0.00041  22171523.01046  22171521.30448
  -4227264.05048  -3293967.14544         0.00041  24165034.89944  24165036.72648
 -10102993.19248  -7872461.55045         0.00041  23256893.46645  23256891.93648
  -4626152.34748  -3604793.33145         0.00041  23916587.04345  23916586.56448
 96 10 16 07 22 30.0000000  0  7 07 02 26 27 15 04 09
 -13203766.56849 -10288646.42347         0.00041  20254142.48047  20254140.88749
    569482.44949    443753.79147         0.00041  21417090.68047  21417088.85949
 -10051499.13048  -7832337.29046         0.00041  22676346.52246  22676344.89448
  10009404.91948   7799534.77546         0.00041  22189318.27546  22189316.82148
  -4170539.63448  -3249766.31044         0.00041  24175831.52444  24175830.94048
 -10201868.03548  -7949506.87445         0.00041  23238078.46245  23238076.71948
  -4722704.30548  -3680028.62845         0.00041  23898214.51845  23898212.82748
 96 10 16 07 23 00.0000000  0  7 07 02 26 27 15 04 09
 -13187248.59849 -10275775.27647         0.00041  20257285.76647  20257284.19449
    594485.64149    463236.80047         0.00041  21421848.61447  21421846.87649
 -10018131.69448  -7806336.70446         0.00041  22682695.91546  22682694.45348
  10103218.64348   7872636.36146         0.00041  22207170.23646  22207169.14948
  -4113325.46748  -3205183.88744         0.00041  24186719.39744  24186718.53048
 -10300624.94948  -8026460.31445         0.00041  23219284.57745  23219284.06648
  -4819127.98348  -3755163.94245         0.00041  23879865.06445  23879864.09948
 96 10 16 07 23 30.0000000  0  7 07 02 26 27 15 04 09
 -13170313.07849 -10262578.76347         0.00041  20260508.60647  20260507.01049
    619668.56349    482859.85647         0.00041  21426640.89047  21426638.97749
  -9984283.31648  -7779961.35246         0.00041  22689137.28246  22689135.54448
  10197354.63348   7945989.06446         0.00041  22225083.78246  22225082.45648
  -4055616.03548  -3160215.44344         0.00041  24197701.41144  24197700.65548
 -10399267.20748  -8103324.40345         0.00041  23200514.57745  23200513.09248
  -4915416.83148  -3830194.22045         0.00041  23861543.88545  23861541.11948
 96 10 16 07 24 00.0000000  0  7 07 02 26 27 15 04 09
 -13152963.03049 -10249059.24047         0.00041  20263810.17747  20263808.54949
    645038.89549    502628.94647         0.00041  21431468.67147  21431466.73849
  -9949971.54749  -7753224.91946         0.00041  22695666.15146  22695664.89949
  10291814.50348   8019594.13546         0.00041  22243059.06946  22243057.76148
  -3997421.73848  -3114869.22044         0.00041  24208774.10144  24208774.11048
 -10497797.87148  -8180101.54445         0.00041  23181764.72245  23181763.15048
  -5011587.86648  -3905132.69045         0.00041  23843242.22345  23843240.69748
 96 10 16 07 24 30.0000000  0  7 07 02 26 27 15 04 09
 -13135192.01649 -10235211.69147         0.00041  20267191.78347  20267190.16449
    670605.17749    522550.72447         0.00041  21436333.91047  21436331.70749
  -9915191.68749  -7726123.73346         0.00041  22702284.42346  22702283.21349
  10386603.37048   8093455.57046         0.00041  22261096.99046  22261095.59648
  -3938737.84848  -3069141.51244         0.00041  24219942.59144  24219941.30748
 -10596210.30148  -8256786.54145         0.00041  23163038.30145  23163035.83748
  -5107650.54448  -3979986.73045         0.00041  23824961.28745  23824960.83748
 96 10 16 07 25 00.0000000  0  7 07 02 26 27 15 04 09
 -13117014.77249 -10221047.60148         0.00041  20270650.99948  20270649.22049
    696362.94849    542621.71147         0.00041  21441235.59947  21441233.44949
  -9879963.79149  -7698673.43646         0.00041  22708988.33646  22708987.13749
  10481727.31248   8167578.10046         0.00041  22279198.14146  22279196.85248
  -3879567.43948  -3023034.71544         0.00041  24231203.32944  24231201.33048
 -10694494.91348  -8333371.95346         0.00041  23144335.16046  23144332.58048
  -5203616.17148  -4054765.13645         0.00041  23806699.64345  23806699.12848
 96 10 16 07 25 30.0000000  0  7 07 02 26 27 15 04 09
 -13098421.68849 -10206559.47947         0.00041  20274189.06147  20274187.30949
    722320.34649    562848.25147         0.00041  21446175.06947  21446172.97249
  -9844299.41449  -7670883.02146         0.00041  22715774.80346  22715773.75149
  10577199.30848   8241971.83846         0.00041  22297366.08946  22297364.48448
  -3819900.54248  -2976540.95344         0.00041  24242556.07644  24242554.61748
 -10792632.62348  -8409842.87746         0.00041  23125660.30046  23125657.66648
  -5299469.16348  -4129455.77345         0.00041  23788459.49045  23788458.97448
 96 10 16 07 26 00.0000000  0  7 07 02 26 27 15 04 09
 -13079421.71949 -10191754.30547         0.00041  20277804.70447  20277802.93549
    748460.58649    583217.26547         0.00041  21451149.33647  21451147.34749
  -9808195.71049  -7642750.26846         0.00041  22722644.99946  22722643.93849
  10673015.79648   8316634.01346         0.00041  22315599.45346  22315597.87048
  -3759732.80248  -2929657.04244         0.00041  24254006.06344  24254004.92348
 -10890602.64048  -8486183.15346         0.00041  23107016.41746  23107014.72048
  -5395206.37248  -4204056.20045         0.00041  23770240.96045  23770240.81148
 96 10 16 07 26 30.0000000  0  7 07 02 26 27 15 04 09
 -13060032.89549 -10176646.12847         0.00041  20281494.30447  20281492.41749
    774760.60449    603710.77647         0.00041  21456154.14047  21456152.36149
  -9771665.52148  -7614285.19646         0.00041  22729597.07446  22729595.44048
  10769154.78048   8391547.48746         0.00041  22333894.29646  22333892.69048
  -3699079.51248  -2882394.74144         0.00041  24265547.58044  24265546.99948
 -10988418.64248  -8562403.40746         0.00041  23088402.68046  23088401.52848
  -5490842.31148  -4278577.71245         0.00041  23752042.85545  23752041.71348
 96 10 16 07 27 00.0000000  0  7 07 02 26 27 15 04 09
 -13040241.52949 -10161224.28147         0.00041  20285260.48247  20285258.61649
    801232.17349    624337.96847         0.00041  21461191.25347  21461189.59849
  -9734698.99848  -7585480.12146         0.00041  22736631.21546  22736629.93248
  10865630.27748   8466723.18546         0.00041  22352252.85146  22352251.03048
  -3637926.72348  -2834743.24144         0.00041  24277186.66644  24277183.77848
 -11086060.95848  -8638488.33546         0.00041  23069821.79946  23069820.68048
  -5586346.23248  -4352996.34445         0.00041  23733869.44445  23733867.86748
 96 10 16 07 27 30.0000000  0  7 07 02 26 27 15 04 09
 -13020051.45849 -10145491.75747         0.00041  20289102.47147  20289100.60449
    827858.07849    645085.42547         0.00041  21466257.87547  21466256.21349
  -9697303.50848  -7556340.78746         0.00041  22743747.70846  22743746.08648
  10962414.62748   8542139.54546         0.00041  22370670.52846  22370668.53248
  -3576291.33748  -2786715.67744         0.00041  24288915.64144  24288912.90748
 -11183551.62048  -8714455.08146         0.00041  23051269.53246  23051268.66048
  -5681719.01348  -4427312.78245         0.00041  23715720.29645  23715718.80648
 96 10 16 07 28 00.0000000  0  7 07 02 26 27 15 04 09
 -12999454.86249 -10129442.46247         0.00041  20293021.79147  20293019.94149
    854638.49049    665953.27947         0.00041  21471353.80647  21471352.46049
  -9659471.29548  -7526861.14046         0.00041  22750946.79346  22750945.27948
  11059487.89948   8617781.04346         0.00041  22389142.79646  22389140.78648
  -3514177.70148  -2738315.42644         0.00041  24300732.34344  24300732.88048
 -11280893.13548  -8790305.59346         0.00041  23032745.51246  23032745.02248
  -5776959.70748  -4501526.31545         0.00041  23697596.41945  23697595.06148
 96 10 16 07 28 30.0000000  0  7 07 02 26 27 15 04 09
 -12978427.54649 -10113057.54047         0.00041  20297023.04847  20297021.38949
    881597.56749    686960.35447         0.00041  21476483.94147  21476482.36749
  -9621189.94448  -7497031.53546         0.00041  22758231.40646  22758229.88748
  11156854.65948   8693651.23146         0.00041  22407670.50746  22407669.08748
  -3451576.11848  -2689534.96044         0.00041  24312647.25844  24312644.28148
 -11378075.59848  -8866032.18546         0.00041  23014252.70646  23014252.05048
  -5872043.56548  -4575617.62545         0.00041  23679502.34145  23679501.05548
 96 10 16 07 29 00.0000000  0  7 07 02 26 27 15 04 09
 -12956985.82149 -10096349.69947         0.00041  20301103.43047  20301101.75149
    908735.52049    708106.80747         0.00041  21481648.09147  21481646.49549
  -9582456.52148  -7466849.65846         0.00041  22765602.37446  22765600.60348
  11254509.49748   8769745.89646         0.00041  22426254.01446  22426252.07048
  -3388496.08248  -2640381.70544         0.00041  24324652.01344  24324648.27448
 -11475107.52148  -8941641.46746         0.00041  22995788.38146  22995787.73248
  -5966963.80448  -4649581.44045         0.00041  23661440.48545  23661438.38648
 96 10 16 07 29 30.0000000  0  7 07 02 26 27 15 04 09
 -12935133.20449 -10079321.68247         0.00041  20305261.87647  20305260.08449
    936046.95249    729388.43347         0.00041  21486845.44547  21486843.79849
  -9543256.27248  -7436304.02346         0.00041  22773061.99046  22773060.26748
  11352453.77048   8846066.09746         0.00041  22444892.67246  22444890.27848
  -3324935.23248  -2590853.79744         0.00041  24336747.03544  24336743.75948
 -11571976.93948  -9017124.12046         0.00041  22977354.55946  22977354.07348
  -6061722.90348  -4723419.70645         0.00041  23643408.23345  23643406.31248
 96 10 16 07 30 00.0000000  0  7 07 02 26 27 15 04 09
 -12912900.98449 -10061997.86947         0.00041  20309492.47347  20309490.59749
    963515.59749    750792.56647         0.00041  21492072.63047  21492071.04649
  -9503607.52848  -7405408.91046         0.00041  22780606.57646  22780605.21148
  11450677.80248   8922604.29146         0.00041  22463583.44346  22463581.68548
  -3260909.06048  -2540963.24544         0.00041  24348929.53544  24348927.60448
 -11668680.36648  -9092477.43346         0.00041  22958952.18846  22958951.80348
  -6156344.09748  -4797150.50146         0.00041  23625403.15146  23625400.26948
 96 10 16 07 30 30.0000000  0  7 07 02 26 27 15 04 09
 -12890309.91549 -10044394.43148         0.00041  20313791.56148  20313789.57949
    991141.82649    772319.49447         0.00041  21497329.76147  21497328.18449
  -9463516.84548  -7374169.43146         0.00041  22788235.31546  22788234.13148
  11549191.64848   8999368.30746         0.00041  22482330.16946  22482328.38048
  -3196418.65748  -2490711.00444         0.00041  24361201.23044  24361199.09248
 -11765217.62448  -9167701.26846         0.00041  22940581.34246  22940581.46548
  -6250823.82048  -4870771.06246         0.00041  23607423.57146  23607421.36948
 96 10 16 07 31 00.0000000  0  7 07 02 26 27 15 04 09
 -12867374.59449 -10026522.74748         0.00041  20318156.00848  20318154.05649
   1018905.76849    793953.73147         0.00041  21502613.18947  21502611.50649
  -9423016.64048  -7342610.84446         0.00041  22795942.55946  22795941.22148
  11647985.11148   9076350.21146         0.00041  22501129.48946  22501128.24948
  -3131482.82348  -2440111.66344         0.00041  24373561.11044  24373556.79348
 -11861600.83348  -9242805.05846         0.00041  22922240.65846  22922240.11948
  -6345187.24948  -4944301.00546         0.00041  23589467.72846  23589464.56548
 96 10 16 07 31 30.0000000  0  7 07 02 26 27 15 04 09
 -12844055.16049 -10008351.75548         0.00041  20322593.44848  20322591.60449
   1046835.85849    815717.42947         0.00041  21507928.25447  21507926.67949
  -9382107.97648  -7310733.97346         0.00041  22803727.60646  22803725.84348
  11747090.48148   9153575.15746         0.00041  22519988.71946  22519987.43348
  -3066075.62448  -2389144.99644         0.00041  24386005.07744  24386003.28448
 -11957792.75348  -9317759.80046         0.00041  22903936.85046  22903935.38948
  -6439416.08548  -5017726.07246         0.00041  23571535.60146  23571533.46348
 96 10 16 07 32 00.0000000  0  7 07 02 26 27 15 04 09
 -12820344.17449  -9989875.65948         0.00041  20327105.49348  20327103.61249
   1074946.63449    837621.92447         0.00041  21513277.48747  21513275.68349
  -9340814.61348  -7278557.33546         0.00041  22811585.22146  22811583.64048
  11846504.01748   9231040.22746         0.00041  22538906.58546  22538905.33348
  -3000206.89148  -2337818.72144         0.00041  24398538.43844  24398537.53548
 -12053801.62948  -9392571.90846         0.00041  22885666.61346  22885665.29948
  -6533506.40748  -5091043.20846         0.00041  23553631.29846  23553628.78148
 96 10 16 07 32 30.0000000  0  7 07 02 26 27 15 04 09
 -12796218.22649  -9971076.21948         0.00041  20331696.39948  20331694.64549
   1103257.21849    859682.11347         0.00041  21518664.75047  21518663.10349
  -9299145.01048  -7246087.52846         0.00041  22819514.32946  22819513.36948
  11946238.50248   9308755.39446         0.00041  22557885.69746  22557884.14848
  -2933873.23548  -2286130.18344         0.00041  24411159.92744  24411160.84948
 -12149629.00948  -9467242.58546         0.00041  22867430.91146  22867430.15948
  -6627447.29248  -5164243.89646         0.00041  23535755.03246  23535752.38948
 96 10 16 07 33 00.0000000  0  7 02 07 26 27 15 04 09
   1131760.68449    881892.59947         0.00041  21524088.88147  21524087.07349
 -12771669.95149  -9951947.69447         0.00041  20336367.77347  20336366.01349
  -9257100.20848  -7213325.34446         0.00041  22827515.81146  22827514.15348
  12046283.16048   9386712.25146         0.00041  22576923.48946  22576921.94548
  -2867083.02648  -2234085.77944         0.00041  24423876.23144  24423871.19848
 -12245263.50748  -9541762.96946         0.00041  22849232.61746  22849231.81448
  -6721246.64548  -5237334.29646         0.00041  23517905.90046  23517903.33948
 96 10 16 07 33 30.0000000  0  7 02 07 26 27 15 04 09
   1160463.29849    904258.26347         0.00041  21529550.83847  21529548.80349
 -12746709.75449  -9932498.18747         0.00041  20341117.57147  20341115.80449
  -9214663.25348  -7180257.59346         0.00041  22835590.93146  22835589.75748
  12146630.34048   9464904.83746         0.00041  22596018.88146  22596017.26948
  -2799837.26348  -2181686.56344         0.00041  24436668.65344  24436667.26248
 -12340709.05148  -9616136.11646         0.00041  22831069.40646  22831068.87248
  -6814892.55948  -5310305.12646         0.00041  23500084.70046  23500083.17948
 96 10 16 07 34 00.0000000  0  7 07 02 26 27 15 04 09
 -12721337.79649  -9912727.83147         0.00041  20345945.69347  20345943.91549
   1189376.99949    926788.41746         0.00041  21535052.82146  21535050.96949
  -9171794.90548  -7146853.69346         0.00041  22843748.27046  22843746.90148
  12247286.80048   9543338.41746         0.00041  22615173.26146  22615171.70248
  -2732119.62148  -2128919.56244         0.00041  24449556.09744  24449553.18348
 -12435946.06448  -9690346.77346         0.00041  22812946.54546  22812945.38848
  -6908358.31648  -5383135.59446         0.00041  23482298.71346  23482297.45748
 96 10 16 07 34 30.0000000  0  7 02 07 26 27 15 04 09
   1218482.99849    949468.40246         0.00041  21540591.12046  21540589.48149
 -12695580.61249  -9892657.29747         0.00041  20350846.97847  20350845.23249
  -9128491.87448  -7113111.08446         0.00041  22851988.77946  22851987.32048
  12348240.81148   9622003.86246         0.00041  22634384.76146  22634382.78848
  -2663938.96248  -2075791.77544         0.00041  24462531.88544  24462527.39548
 -12530971.93348  -9764392.88746         0.00041  22794863.56146  22794862.94148
  -7001649.01248  -5455829.63546         0.00041  23464546.45546  23464544.82548
 96 10 16 07 35 00.0000000  0  7 02 07 26 27 15 04 09
   1247762.83549    972283.85546         0.00041  21546163.19746  21546161.41849
 -12669454.39149  -9872299.20247         0.00041  20355818.79547  20355817.01149
  -9084740.65548  -7079019.23246         0.00041  22860314.20246  22860312.64848
  12449486.21148   9700896.35746         0.00041  22653650.79946  22653649.29748
  -2595296.66748  -2022304.26944         0.00041  24475592.56844  24475589.69648
 -12625776.66048  -9838266.69246         0.00041  22776823.53446  22776822.62648
  -7094751.88948  -5528377.32846         0.00041  23446828.49446  23446827.96248
 96 10 16 07 35 30.0000000  0  7 02 07 26 27 15 04 09
   1277197.66949    995220.08946         0.00041  21551764.34146  21551762.78249
 -12642987.20249  -9851675.41547         0.00041  20360855.39447  20360853.56949
  -9040576.12848  -7044605.32846         0.00041  22868718.14346  22868716.99248
  12551008.84448   9780004.88646         0.00041  22672969.39546  22672968.27048
  -2526210.58148  -1968470.95844         0.00041  24488738.91644  24488735.65048
 -12720379.17348  -9911982.92446         0.00041  22758820.70346  22758820.17548
  -7187678.30748  -5600787.51946         0.00041  23429145.40046  23429144.57048
 96 10 16 07 36 00.0000000  0  7 02 07 26 27 15 04 09
   1306774.76549   1018267.17246         0.00041  21557392.61946  21557390.96849
 -12616185.64749  -9830791.08547         0.00041  20365955.44947  20365953.73449
  -8996023.23648  -7009888.80146         0.00041  22877196.56146  22877195.33948
  12652805.08948   9859326.61546         0.00041  22692340.86046  22692339.48648
  -2456691.07348  -1914299.90844         0.00041  24501968.88644  24501965.70348
 -12814773.43548  -9985536.88946         0.00041  22740857.84146  22740857.51148
  -7280439.89948  -5673069.27246         0.00041  23411493.53146  23411492.64048
 96 10 16 07 36 30.0000000  0  7 02 07 26 27 15 04 09
   1336523.10749   1041447.68946         0.00041  21563053.83446  21563051.97349
 -12589016.28749  -9809620.15147         0.00041  20371125.62247  20371123.97349
  -8951075.16548  -6974864.33946         0.00041  22885750.46646  22885748.39248
  12754897.51648   9938879.14246         0.00041  22711768.50346  22711766.97148
  -2386719.85348  -1859776.86844         0.00041  24515287.62344  24515281.06648
 -12908943.84948 -10058916.41946         0.00041  22722938.79946  22722937.45748
  -7373023.24148  -5745212.12246         0.00041  23393874.96246  23393874.38348
 96 10 16 07 37 00.0000000  0  7 02 07 26 27 15 04 09
   1366430.56549   1064752.19546         0.00041  21568745.07946  21568743.14449
 -12561493.85749  -9788174.09847         0.00041  20376363.04547  20376361.35449
  -8905758.05448  -6939552.31446         0.00041  22894373.48646  22894371.70448
  12857251.71348  10018635.64546         0.00041  22731246.10846  22731244.27748
  -2316322.43248  -1804921.74844         0.00041  24528684.31844  24528677.52248
 -13002923.30748 -10132147.15346         0.00041  22705054.21046  22705053.80048
  -7465464.51148  -5817244.26946         0.00041  23376285.15346  23376283.52048
 96 10 16 07 37 30.0000000  0  7 07 02 26 27 15 04 09
 -12533599.16749  -9766437.97447         0.00041  20381671.17447  20381669.35549
   1396526.36849   1088203.46246         0.00041  21574472.16646  21574470.26549
  -8860071.93648  -6903952.74846         0.00041  22903067.77746  22903065.85248
  12959877.09848  10098603.46046         0.00041  22750774.67946  22750773.28948
  -2245493.68348  -1749730.53144         0.00041  24542155.90544  24542155.35048
 -13096708.13448 -10205226.22146         0.00041  22687208.38346  22687207.13248
  -7557766.13648  -5889167.60946         0.00041  23358720.15346  23358718.83948
 96 10 16 07 38 00.0000000  0  7 02 07 26 27 15 04 09
   1426828.85549   1111815.78746         0.00041  21580238.48946  21580236.49449
 -12505319.02949  -9744401.50247         0.00041  20387052.75947  20387050.92449
  -8814008.73948  -6868059.36446         0.00041  22911833.24346  22911831.45548
  13062766.90348  10178777.31546         0.00041  22770353.68846  22770352.59548
  -2174233.79848  -1694203.30844         0.00041  24555717.25644  24555716.23148
 -13190297.93648 -10278153.33846         0.00041  22669398.84846  22669397.55448
  -7649926.83148  -5960981.14846         0.00041  23341182.84946  23341181.23448
 96 10 16 07 38 30.0000000  0  6 07 02 26 27 04 09
 -12476634.09249  -9722049.60147         0.00041  20392511.24547  20392509.39049
   1457364.40149   1135609.71846         0.00041  21586049.24646  21586047.39449
  -8767541.19348  -6831850.90546         0.00041  22920675.37046  22920674.26448
  13165938.92248  10259171.08746         0.00041  22789987.62346  22789985.74148
 -13283669.33548 -10350910.26546         0.00041  22651630.11346  22651629.50848
  -7741914.15448  -6032659.57746         0.00041  23323678.73646  23323676.90048
 96 10 16 07 39 00.0000000  0  7 07 02 26 27 24 04 09
 -12447534.83049  -9699374.85047         0.00041  20398048.74147  20398046.86649
   1488141.46049   1159591.83546         0.00041  21591906.07446  21591904.23949
  -8720660.51948  -6795320.52346         0.00041  22929596.36146  22929595.34148
  13269411.27548  10339798.87946         0.00041  22809677.76446  22809675.80148
        -0.94958        -0.14454         0.00051  25122637.06454  25122634.16058
 -13376790.36348 -10423472.09246         0.00041  22633910.06646  22633909.35848
  -7833688.21548  -6104171.82746         0.00041  23306214.46846  23306212.76248
 96 10 16 07 39 30.0000000  0  7 07 02 26 27 24 04 09
 -12418111.08849  -9676447.25947         0.00041  20403647.71247  20403645.97649
   1519074.43149   1183695.44546         0.00041  21597792.18046  21597790.27749
  -8673445.26648  -6758529.42246         0.00041  22938581.38746  22938580.18548
  13373114.48248  10420606.56046         0.00041  22829411.89546  22829409.90748
   -105609.69048    -82292.64044         0.00041  25102538.61444  25102537.42748
 -13469725.06448 -10495888.73046         0.00041  22616225.23746  22616224.56448
  -7925306.94148  -6175563.03546         0.00041  23288779.88146  23288778.17748
 96 10 16 07 40 00.0000000  0  7 07 02 26 27 24 04 09
 -12388334.82049  -9653244.96947         0.00041  20409313.88347  20409312.28649
   1550191.79149   1207942.73546         0.00041  21603713.71346  21603711.92949
  -8625837.11348  -6721432.17346         0.00041  22947640.63346  22947639.94848
  13477078.20448  10501617.23446         0.00041  22849194.86846  22849193.62248
   -211350.07448   -164687.71144         0.00041  25082419.27044  25082415.76448
 -13562417.24348 -10568116.39346         0.00041  22598586.23646  22598585.66048
  -8016713.19948  -6246788.68346         0.00041  23271385.83046  23271384.16648
 96 10 16 07 40 30.0000000  0  7 07 02 26 27 24 04 09
 -12358251.45649  -9629803.38847         0.00041  20415038.56147  20415036.94249
   1581441.94149   1232293.49546         0.00041  21609660.41346  21609658.79249
  -8577869.45048  -6684054.77946         0.00041  22956769.03146  22956767.78048
  13581271.22448  10582806.58146         0.00041  22869022.33446  22869020.89648
   -317249.70548   -247206.84644         0.00041  25062267.42944  25062263.61848
 -13654888.94848 -10640172.25846         0.00041  22580989.38546  22580988.78448
  -8107933.76848  -6317869.63946         0.00041  23254027.02346  23254025.45848
 96 10 16 07 41 00.0000000  0  7 07 02 26 27 24 04 09
 -12327809.67049  -9606082.51447         0.00041  20420831.46247  20420829.83849
   1612872.06649   1256784.49846         0.00041  21615641.40346  21615639.62349
  -8529492.24248  -6646358.26446         0.00041  22965975.27846  22965973.57548
  13685731.93348  10664204.52646         0.00041  22888900.30646  22888899.29248
   -423247.80248   -329802.74244         0.00041  25042092.66244  25042092.63748
 -13747086.39348 -10712014.40546         0.00041  22563444.73146  22563444.25648
  -8198925.74848  -6388772.47746         0.00041  23236711.92846  23236710.10448
 96 10 16 07 41 30.0000000  0  7 07 02 26 27 24 04 09
 -12296999.66649  -9582074.71747         0.00041  20426694.41547  20426692.82249
   1644494.39449   1281425.26746         0.00041  21621658.92646  21621657.26649
  -8480696.49248  -6608335.60746         0.00041  22975260.42246  22975259.03248
  13790455.28648  10745807.13146         0.00041  22908828.66446  22908827.08948
   -529340.75648   -412472.56044         0.00041  25021906.82944  25021903.45648
 -13839010.09248 -10783643.26246         0.00041  22545953.02046  22545951.67048
  -8289704.89148  -6459509.47546         0.00041  23219437.10646  23219435.20948
 96 10 16 07 42 00.0000000  0  7 07 02 26 27 24 04 09
 -12265818.45849  -9557777.67247         0.00041  20432628.02047  20432626.19549
   1676295.24649   1306205.15246         0.00041  21627710.36346  21627708.57149
  -8431513.06548  -6570010.86846         0.00041  22984619.88046  22984618.30048
  13895416.32048  10827594.93846         0.00041  22928802.20946  22928800.47948
   -635540.59548   -495225.67244         0.00041  25001696.59044  25001694.20548
 -13930671.45548 -10855067.68546         0.00041  22528509.64246  22528508.75748
  -8380295.84348  -6530099.83746         0.00041  23202198.16346  23202196.15748
 96 10 16 07 42 30.0000000  0  7 07 02 26 27 24 04 09
 -12234249.68249  -9533178.62447         0.00041  20438635.42447  20438633.55249
   1708297.44349   1331141.92346         0.00041  21633799.93346  21633798.55749
  -8381955.85148  -6531394.86246         0.00041  22994050.07446  22994048.39548
  14000627.92248  10909577.99146         0.00041  22948823.83546  22948821.91148
   -741816.68748   -578038.27044         0.00041  24981472.39044  24981470.49848
 -14022069.38848 -10926286.84846         0.00041  22511117.28546  22511116.26248
  -8470695.97048  -6600541.49146         0.00041  23184994.92946  23184993.38548
 96 10 16 07 43 00.0000000  0  7 07 02 26 27 24 04 09
 -12202288.38749  -9508273.71947         0.00041  20444717.46547  20444715.50449
   1740516.30549   1356247.53946         0.00041  21639931.00046  21639929.57449
  -8332029.36348  -6492491.11346         0.00041  23003550.51146  23003549.05648
  14106089.69048  10991755.98146         0.00041  22968892.21746  22968890.52848
   -848143.17948   -660890.14044         0.00041  24961239.61044  24961237.23048
 -14113210.61748 -10997305.98146         0.00041  22493774.35446  22493772.72148
  -8560898.63048  -6670829.27346         0.00041  23167830.68246  23167828.59448
 96 10 16 07 43 30.0000000  0  7 07 02 26 27 24 04 09
 -12169948.96449  -9483074.18047         0.00041  20450871.25147  20450869.37549
   1772931.64549   1381506.24047         0.00041  21646099.79247  21646098.19049
  -8281747.56548  -6453310.49546         0.00041  23013119.44346  23013117.51748
  14211800.00748  11074127.64146         0.00041  22989008.51946  22989006.45648
   -954527.72148   -743787.28544         0.00041  24940996.40144  24940992.72648
 -14204113.54048 -11068139.42446         0.00041  22476475.73246  22476474.27748
  -8650908.86748  -6740967.11946         0.00041  23150702.38346  23150700.09448
 96 10 16 07 44 00.0000000  0  7 07 02 26 27 24 04 09
 -12137227.70549  -9457577.08047         0.00041  20457098.13847  20457096.32349
   1805559.55549   1406930.53946         0.00041  21652308.61546  21652306.96049
  -8231094.29648  -6413840.42046         0.00041  23022757.80246  23022756.28448
  14317776.27648  11156706.53846         0.00041  23009174.38446  23009172.87348
  -1060942.73048   -826708.11744         0.00041  24920745.76244  24920742.76648
 -14294774.24648 -11138784.12646         0.00041  22459223.38846  22459222.29848
  -8740690.56248  -6810926.88746         0.00041  23133616.95346  23133615.56948
 96 10 16 07 44 30.0000000  0  7 07 02 26 27 24 04 09
 -12104143.23749  -9431796.97447         0.00041  20463393.78347  20463392.03149
   1838396.74649   1432517.96046         0.00041  21658557.45046  21658555.53349
  -8180061.36748  -6374074.50246         0.00041  23032469.39946  23032467.49848
  14424017.50948  11239491.89546         0.00041  23029391.82646  23029390.15548
  -1167394.59448   -909657.70444         0.00041  24900488.45344  24900485.58848
 -14385204.47448 -11209249.23146         0.00041  22442015.32446  22442013.97648
  -8830240.92948  -6880706.39046         0.00041  23116576.56846  23116574.71248
 96 10 16 07 45 00.0000000  0  7 07 02 26 27 24 04 09
 -12070697.61449  -9405735.44947         0.00041  20469758.34647  20469756.65249
   1871431.25349   1458259.12446         0.00041  21664843.74346  21664841.88349
  -8128634.67848  -6334001.76546         0.00041  23042256.06646  23042253.72248
  14530524.82748  11322484.59746         0.00041  23049659.31946  23049657.93948
  -1273903.71948   -992651.86444         0.00041  24880218.56544  24880217.79848
 -14475396.85548 -11279528.99546         0.00041  22424852.66846  22424850.99848
  -8919550.91548  -6950298.58946         0.00041  23099581.11746  23099579.39448
 96 10 16 07 45 30.0000000  0  7 07 02 26 27 24 04 09
 -12036801.99549  -9379323.27647         0.00041  20476208.45347  20476206.85649
   1904754.63149   1484225.39346         0.00041  21671185.01446  21671183.17549
  -8076721.34048  -6293549.81546         0.00041  23052134.07246  23052132.41548
  14637387.74448  11405754.39346         0.00041  23069994.69346  23069992.94248
  -1380402.67648  -1075638.10444         0.00041  24859953.32244  24859951.95348
 -14565250.55948 -11349544.85746         0.00041  22407753.42546  22407752.59448
  -9008528.28848  -7019631.61346         0.00041  23082650.17446  23082647.56748
 96 10 16 07 46 00.0000000  0  7 07 02 26 27 24 04 09
 -12002367.02849  -9352490.83747         0.00041  20482761.27447  20482759.52749
   1938481.42449   1510506.00446         0.00041  21677602.85046  21677601.07149
  -8024232.75548  -6252649.62946         0.00041  23062123.16246  23062121.20348
  14744695.86948  11489371.10245         0.00041  23090415.56545  23090413.10748
  -1486809.24248  -1158552.33544         0.00041  24839706.47944  24839703.98848
 -14654648.73548 -11419205.76846         0.00041  22390741.66846  22390740.73548
  -9097072.86048  -7088627.36946         0.00041  23065800.40746  23065798.12348
 96 10 16 07 46 30.0000000  0  7 07 02 26 27 24 04 09
 -11967380.62549  -9325228.70647         0.00041  20489418.91647  20489417.16849
   1972608.21149   1537098.29946         0.00041  21684097.21746  21684095.15949
  -7971166.40248  -6211299.22946         0.00041  23072220.96746  23072219.37348
  14852454.24548  11573338.64745         0.00041  23110920.56545  23110918.69448
  -1593131.60548  -1241400.93844         0.00041  24819473.88144  24819471.44748
 -14743545.41048 -11488475.89346         0.00041  22373825.25446  22373824.19748
  -9185180.66448  -7157282.80046         0.00041  23049034.26746  23049031.49548
 96 10 16 07 47 00.0000000  0  7 07 02 26 27 24 04 09
 -11930922.91649  -9296820.10347         0.00041  20496356.57947  20496354.73749
   2008056.89249   1564720.63646         0.00041  21690842.94546  21690840.87749
  -7916614.33648  -6168791.13646         0.00041  23082601.07946  23082600.30648
  14961585.08448  11658375.65645         0.00041  23131687.08645  23131685.86048
  -1698428.62948  -1323450.58444         0.00041  24799434.46944  24799434.29548
 -14830998.07948 -11556620.82546         0.00041  22357183.67446  22357182.48848
  -9271918.09648  -7224870.40246         0.00041  23032528.37946  23032525.96148
 96 10 16 07 47 30.0000000  0  7 07 02 26 27 24 04 09
 -11894074.04849  -9268106.69847         0.00041  20503368.90447  20503366.94449
   2043758.83149   1592540.31746         0.00041  21697636.80546  21697634.92049
  -7861675.07148  -6125981.32246         0.00041  23093055.93546  23093055.05448
  15070998.72648  11743633.02045         0.00041  23152508.49545  23152506.69848
  -1803760.58948  -1405527.40444         0.00041  24779391.57044  24779389.83848
 -14918080.63648 -11624477.35746         0.00041  22340612.58746  22340611.18448
  -9358373.40348  -7292238.17646         0.00041  23016076.51746  23016074.17848
 96 10 16 07 48 00.0000000  0  7 07 02 26 27 24 04 09
 -11857288.83549  -9239442.89547         0.00041  20510368.86747  20510366.99049
   2079250.27849   1620195.97946         0.00041  21704390.47446  21704388.40049
  -7806814.81448  -6083233.07846         0.00041  23103496.17746  23103494.46348
  15180229.50548  11828747.90845         0.00041  23173294.26645  23173292.67248
  -1909561.03148  -1487969.30144         0.00041  24759260.39644  24759256.49548
 -15005240.89148 -11692394.43046         0.00041  22324026.59046  22324025.01948
  -9445012.33148  -7359749.01546         0.00041  22999589.55446  22999587.38048
 96 10 16 07 48 30.0000000  0  7 07 02 26 27 24 04 09
 -11820483.89649  -9210763.72047         0.00041  20517372.68647  20517370.83849
   2114614.86349   1647752.79346         0.00041  21711120.22246  21711118.10649
  -7751947.45748  -6040479.29946         0.00041  23113937.11646  23113935.47748
  15289364.82148  11913788.40545         0.00041  23194062.17745  23194060.34448
  -2015711.69248  -1570684.08744         0.00041  24739059.83844  24739056.62248
 -15092394.95648 -11760306.67746         0.00041  22307441.20446  22307440.13748
  -9531752.57448  -7427338.81346         0.00041  22983083.33546  22983081.34448
 96 10 16 07 49 00.0000000  0  7 07 02 26 27 24 04 09
 -11783899.93249  -9182256.73247         0.00041  20524334.24247  20524332.52449
   2149632.47649   1675039.23846         0.00041  21717783.60446  21717781.77949
  -7697315.89148  -5997909.26346         0.00041  23124333.28746  23124331.49848
  15398174.15848  11998574.88845         0.00041  23214767.73145  23214765.98848
  -2122433.42248  -1653843.86144         0.00041  24718750.47144  24718747.94048
 -15179800.49049 -11828414.87746         0.00041  22290808.51646  22290807.75949
  -9618839.71648  -7495198.92846         0.00041  22966511.38146  22966509.63448
 96 10 16 07 49 30.0000000  0  7 07 02 26 27 24 04 09
 -11747461.70149  -9153863.30447         0.00041  20531268.24047  20531266.57649
   2184379.38749   1702114.75346         0.00041  21724395.72046  21724394.07649
  -7642835.89048  -5955457.32746         0.00041  23134700.27346  23134698.56648
  15506728.38548  12083162.60645         0.00041  23235425.41245  23235422.81148
  -2229668.63148  -1737403.74744         0.00041  24698344.66744  24698341.95548
 -15267391.06249 -11896667.26146         0.00041  22274140.72446  22274139.84249
  -9706200.12648  -7563271.97246         0.00041  22949887.07246  22949885.47548
 96 10 16 07 50 00.0000000  0  7 07 02 26 27 24 04 09
 -11711356.43449  -9125729.32947         0.00041  20538138.86547  20538137.22449
   2218675.17449   1728838.74546         0.00041  21730921.96046  21730920.40149
  -7588668.31248  -5913248.82746         0.00041  23145008.25346  23145006.00048
  15614858.39448  12167419.74245         0.00041  23256001.68745  23255999.29248
  -2337596.94048  -1821503.74944         0.00041  24677807.98144  24677804.19448
 -15355340.82049 -11965199.53246         0.00041  22257404.03046  22257403.40449
  -9793996.81648  -7631684.97146         0.00041  22933179.78246  22933177.84048
 96 10 16 07 50 30.0000000  0  7 07 02 26 27 24 04 09
 -11675295.53849  -9097629.93247         0.00041  20545000.91847  20544999.28849
   2252816.71349   1755442.53546         0.00041  21737418.81246  21737417.32049
  -7534512.39548  -5871049.42246         0.00041  23155313.83446  23155311.66048
  15722866.77548  12251582.10845         0.00041  23276554.65745  23276552.89848
  -2445931.09648  -1905919.98044         0.00041  24657193.55844  24657188.99748
 -15443367.61049 -12033791.82146         0.00041  22240653.71446  22240652.49149
  -9881912.32348  -7700190.56146         0.00041  22916449.14846  22916448.00848
 96 10 16 07 51 00.0000000  0  7 07 02 26 27 24 04 09
 -11639215.06349  -9069515.27847         0.00041  20551866.70347  20551864.97549
   2286845.56649   1781958.52246         0.00041  21743894.57346  21743892.86549
  -7480314.96548  -5828817.66146         0.00041  23165626.63346  23165624.83148
  15830797.11248  12335683.67245         0.00041  23297093.72345  23297091.72948
  -2554635.62848  -1990624.81144         0.00041  24636506.49244  24636502.98048
 -15531421.83849 -12102405.49546         0.00041  22223897.11546  22223896.23949
  -9969884.29448  -7768740.13146         0.00041  22899709.35346  22899707.77148
 96 10 16 07 51 30.0000000  0  7 07 02 26 27 24 04 09
 -11602718.88949  -9041076.70347         0.00041  20558811.75047  20558810.01749
   2321157.43649   1808695.04346         0.00041  21750423.59046  21750422.05249
  -7425669.81948  -5786237.02946         0.00041  23176025.74746  23176023.71148
  15939036.23348  12420025.83645         0.00041  23317690.75045  23317689.06448
  -2663309.04348  -2075305.39244         0.00041  24615824.10144  24615823.62548
 -15619094.87249 -12170722.12946         0.00041  22207213.75046  22207212.66749
 -10057508.58248  -7837018.78146         0.00041  22883034.76146  22883033.51648
 96 10 16 07 52 00.0000000  0  7 07 02 26 27 24 04 09
 -11565696.94549  -9012228.43447         0.00041  20565856.86047  20565855.06849
   2355865.34049   1835740.16046         0.00041  21757028.36946  21757026.72949
  -7370482.40648  -5743233.85646         0.00041  23186527.36346  23186525.78448
  16047700.01448  12504698.91645         0.00041  23338368.56245  23338366.81348
  -2771826.83648  -2159864.72844         0.00041  24595174.29944  24595173.26048
 -15706271.64849 -12238652.06746         0.00041  22190624.71646  22190623.31949
 -10144678.91848  -7904943.81946         0.00041  22866447.02046  22866445.41148
 96 10 16 07 52 30.0000000  0  7 07 02 26 27 24 04 09
 -11528139.83449  -8982963.15147         0.00041  20573003.70447  20573001.79449
   2390969.10849   1863093.73646         0.00041  21763708.23246  21763706.60749
  -7314762.65248  -5699815.88146         0.00041  23197129.68746  23197128.82048
  16156797.00348  12589709.54745         0.00041  23359129.21145  23359127.25848
  -2880176.49248  -2244293.06644         0.00041  24574558.51944  24574555.05248
 -15792936.35949 -12306182.99346         0.00041  22174132.81046  22174131.62849
 -10231391.40348  -7972511.97446         0.00041  22849946.90546  22849944.78048
 96 10 16 07 53 00.0000000  0  7 07 02 26 27 24 04 09
 -11489998.31849  -8953242.48747         0.00041  20580261.85847  20580259.77149
   2426527.18749   1890801.32046         0.00041  21770474.69646  21770473.12849
  -7258466.73048  -5655948.94246         0.00041  23207842.93546  23207841.45148
  16266375.77448  12675095.60845         0.00041  23379981.04545  23379979.54248
  -2988302.29048  -2328546.92444         0.00041  24553981.95544  24553980.14248
 -15879017.98849 -12373259.58046         0.00041  22157751.90746  22157750.81549
 -10317603.79248  -8039690.44646         0.00041  22833540.74446  22833538.99548
 96 10 16 07 53 30.0000000  0  7 07 02 26 27 24 04 09
 -11451375.92649  -8923147.11747         0.00041  20587611.62547  20587609.64849
   2462442.22549   1918787.05246         0.00041  21777309.24746  21777307.60849
  -7201706.62848  -5611720.30546         0.00041  23218644.18446  23218642.42348
  16376334.80348  12760777.95645         0.00041  23400905.84845  23400904.41848
  -3096303.10948  -2412703.40244         0.00041  24533431.06144  24533428.04748
 -15964614.51049 -12439958.15946         0.00041  22141463.89346  22141462.43649
 -10403402.87448  -8106546.86946         0.00041  22817213.80846  22817212.18148
 96 10 16 07 54 00.0000000  0  7 07 02 26 27 24 04 09
 -11412358.15249  -8892743.65847         0.00041  20595036.32747  20595034.42249
   2498623.04849   1946979.88646         0.00041  21784194.05646  21784192.69949
  -7144587.69048  -5567212.05246         0.00041  23229514.15046  23229511.86348
  16486584.83448  12846687.05845         0.00041  23421885.61345  23421883.83548
  -3204276.19348  -2496838.29544         0.00041  24512883.18344  24512881.22148
 -16049809.08249 -12506343.53046         0.00041  22125251.74146  22125250.39349
 -10488856.36448  -8173133.99446         0.00041  22800952.80246  22800950.94048
 96 10 16 07 54 30.0000000  0  7 07 02 26 27 24 04 09
 -11372961.92249  -8862045.29647         0.00041  20602533.19847  20602531.35749
   2535056.74949   1975369.76946         0.00041  21791127.28446  21791125.84849
  -7087120.46448  -5522432.41146         0.00041  23240448.79346  23240447.27648
  16597083.48448  12932789.89245         0.00041  23442912.31745  23442911.34348
  -3312255.72148  -2580978.19144         0.00041  24492335.06244  24492333.41648
 -16134618.08549 -12572428.45646         0.00041  22109113.12246  22109111.69449
 -10573977.43748  -8239462.10046         0.00041  22784754.65446  22784752.87148
 96 10 16 07 55 00.0000000  0  7 07 02 26 27 24 04 09
 -11333174.85949  -8831042.38747         0.00041  20610104.38047  20610102.47949
   2571761.80749   2003971.11146         0.00041  21798111.93246  21798110.50949
  -7029299.56748  -5477377.17446         0.00041  23251451.84746  23251450.00348
  16707806.25348  13019067.36145         0.00041  23463982.50945  23463980.80648
  -3420241.20548  -2665122.68644         0.00041  24471786.21544  24471784.30548
 -16219047.75749 -12638217.80446         0.00041  22093046.30546  22093045.22549
 -10658759.69148  -8305526.19146         0.00041  22768621.63846  22768619.59148
 96 10 16 07 55 30.0000000  0  7 07 02 26 27 24 04 09
 -11293008.23949  -8799743.72247         0.00041  20617747.92547  20617745.94049
   2608726.83249   2032775.01546         0.00041  21805145.88046  21805144.78849
  -6971138.28848  -5432056.71046         0.00041  23262520.07746  23262518.10848
  16818733.35848  13105504.05145         0.00041  23485091.76445  23485089.96548
  -3528238.42648  -2749276.37244         0.00041  24451236.24744  24451233.02748
 -16303116.25249 -12703725.71846         0.00041  22077048.68246  22077047.49849
 -10743211.42948  -8371332.74146         0.00041  22752550.75846  22752548.92748
 96 10 16 07 56 00.0000000  0  7 07 02 26 27 24 04 09
 -11252485.06649  -8768167.22547         0.00041  20625459.24447  20625457.15149
   2645948.74449   2061779.08946         0.00041  21812229.52846  21812227.77549
  -6912636.42548  -5386470.85646         0.00041  23273652.29646  23273650.39948
  16929859.96148  13192096.20045         0.00041  23506237.77245  23506236.28948
  -3636238.72748  -2833432.44344         0.00041  24430683.11544  24430681.36148
 -16386811.34249 -12768942.66546         0.00041  22061121.98846  22061120.76049
 -10827366.73448  -8436908.29746         0.00041  22736536.01046  22736534.57848
 96 10 16 07 56 30.0000000  0  7 07 02 26 27 24 04 09
 -11211629.34949  -8736331.60047         0.00041  20633233.57347  20633231.66149
   2683399.96649   2090961.85846         0.00041  21819356.04746  21819354.48149
  -6853803.51848  -5340627.03546         0.00041  23284848.03146  23284845.90748
  17041162.37448  13278825.34345         0.00041  23527417.39945  23527416.78648
  -3744241.17048  -2917590.19444         0.00041  24410130.47844  24410128.98448
 -16470157.06749 -12833887.37646         0.00041  22045261.78946  22045260.60349
 -10911263.26748  -8502282.21846         0.00041  22720571.30246  22720569.68348
 96 10 16 07 57 00.0000000  0  7 07 02 26 27 24 04 09
 -11170447.68149  -8704241.98847         0.00041  20641070.23247  20641068.34949
   2721068.50849   2120313.95946         0.00041  21826524.04646  21826522.54749
  -6794637.43048  -5294523.60446         0.00041  23296107.03846  23296104.77548
  17152663.15948  13365709.05645         0.00041  23548635.36245  23548634.19648
  -3852218.15148  -3001728.08444         0.00041  24389584.33444  24389581.56748
 -16553145.78749 -12898553.90246         0.00041  22029469.44046  22029468.61449
 -10994899.77048  -8567453.51046         0.00041  22704655.56946  22704654.42048
 96 10 16 07 57 30.0000000  0  7 07 02 26 27 24 04 09
 -11128962.21449  -8671915.65047         0.00041  20648964.57347  20648962.76349
   2758940.09049   2149824.27746         0.00041  21833730.66046  21833729.51449
  -6735143.27448  -5248164.52646         0.00041  23307428.77246  23307426.46848
  17264374.63248  13452756.96245         0.00041  23569893.77345  23569892.40948
  -3960173.17048  -3085848.88544         0.00041  24369040.61444  24369038.52048
 -16635766.43449 -12962933.61546         0.00041  22013747.37546  22013746.22649
 -11078288.83948  -8632432.00146         0.00041  22688786.81946  22688785.63348
 96 10 16 07 58 00.0000000  0  7 07 02 26 27 24 04 09
 -11087161.48549  -8639343.65547         0.00041  20656918.98747  20656917.18449
   2797026.50849   2179501.99146         0.00041  21840978.35846  21840976.89049
  -6675303.23748  -5201535.92546         0.00041  23318815.56946  23318813.69148
  17376310.96448  13539980.07145         0.00041  23591194.59845  23591193.32548
  -4068096.09848  -3169944.69344         0.00041  24348503.23144  24348501.63148
 -16718001.66349 -13027013.00646         0.00041  21998098.28946  21998097.24749
 -11161413.81248  -8697204.70446         0.00041  22672968.92546  22672967.61148
 96 10 16 07 58 30.0000000  0  7 07 02 26 27 24 04 09
 -11045049.41849  -8606529.06047         0.00041  20664932.55047  20664930.85949
   2835327.72249   2209347.07746         0.00041  21848266.94446  21848265.41149
  -6615131.25648  -5154648.67646         0.00041  23330266.05746  23330264.18348
  17488452.25248  13627362.89145         0.00041  23612535.07345  23612533.54448
  -4175996.41748  -3254022.86644         0.00041  24327970.88644  24327968.87548
 -16799876.94649 -13090811.92046         0.00041  21982518.28846  21982517.09249
 -11244250.59548  -8761752.84646         0.00041  22657205.39646  22657204.36048
 96 10 16 07 59 00.0000000  0  7 07 02 26 27 24 04 09
 -11002621.72349  -8573468.52147         0.00041  20673006.32047  20673004.59549
   2873865.28049   2239376.33346         0.00041  21855600.46246  21855599.03749
  -6554631.39748  -5107505.94446         0.00041  23341778.52246  23341776.96448
  17600807.56148  13714912.48245         0.00041  23633915.40945  23633914.09348
  -4283872.96548  -3338082.54144         0.00041  24307442.79744  24307440.93148
 -16881376.61849 -13154318.14646         0.00041  21967009.35346  21967008.06249
 -11326774.11648  -8826056.88446         0.00041  22641502.31346  22641500.60148
 96 10 16 07 59 30.0000000  0  7 07 02 26 27 24 04 09
 -10959886.99249  -8540168.73647         0.00041  20681138.52747  20681136.73449
   2912637.19949   2269588.21146         0.00041  21862978.47746  21862977.05149
  -6493835.23448  -5060132.32046         0.00041  23353347.71646  23353346.44148
  17713359.76148  13802615.47745         0.00041  23655332.84845  23655331.81448
  -4391742.18748  -3422136.47544         0.00041  24286916.83944  24286913.89848
 -16962511.24749 -13217539.92746         0.00041  21951569.78146  21951568.56049
 -11408985.88648  -8890117.99746         0.00041  22625857.41546  22625856.15348
 96 10 16 08 00 00.0000000  0  7 07 02 26 27 24 04 09
 -10916829.07849  -8506617.11847         0.00041  20689332.47347  20689330.48149
   2951654.99749   2299991.68446         0.00041  21870403.11746  21870401.73449
  -6432740.94148  -5012526.38346         0.00041  23364972.92246  23364971.95148
  17826116.99448  13890478.26145         0.00041  23676790.22945  23676788.49448
  -4499575.21948  -3506162.24244         0.00041  24266396.07044  24266394.04848
 -17043273.64249 -13280471.65246         0.00041  21936201.35246  21936200.25049
 -11490855.88648  -8953912.80046         0.00041  22610277.94946  22610276.88948
 96 10 16 08 00 30.0000000  0  7 07 02 26 27 24 04 09
 -10873455.13249  -8472819.23847         0.00041  20697586.26747  20697584.32649
   2990903.30349   2330574.77946         0.00041  21877871.95746  21877870.58349
  -6371372.08248  -4964706.50846         0.00041  23376651.58546  23376650.04648
  17939063.42648  13978488.45645         0.00041  23698283.76045  23698281.58748
  -4607388.47948  -3590172.59444         0.00041  24245879.54544  24245877.50348
 -17123680.45449 -13343126.30246         0.00041  21920900.56346  21920899.29749
 -11572399.43048  -9017453.21746         0.00041  22594760.89346  22594759.34748
 96 10 16 08 01 00.0000000  0  8 07 02 26 27 05 24 04 09
 -10829800.72849  -8438802.81747         0.00041  20705893.42347  20705891.29349
   3030339.57549   2361304.32646         0.00041  21885376.53046  21885374.95849
  -6309763.36948  -4916699.71646         0.00041  23388374.91446  23388373.66048
  18052179.00448  14066630.45945         0.00041  23719808.18245  23719806.70148
        -0.15957        -0.12454         0.00051  24677688.37854  24677688.37857
  -4715229.36848  -3674204.46644         0.00041  24225357.58144  24225356.59548
 -17203753.52549 -13405520.89146         0.00041  21905662.85046  21905661.68149
 -11653671.95248  -9080782.45046         0.00041  22579295.44646  22579293.82748
 96 10 16 08 01 30.0000000  0  8 07 02 26 27 05 24 04 09
 -10785854.40949  -8404558.92947         0.00041  20714256.02247  20714253.97049
   3069965.26549   2392181.47146         0.00041  21892917.27046  21892915.71349
  -6247893.83848  -4868489.69746         0.00041  23400149.00246  23400147.06348
  18165474.96148  14154913.02945         0.00041  23741368.72945  23741366.14548
    -78411.82447    -61100.12344         0.00041  24662766.90944  24662766.90947
  -4823082.25148  -3758245.67544         0.00041  24204834.57444  24204832.87048
 -17283481.29449 -13467646.41146         0.00041  21890491.62646  21890490.26449
 -11734664.83448  -9143893.78646         0.00041  22563882.93546  22563881.39648
 96 10 16 08 02 00.0000000  0  8 07 02 26 27 05 24 04 09
 -10741625.05549  -8370094.49447         0.00041  20722672.47547  20722670.60749
   3109780.12549   2423206.02846         0.00041  21900493.71146  21900492.12649
  -6185757.85548  -4820072.04546         0.00041  23411972.90646  23411971.04848
  18278935.77348  14243324.04245         0.00041  23762958.07945  23762956.58748
   -156856.61547   -122225.93444         0.00041  24647838.33044  24647838.33047
  -4930957.77648  -3842304.53544         0.00041  24184307.20344  24184304.77148
 -17362871.01849 -13529508.52446         0.00041  21875383.84346  21875382.82349
 -11815377.52748  -9206786.79046         0.00041  22548523.94746  22548522.32048
 96 10 16 08 02 30.0000000  0  7 07 02 26 27 24 04 09
 -10697123.11549  -8335417.65747         0.00041  20731140.91147  20731139.19649
   3149789.72449   2454382.32346         0.00041  21908107.15746  21908105.65549
  -6123359.71148  -4771450.12845         0.00041  23423847.07545  23423844.94848
  18392559.63348  14331862.11245         0.00041  23784581.18545  23784578.59448
  -5038873.38248  -3926394.59744         0.00041  24163771.46044  24163768.60148
 -17441918.09649 -13591103.64246         0.00041  21860341.54446  21860340.58849
 -11895819.28048  -9269468.67646         0.00041  22533216.48946  22533214.76248
 96 10 16 08 03 00.0000000  0  7 07 02 26 27 24 04 09
 -10652384.08849  -8300556.07647         0.00041  20739654.49447  20739652.79149
   3189978.84049   2485698.50746         0.00041  21915754.88446  21915753.15549
  -6060725.19948  -4722644.02045         0.00041  23435765.33145  23435763.68148
  18506325.54248  14420510.84945         0.00041  23806229.71745  23806227.56048
  -5146832.04048  -4010518.22144         0.00041  24143228.36544  24143224.32348
 -17520627.07049 -13652435.30246         0.00041  21845363.93846  21845362.73549
 -11976003.55648  -9331949.93146         0.00041  22517957.25446  22517956.05748
 96 10 16 08 03 30.0000000  0  7 07 02 26 27 24 04 09
 -10607384.10449  -8265491.15547         0.00041  20748217.57647  20748215.93549
   3230380.33749   2517180.18346         0.00041  21923442.91746  21923441.40149
  -5997842.47948  -4673644.51545         0.00041  23447730.84645  23447730.27348
  18620237.05948  14509273.08245         0.00041  23827907.67445  23827904.33948
  -5254798.72748  -4094648.12544         0.00041  24122680.87644  24122679.26548
 -17598978.82649 -13713488.60846         0.00041  21830454.06846  21830452.97349
 -12055892.64648  -9394201.16646         0.00041  22502754.80346  22502753.40548
 96 10 16 08 04 00.0000000  0  7 07 02 26 27 24 04 09
 -10562130.94149  -8230228.95547         0.00041  20756828.76747  20756827.33349
   3271002.14649   2548833.52746         0.00041  21931173.15846  21931171.52549
  -5934721.90048  -4624459.64845         0.00041  23459743.45645  23459741.69348
  18734277.75048  14598135.96344         0.00041  23849607.85444  23849605.86848
  -5362787.64048  -4178795.32144         0.00041  24102131.11344  24102129.53848
 -17676970.80449 -13774261.57046         0.00041  21815612.66946  21815611.53949
 -12135496.64149  -9456230.25046         0.00041  22487607.00046  22487605.66349
 96 10 16 08 04 30.0000000  0  7 07 02 26 27 24 04 09
 -10516621.46849  -8194767.03147         0.00041  20765489.16947  20765487.50649
   3311836.60849   2580652.58146         0.00041  21938943.82146  21938942.11749
  -5871361.04948  -4575087.56545         0.00041  23471800.21845  23471798.93648
  18848456.13448  14687106.13344         0.00041  23871334.83744  23871332.75648
  -5470779.78048  -4262945.05044         0.00041  24081579.65844  24081579.11248
 -17754586.33349 -13834741.19546         0.00041  21800842.81346  21800841.84149
 -12214814.55249  -9518036.41146         0.00041  22472514.14046  22472512.03049
 96 10 16 08 05 00.0000000  0  7 07 02 26 27 24 04 09
 -10472358.59949  -8160276.48447         0.00041  20773912.41647  20773910.48149
   3351361.51049   2611451.19546         0.00041  21946465.43846  21946463.55049
  -5809273.60548  -4526707.74245         0.00041  23483615.26145  23483613.80048
  18961251.60648  14774998.72644         0.00041  23892798.75344  23892796.87748
  -5580268.87848  -4348261.23944         0.00041  24060747.43744  24060744.15348
 -17833342.72749 -13896109.80246         0.00041  21785855.96946  21785855.06349
 -12295356.43549  -9580796.31546         0.00041  22457187.03146  22457185.60149
 96 10 16 08 05 30.0000000  0  7 07 02 26 27 24 04 09
 -10428896.34849  -8126409.79347         0.00041  20782183.09647  20782181.01049
   3390005.22349   2641563.17346         0.00041  21953818.91146  21953817.13649
  -5748028.34148  -4478984.17345         0.00041  23495270.62445  23495268.44448
  19073105.04648  14862157.24444         0.00041  23914084.65244  23914081.80648
  -5690814.12148  -4434400.39744         0.00041  24039710.30744  24039708.43348
 -17912806.10949 -13958029.31146         0.00041  21770734.60046  21770733.54049
 -12376680.69249  -9644165.86246         0.00041  22441710.95046  22441709.96949
 96 10 16 08 06 00.0000000  0  8 07 02 26 27 05 24 04 09
 -10384992.11949  -8092198.70547         0.00041  20790537.85947  20790535.74049
   3429003.65449   2671951.55146         0.00041  21961240.11546  21961238.31049
  -5686376.75348  -4430943.97945         0.00041  23507002.55545  23507000.49948
  19185270.45248  14949558.87444         0.00041  23935427.58244  23935426.43248
        -0.33757        -0.26254         0.00051  24526869.40054  24526869.40057
  -5801144.03148  -4520371.74844         0.00041  24018715.45244  24018713.03448
 -17991709.19249 -14019512.22046         0.00041  21755719.91546  21755718.76049
 -12457540.85949  -9707173.78146         0.00041  22426323.76946  22426322.92049
 96 10 16 08 06 30.0000000  0  8 07 02 26 27 05 24 04 09
 -10340328.84949  -8057396.15547         0.00041  20799037.04647  20799034.86749
   3468664.01549   2702855.71746         0.00041  21968786.98446  21968785.50649
  -5624013.30848  -4382349.10645         0.00041  23518869.84345  23518868.11748
  19298067.21748  15037452.46244         0.00041  23956894.07544  23956890.95548
    -81498.15447    -63505.05544         0.00041  24511502.31344  24511502.31347
  -5910918.20148  -4605910.04744         0.00041  23997825.63344  23997823.83448
 -18069728.33049 -14080306.33846         0.00041  21740873.07646  21740872.17949
 -12537606.85249  -9769562.86646         0.00041  22411087.89446  22411086.78849
 96 10 16 08 07 00.0000000  0  7 07 02 26 27 24 04 09
 -10295275.38549  -8022289.55547         0.00041  20807610.31747  20807608.18849
   3508630.87049   2733998.70946         0.00041  21976392.33346  21976391.15149
  -5561317.03548  -4333494.87745         0.00041  23530799.69545  23530798.83748
  19411109.90548  15125537.67144         0.00041  23978403.97144  23978401.98648
  -6020527.61448  -4691319.99644         0.00041  23976967.12344  23976965.75048
 -18147236.60349 -14140702.38446         0.00041  21726123.58146  21726122.96849
 -12617249.88349  -9831622.36646         0.00041  22395932.66846  22395931.22749
 96 10 16 08 07 30.0000000  0  7 07 02 26 27 24 04 09
 -10249441.20349  -7986574.60447         0.00041  20816332.09947  20816330.18049
   3549317.28749   2765702.39146         0.00041  21984135.08346  21984133.39249
  -5497887.90448  -4284069.58845         0.00041  23542869.37945  23542868.93448
  19524787.44948  15214117.54244         0.00041  24000036.95144  24000034.05748
  -6129580.86848  -4776296.55344         0.00041  23956215.10944  23956213.65348
 -18223813.65849 -14200372.80246         0.00041  21711551.61946  21711550.95349
 -12696066.71149  -9893038.07546         0.00041  22380933.95246  22380932.92049
 96 10 16 08 08 00.0000000  0  8 07 02 26 27 05 24 04 09
 -10203082.32549  -7950450.79947         0.00041  20825153.81847  20825151.93949
   3590482.75349   2797779.36146         0.00041  21991968.70746  21991966.99849
  -5433962.39448  -4234257.51645         0.00041  23555034.80545  23555033.59548
  19638841.01448  15302990.44944         0.00041  24021739.30844  24021738.18948
        -0.59458        -0.46354         0.00051  24465701.68354  24465701.68358
  -6238336.75148  -4861041.40345         0.00041  23935521.12445  23935518.07948
 -18299701.48349 -14259506.16246         0.00041  21697110.57646  21697110.04749
 -12774310.98649  -9954007.63446         0.00041  22366044.84346  22366043.50549
 96 10 16 08 08 30.0000000  0  8 07 02 26 27 05 24 04 09
 -10156260.43749  -7913966.20947         0.00041  20834063.73947  20834061.93049
   3632072.79349   2830187.17046         0.00041  21999882.96246  21999881.30349
  -5369609.92648  -4184112.74445         0.00041  23567280.67445  23567279.65548
  19753202.47448  15392103.24944         0.00041  24043502.11544  24043500.32948
    -79700.77548    -62103.73744         0.00041  24450535.21744  24450535.21748
  -6346889.76948  -4945628.14545         0.00041  23914863.98045  23914861.15848
 -18374982.72649 -14318166.85946         0.00041  21682785.06146  21682784.34549
 -12852046.62649 -10014580.85646         0.00041  22351251.79846  22351250.90949
 96 10 16 08 09 00.0000000  0  8 07 02 26 27 05 24 04 09
 -10108941.35349  -7877094.19647         0.00041  20843068.28747  20843066.52749
   3674132.60549   2862961.02946         0.00041  22007886.33046  22007884.94949
  -5304787.45148  -4133601.72345         0.00041  23579616.10645  23579614.70048
  19867917.64448  15481491.72144         0.00041  24065331.25744  24065329.96448
   -159167.45148   -124025.78944         0.00041  24435412.92444  24435412.92448
  -6455194.60048  -5030021.50645         0.00041  23894254.64645  23894251.43248
 -18449625.07949 -14376329.71846         0.00041  21668581.22946  21668580.37449
 -12929240.70749 -10074732.09246         0.00041  22336561.86446  22336561.17649
 96 10 16 08 09 30.0000000  0  8 07 02 26 27 05 24 04 09
 -10061174.93449  -7839873.61247         0.00041  20852157.86947  20852156.20049
   3716622.29649   2896069.86946         0.00041  22015971.76246  22015970.56449
  -5239519.16248  -4082743.33145         0.00041  23592035.56545  23592034.77648
  19982969.89548  15571142.82944         0.00041  24087223.91244  24087223.33948
   -238439.89048   -185796.55644         0.00041  24420327.93744  24420327.63348
  -6563253.18148  -5114222.98845         0.00041  23873690.36645  23873688.59348
 -18523657.59049 -14434017.37746         0.00041  21654493.24246  21654492.52449
 -13005914.74549 -10134478.09646         0.00041  22321971.75846  22321970.77149
 96 10 16 08 10 00.0000000  0  8 07 02 26 27 05 24 04 09
 -10012982.86349  -7802321.35147         0.00041  20861328.51447  20861326.93549
   3759500.81649   2929481.69146         0.00041  22024131.62046  22024129.92249
  -5173838.17748  -4031563.34945         0.00041  23604534.61445  23604533.39448
  20098347.08748  15661047.12344         0.00041  24109181.99644  24109178.63248
   -317546.18548   -247437.78844         0.00041  24405277.68944  24405274.46048
  -6671083.46148  -5198246.56545         0.00041  23853171.83145  23853169.22648
 -18597127.31449 -14491266.50546         0.00041  21640512.65646  21640511.67449
 -13082085.41949 -10193831.86446         0.00041  22307476.90446  22307476.09449
 96 10 16 08 10 30.0000000  0  8 07 02 26 27 05 24 04 09
  -9964410.32049  -7764472.61847         0.00041  20870571.63047  20870569.92749
   3802725.47149   2963163.23046         0.00041  22032356.81946  22032355.09449
  -5107796.70448  -3980102.48445         0.00041  23617102.21945  23617101.26448
  20214002.20448  15751168.03644         0.00041  24131190.99544  24131187.36548
   -396539.05547   -308990.70044         0.00041  24390241.79444  24390241.79447
  -6778714.84748  -5282115.15645         0.00041  23832690.03645  23832688.08948
 -18670077.04049 -14548110.43446         0.00041  21626630.72646  21626629.76549
 -13157780.14149 -10252814.75546         0.00041  22293072.61646  22293071.70649
 96 10 16 08 11 00.0000000  0  8 07 02 26 27 05 24 04 09
  -9915446.07249  -7726318.66147         0.00041  20879889.12847  20879887.32449
   3846310.42849   2997125.52646         0.00041  22040651.01846  22040649.07149
  -5041372.81548  -3928343.61645         0.00041  23629742.17845  23629740.94148
  20329943.33448  15841511.74944         0.00041  24153253.69644  24153250.66148
   -475410.56147   -370449.05344         0.00041  24375237.29544  24375233.20447
  -6886115.90648  -5365804.28645         0.00041  23812253.28245  23812250.15848
 -18742479.02549 -14604527.55246         0.00041  21612852.90446  21612852.25749
 -13232975.99249 -10311408.91946         0.00041  22278763.27046  22278762.59049
 96 10 16 08 11 30.0000000  0  8 07 02 26 27 05 24 04 09
  -9865559.07449  -7687445.67347         0.00041  20889382.52347  20889380.56349
   3890781.57349   3031778.35946         0.00041  22049113.93646  22049111.76849
  -4974046.30548  -3875881.42246         0.00041  23642554.76246  23642552.92848
  20446684.35848  15932478.77444         0.00041  24175468.62544  24175466.12848
   -553642.95148   -431409.34544         0.00041  24360345.89744  24360345.89748
  -6992775.71048  -5448915.82145         0.00041  23791956.79145  23791953.61148
 -18813801.47549 -14660103.47646         0.00041  21599280.73946  21599279.85849
 -13307138.04949 -10369197.53346         0.00041  22264650.85646  22264649.82949
 96 10 16 08 12 00.0000000  0  8 07 02 26 27 05 24 04 09
  -9814963.37049  -7648020.45147         0.00041  20899010.63247  20899008.70749
   3935910.14949   3066943.47646         0.00041  22057701.11946  22057699.60749
  -4906056.62548  -3822902.47346         0.00041  23655492.57446  23655491.01948
  20563984.09848  16023881.18044         0.00041  24197790.10744  24197787.20948
   -631459.49648   -492045.56444         0.00041  24345538.85244  24345538.85248
  -7098940.55148  -5531641.66545         0.00041  23771752.96745  23771750.89848
 -18884267.09149 -14715011.73546         0.00041  21585871.38046  21585870.62049
 -13380498.65449 -10426361.63846         0.00041  22250691.09646  22250689.96649
 96 10 16 08 12 30.0000000  0  8 07 02 26 27 05 24 04 09
  -9763665.94549  -7608048.42947         0.00041  20908772.13047  20908770.30949
   3981709.84049   3102631.53846         0.00041  22066416.72146  22066415.09349
  -4837402.70548  -3769405.92545         0.00041  23668556.68145  23668555.23148
  20681826.91148  16115706.75044         0.00041  24220215.19644  24220211.99548
   -708861.96948   -552359.16844         0.00041  24330811.08944  24330809.82148
  -7204617.18048  -5613987.08345         0.00041  23751644.57645  23751641.36348
 -18953852.51549 -14769234.13146         0.00041  21572629.80846  21572628.95949
 -13453064.92349 -10482906.78146         0.00041  22236882.25346  22236880.85449
 96 10 16 08 13 00.0000000  0  8 07 02 26 27 05 24 04 09
  -9711569.76149  -7567454.00047         0.00041  20918685.53647  20918683.62749
   4028274.71449   3138915.84446         0.00041  22075277.53246  22075275.92949
  -4768001.66048  -3715327.20346         0.00041  23681763.57346  23681761.56848
  20800314.58048  16208034.79344         0.00041  24242761.57744  24242759.01548
   -785755.19448   -612275.93944         0.00041  24316183.44644  24316177.38548
  -7309714.96648  -5695881.44745         0.00041  23731643.86445  23731641.97248
 -19022464.40749 -14822697.93246         0.00041  21559573.47746  21559572.51749
 -13524755.15249 -10538769.29546         0.00041  22223239.79246  22223238.57449
 96 10 16 08 13 30.0000000  0  8 07 02 26 27 05 24 04 09
  -9658785.56649  -7526323.45947         0.00041  20928730.14847  20928728.33449
   4075491.58149   3175708.20246         0.00041  22084262.38446  22084261.06049
  -4697973.52348  -3660759.82646         0.00041  23695090.00146  23695087.54648
  20919346.99948  16300787.33344         0.00041  24265410.43444  24265410.22048
   -862226.10348   -671863.60744         0.00041  24301628.98344  24301626.19348
  -7414339.98648  -5777407.41545         0.00041  23711735.66345  23711732.61648
 -19090209.78149 -14875486.52546         0.00041  21546682.05946  21546681.01849
 -13595676.59149 -10594032.75146         0.00041  22209744.32546  22209742.66849
 96 10 16 08 14 00.0000000  0  8 07 02 26 27 05 24 04 09
  -9605901.82149  -7485115.34847         0.00041  20938793.65947  20938791.66549
   4122779.56549   3212555.97546         0.00041  22093261.30746  22093259.87749
  -4627904.57448  -3606160.65546         0.00041  23708423.74546  23708421.19848
  21038340.66148  16393509.66544         0.00041  24288053.57644  24288053.42748
   -938835.02648   -731558.86344         0.00041  24287051.58744  24287048.34948
  -7519066.59248  -5859012.55045         0.00041  23691806.74145  23691803.76948
 -19157659.81249 -14928044.98246         0.00041  21533846.76446  21533845.72549
 -13666399.97349 -10649141.87846         0.00041  22196286.02646  22196284.40049
 96 10 16 08 14 30.0000000  0  8 07 02 26 27 05 24 04 09
  -9553313.50949  -7444137.44347         0.00041  20948800.86647  20948799.02749
   4169748.33249   3249155.00346         0.00041  22102199.11146  22102197.81949
  -4558190.31448  -3551837.86446         0.00041  23721690.25046  23721687.74748
  21156898.73048  16485892.60144         0.00041  24310618.84744  24310614.29848
  -1015980.50848   -791672.18844         0.00041  24272368.35044  24272368.39648
  -7624264.88648  -5940985.22445         0.00041  23671787.09945  23671785.22548
 -19225221.15349 -14980690.17146         0.00041  21520990.23246  21520989.17849
 -13737315.75849 -10704400.93346         0.00041  22182791.44146  22182789.86649
 96 10 16 08 15 00.0000000  0  8 07 02 26 27 05 24 04 09
  -9501044.91149  -7403408.66747         0.00041  20958747.04747  20958745.36649
   4216368.58049   3285482.45646         0.00041  22111070.43146  22111069.25449
  -4488851.44448  -3497807.58746         0.00041  23734884.19646  23734882.74448
  21275010.52748  16577927.75544         0.00041  24333092.55844  24333090.40648
  -1093676.43648   -852214.42644         0.00041  24257585.12944  24257583.39148
  -7729933.46348  -6023324.36045         0.00041  23651679.85845  23651676.77648
 -19292930.66249 -15033450.81646         0.00041  21508105.71146  21508104.59749
 -13808434.17649 -10759817.88346         0.00041  22169257.51446  22169256.35149
 96 10 16 08 15 30.0000000  0  8 07 02 26 27 05 24 04 09
  -9448946.05949  -7362812.16447         0.00041  20968661.10247  20968659.55349
   4262794.32849   3321658.35146         0.00041  22119905.30346  22119903.92249
  -4419711.73248  -3443932.50645         0.00041  23748040.98145  23748039.45648
  21392824.51348  16669730.85244         0.00041  24355510.02844  24355509.98748
  -1171760.74348   -913059.36944         0.00041  24242726.57844  24242724.37948
  -7835905.25948  -6105899.77245         0.00041  23631514.47845  23631511.27348
 -19360616.65749 -15086193.14346         0.00041  21495225.36446  21495224.17849
 -13879587.30749 -10815261.88346         0.00041  22155717.42846  22155716.11149
 96 10 16 08 16 00.0000000  0  8 07 02 26 27 05 24 04 09
  -9396795.96349  -7322175.72847         0.00041  20978584.92047  20978583.33049
   4309241.40049   3357850.86246         0.00041  22128743.68946  22128742.39049
  -4350555.89248  -3390044.84745         0.00041  23761201.13845  23761199.30748
  21510546.35248  16761462.16644         0.00041  24377913.37144  24377911.98748
  -1250041.07748   -974057.03444         0.00041  24227830.63844  24227827.90048
  -7941963.27448  -6188542.38045         0.00041  23611332.35345  23611328.90648
 -19428073.45649 -15138756.87246         0.00041  21482388.66046  21482387.36549
 -13950567.73849 -10870571.30646         0.00041  22142210.41946  22142209.03449
 96 10 16 08 16 30.0000000  0  8 07 02 26 27 05 24 04 09
  -9344525.17349  -7281445.24547         0.00041  20988531.57047  20988530.07049
   4355786.28749   3394119.59646         0.00041  22137601.06946  22137599.51549
  -4281298.81248  -3336078.28445         0.00041  23774379.98745  23774378.35948
  21628250.93148  16853180.00344         0.00041  24400313.45544  24400310.63448
  -1328464.08348  -1035165.83944         0.00041  24212907.37444  24212904.73148
  -8048027.29548  -6271189.67445         0.00041  23591147.44845  23591145.33548
 -19495228.80549 -15191085.70546         0.00041  21469609.32546  21469608.38449
 -14021319.16849 -10925702.29246         0.00041  22128746.89446  22128745.50449
 96 10 16 08 17 00.0000000  0  8 07 02 26 27 05 24 04 09
  -9292175.47149  -7240653.27447         0.00041  20998493.44847  20998491.79149
   4402405.78849   3430446.47446         0.00041  22146472.62046  22146470.97149
  -4211969.16248  -3282055.18245         0.00041  23787572.44245  23787571.28748
  21745914.16848  16944865.63944         0.00041  24422705.06044  24422701.38548
  -1407045.90448  -1096398.42844         0.00041  24197952.69944  24197951.52548
  -8154140.37048  -6353875.17445         0.00041  23570955.44545  23570952.95748
 -19562081.00749 -15243178.31846         0.00041  21456887.71046  21456886.82349
 -14091858.34349 -10980667.88246         0.00041  22115323.80846  22115322.48949
 96 10 16 08 17 30.0000000  0  8 07 02 26 27 05 24 04 09
  -9239803.65449  -7199844.06947         0.00041  21008459.59047  21008457.76249
   4449049.23649   3466792.00646         0.00041  22155348.37046  22155346.87049
  -4142638.64248  -3228031.39945         0.00041  23800765.33945  23800764.24448
  21863461.00248  17036460.58244         0.00041  24445071.87244  24445070.07748
  -1485847.83348  -1157802.53644         0.00041  24182957.31844  24182955.99348
  -8260375.75948  -6436655.98145         0.00041  23550739.00845  23550736.83548
 -19628667.68149 -15295064.02646         0.00041  21444216.42246  21444215.87049
 -14162239.51049 -11035510.34546         0.00041  22101930.44046  22101929.13349
 96 10 16 08 18 00.0000000  0  8 07 02 26 27 05 24 04 09
  -9187275.49749  -7158913.03947         0.00041  21018455.34847  21018453.43449
   4495853.15349   3503262.57546         0.00041  22164254.99446  22164253.48149
  -4073198.29248  -3173922.04345         0.00041  23813979.07645  23813978.39048
  21981009.87848  17128057.11144         0.00041  24467439.49344  24467437.71448
  -1564745.87248  -1219281.50444         0.00041  24167942.55544  24167942.06948
  -8366606.70648  -6519433.33345         0.00041  23530525.92945  23530522.10448
 -19694859.04649 -15346641.69846         0.00041  21431620.73246  21431620.14749
 -14232326.39149 -11090123.50246         0.00041  22088593.31846  22088592.12149
 96 10 16 08 18 30.0000000  0  8 07 02 26 27 05 24 04 09
  -9134524.26449  -7117808.18347         0.00041  21028493.63747  21028491.77749
   4542901.46749   3539923.58046         0.00041  22173207.70446  22173206.43449
  -4003575.25248  -3119670.33945         0.00041  23827229.21245  23827227.46048
  22098636.98948  17219714.58944         0.00041  24489824.01644  24489821.30248
  -1643646.59248  -1280762.56844         0.00041  24152929.17544  24152927.46748
  -8472746.30148  -6602139.49845         0.00041  23510327.85445  23510324.35148
 -19760547.98249 -15397827.87046         0.00041  21419120.57246  21419119.78449
 -14302023.07249 -11144432.59846         0.00041  22075330.77946  22075329.27249
 96 10 16 08 19 00.0000000  0  8 07 02 26 27 05 24 04 09
  -9081599.31149  -7076567.95947         0.00041  21038564.90647  21038562.91349
   4590124.07349   3576720.39946         0.00041  22182193.82246  22182192.69949
  -3933853.83848  -3065341.98045         0.00041  23840495.65245  23840494.81648
  22216272.06048  17311378.23144         0.00041  24512210.11344  24512206.93748
  -1722604.71748  -1342288.37044         0.00041  24137903.73444  24137902.10648
  -8578855.08048  -6684821.67245         0.00041  23490135.55345  23490132.54748
 -19825805.86549 -15448678.15546         0.00041  21406702.60246  21406701.57149
 -14371380.30149 -11198477.18546         0.00041  22062132.52046  22062130.99849
 96 10 16 08 19 30.0000000  0  8 07 02 26 27 05 24 04 09
  -9028474.12149  -7035171.70547         0.00041  21048674.37347  21048672.41249
   4637535.11349   3613664.05346         0.00041  22191215.92246  22191214.67849
  -3864025.88248  -3010930.57845         0.00041  23853784.03545  23853782.70748
  22333925.25048  17403056.03244         0.00041  24534597.88344  24534595.32648
  -1801610.32248  -1403851.15244         0.00041  24122869.92744  24122867.67148
  -8684910.80448  -6767462.48045         0.00041  23469954.21945  23469950.88748
 -19890635.88049 -15499195.04046         0.00041  21394365.52546  21394364.91449
 -14440395.50349 -11252255.25946         0.00041  22048999.15546  22048998.06349
 96 10 16 08 20 00.0000000  0  8 07 02 26 27 05 24 04 09
  -8975098.91649  -6993580.63547         0.00041  21058831.32047  21058829.37249
   4685182.97049   3650792.24846         0.00041  22200283.27846  22200281.71749
  -3794036.98548  -2956393.79345         0.00041  23867104.43145  23867101.21048
  22451657.31748  17494795.26144         0.00041  24557000.45144  24556999.41448
  -1880615.68748  -1465413.77844         0.00041  24107837.04444  24107833.28848
  -8790850.84648  -6850013.15945         0.00041  23449793.64845  23449791.11748
 -19955000.91849 -15549349.60246         0.00041  21382117.37246  21382116.61349
 -14509021.42849 -11305730.00646         0.00041  22035940.36746  22035939.08949
 96 10 16 08 20 30.0000000  0  8 07 02 26 27 05 24 04 09
  -8921467.01749  -6951789.54647         0.00041  21069036.97747  21069035.14449
   4733080.90049   3688115.30346         0.00041  22209398.03746  22209396.56949
  -3723867.55148  -2901716.31045         0.00041  23880455.01845  23880453.84948
  22569510.81148  17586629.11844         0.00041  24579428.61544  24579426.91648
  -1959604.05048  -1526963.13844         0.00041  24092802.39144  24092802.10548
  -8896646.16248  -6932451.06345         0.00041  23429661.03645  23429658.89148
 -20018884.03449 -15599128.64246         0.00041  21369960.71946  21369960.11949
 -14577241.69149 -11358888.65046         0.00041  22022958.73646  22022957.27449
 96 10 16 08 21 00.0000000  0  8 07 02 26 27 05 24 04 09
  -8867581.46349  -6909800.80347         0.00041  21079290.92247  21079289.26149
   4781221.82149   3725627.69546         0.00041  22218558.85046  22218557.35749
  -3653518.91548  -2846899.19145         0.00041  23893842.35145  23893840.89948
  22687502.15448  17678570.42144         0.00041  24601879.80044  24601879.82648
  -2038581.43648  -1588503.92744         0.00041  24077775.34344  24077773.21448
  -9002297.26848  -7014776.59845         0.00041  23409556.66245  23409554.05848
 -20082295.74249 -15648540.35446         0.00041  21357893.99046  21357893.21849
 -14645053.02649 -11411728.64746         0.00041  22010054.62146  22010052.97949
 96 10 16 08 21 30.0000000  0  8 07 02 26 27 05 24 04 09
  -8813479.03649  -6867643.07047         0.00041  21089586.37447  21089584.56549
   4829588.21549   3763315.78746         0.00041  22227763.05546  22227761.21649
  -3583011.61348  -2791958.43845         0.00041  23907259.35845  23907257.44148
  22805619.67248  17770610.05044         0.00041  24624361.61144  24624357.15748
  -2117566.69348  -1650050.86944         0.00041  24062745.81144  24062742.61448
  -9107823.27648  -7097004.65245         0.00041  23389474.71245  23389473.10148
 -20145234.91749 -15697583.85946         0.00041  21345916.97046  21345916.36249
 -14712473.43849 -11464264.03246         0.00041  21997224.74546  21997223.16749
 96 10 16 08 22 00.0000000  0  8 07 02 26 27 05 24 04 09
  -8759173.11649  -6825326.76947         0.00041  21099920.55947  21099918.76549
   4878171.33249   3801172.75446         0.00041  22237008.02146  22237006.33649
  -3512357.06248  -2736902.95245         0.00041  23920703.17245  23920702.87148
  22923852.18748  17862739.28744         0.00041  24646858.31944  24646855.96448
  -2196570.15748  -1711611.98444         0.00041  24047711.94244  24047708.75148
  -9213218.66348  -7179130.91945         0.00041  23369420.09045  23369417.35848
 -20207702.26349 -15746259.70546         0.00041  21334029.85446  21334029.14449
 -14779505.71249 -11516496.97346         0.00041  21984468.86646  21984467.34849
 96 10 16 08 22 30.0000000  0  8 07 02 26 27 05 24 04 09
  -8704658.64349  -6782847.96147         0.00041  21110294.31547  21110292.59849
   4926973.59249   3839200.47246         0.00041  22246294.09846  22246293.20949
  -3441569.22748  -2681743.61245         0.00041  23934174.94745  23934173.54048
  23042185.28648  17954946.85944         0.00041  24669371.29644  24669373.30848
  -2275585.31948  -1773182.26044         0.00041  24032675.82444  24032672.74948
  -9318487.29148  -7261158.40745         0.00041  23349388.08045  23349385.57648
 -20269694.63149 -15794565.43846         0.00041  21322233.00646  21322232.35749
 -14846160.06749 -11568435.43146         0.00041  21971784.90246  21971783.58449
 96 10 16 08 23 00.0000000  0  8 07 02 26 27 05 24 04 09
  -8649916.53149  -6740191.76947         0.00041  21120711.61847  21120709.62849
   4976014.25949   3877413.96046         0.00041  22255626.19946  22255625.30549
  -3370630.43148  -2626466.64445         0.00041  23947674.94045  23947672.72248
  23160596.40948  18047215.26244         0.00041  24691905.90944  24691905.90948
  -2354601.27548  -1834753.08244         0.00041  24017639.87244  24017636.07048
  -9423637.70548  -7343093.79246         0.00041  23329378.24646  23329376.06648
 -20331206.44349 -15842496.71247         0.00041  21310527.93047  21310527.08249
 -14912436.18949 -11620079.16346         0.00041  21959173.03946  21959171.45449
 96 10 16 08 23 30.0000000  0  8 07 02 26 27 05 24 04 09
  -8594956.03549  -6697365.40647         0.00041  21131170.14647  21131168.03549
   5025297.88449   3915816.76646         0.00041  22265004.67946  22265003.56349
  -3299539.18348  -2571070.89144         0.00041  23961202.81844  23961200.56248
  23279038.19348  18139507.58044         0.00041  24714443.88444  24714443.88448
  -2433629.19848  -1896333.24844         0.00041  24002601.87944  24002597.48248
  -9528682.01448  -7424946.49446         0.00041  23309389.05246  23309386.68448
 -20392258.96649 -15890070.09847         0.00041  21298910.14347  21298909.15849
 -14978368.86949 -11671455.27746         0.00041  21946626.11846  21946624.82849
 96 10 16 08 24 00.0000000  0  8 07 02 26 27 05 24 04 09
  -8539669.64249  -6654285.10147         0.00041  21141690.80247  21141688.68049
   5074950.32049   3954506.96246         0.00041  22274453.76046  22274452.29649
  -3228169.13548  -2515457.87044         0.00041  23974784.04344  23974782.32548
  23397607.85248  18231902.22244         0.00041  24737005.61844  24737005.61848
  -2512559.93848  -1957837.74644         0.00041  23987578.38244  23987577.70248
  -9633503.68148  -7506625.71445         0.00041  23289442.29145  23289439.87948
 -20452748.41449 -15937204.72247         0.00041  21287399.17747  21287398.34649
 -15043841.56649 -11722472.96046         0.00041  21934167.38046  21934165.90349
 96 10 16 08 24 30.0000000  0  8 07 02 26 27 05 24 04 09
  -8484149.15149  -6611022.38247         0.00041  21152255.96247  21152253.97649
   5124892.99049   3993423.32146         0.00041  22283956.88146  22283955.86449
  -3156587.28948  -2459679.81344         0.00041  23988405.78944  23988403.54948
  23516226.02947  18324331.97144         0.00041  24759578.87844  24759578.87847
  -2591472.64048  -2019328.12644         0.00041  23972562.24144  23972560.76748
  -9738197.63848  -7588205.42245         0.00041  23269519.96545  23269517.31348
 -20512731.99049 -15983945.15946         0.00041  21275984.40146  21275983.77349
 -15108908.26149 -11773174.27846         0.00041  21921785.40046  21921783.97449
 96 10 16 08 25 00.0000000  0  8 07 02 26 27 05 24 04 09
  -8428478.09649  -6567642.34147         0.00041  21162849.89947  21162847.79949
   5175057.97749   4032512.90146         0.00041  22293503.68746  22293501.96249
  -3084846.26548  -2403777.73044         0.00041  24002058.16044  24002055.07848
  23634839.80247  18416758.28744         0.00041  24782151.08244  24782151.08247
  -2670427.36448  -2080851.24744         0.00041  23957536.79944  23957536.57348
  -9842812.11448  -7669723.19346         0.00041  23249612.60446  23249609.70648
 -20572260.24149 -16030330.79947         0.00041  21264656.72747  21264656.03449
 -15173609.58249 -11823590.89246         0.00041  21909473.17446  21909471.80649
 96 10 16 08 25 30.0000000  0  8 07 02 26 27 05 24 04 09
  -8372628.01249  -6524122.80047         0.00041  21173477.96147  21173475.94249
   5225472.35849   4071796.81446         0.00041  22303097.32246  22303095.45949
  -3012939.77848  -2347746.71444         0.00041  24015740.55544  24015738.58548
  23753496.18047  18509217.80244         0.00041  24804729.60744  24804729.60747
  -2749380.03148  -2142372.79744         0.00041  23942517.49144  23942512.63048
  -9947276.90348  -7751124.32646         0.00041  23229732.86546  23229730.62848
 -20631290.45349 -16076328.35247         0.00041  21253423.54047  21253422.86849
 -15237888.08449 -11873678.03646         0.00041  21897241.30746  21897239.84149
 96 10 16 08 26 00.0000000  0  8 07 02 26 27 05 24 04 09
  -8316669.30649  -6480518.61647         0.00041  21184126.24247  21184124.36649
   5276038.07249   4111198.65446         0.00041  22312719.27446  22312717.86749
  -2940969.99048  -2291666.36244         0.00041  24029436.92044  24029434.64448
  23872136.83647  18601665.06744         0.00041  24827306.07644  24827306.07647
  -2828413.14948  -2203957.02844         0.00041  23927475.44444  23927473.07148
 -10051663.04348  -7832464.16645         0.00041  23209869.37645  23209866.49548
 -20689878.90149 -16121981.67647         0.00041  21242274.57547  21242273.97249
 -15301793.36149 -11923474.35446         0.00041  21885080.92946  21885079.35649
 96 10 16 08 26 30.0000000  0  8 07 02 26 27 05 24 04 09
  -8260666.62149  -6436880.16547         0.00041  21194783.24347  21194781.43449
   5326657.43649   4150642.30446         0.00041  22322351.67246  22322350.42949
  -2869026.03748  -2235606.12944         0.00041  24043125.68244  24043125.22248
  23990699.42847  18694048.86044         0.00041  24849868.71244  24849868.71247
  -2907597.03548  -2265658.73544         0.00041  23912404.36744  23912404.74748
 -10156035.85148  -7913793.61746         0.00041  23190007.79746  23190004.85648
 -20748094.25349 -16167344.27647         0.00041  21231196.60447  21231196.03649
 -15365408.60449 -11973044.67446         0.00041  21872975.15246  21872973.91249
 96 10 16 08 27 00.0000000  0  8 07 02 26 27 05 24 04 09
  -8204440.21249  -6393067.38247         0.00041  21205482.63147  21205480.82349
   5377496.77849   4190257.37246         0.00041  22332026.23546  22332024.67349
  -2796957.34148  -2179448.70044         0.00041  24056840.08344  24056839.69048
  24109349.15247  18786505.83344         0.00041  24872447.38344  24872447.38347
  -2986755.72248  -2327340.79544         0.00041  23897344.39244  23897341.58148
 -10260207.95148  -7994966.67046         0.00041  23170184.18846  23170181.24148
 -20805790.44049 -16212302.33647         0.00041  21220217.23747  21220216.59649
 -15428590.89549 -12022277.62846         0.00041  21860951.92646  21860950.82149
 96 10 16 08 27 30.0000000  0  8 07 02 26 27 05 24 04 09
  -8148149.63449  -6349204.59847         0.00041  21216194.47347  21216192.57549
   5428390.04649   4229914.45046         0.00041  22341710.83946  22341709.42249
  -2724939.91848  -2123331.22744         0.00041  24070545.68444  24070543.60948
  24227909.98647  18878890.89844         0.00041  24895009.78644  24895009.78647
  -3066069.31448  -2389143.57544         0.00041  23882251.70644  23882248.97448
 -10364370.24748  -8076132.08445         0.00041  23150362.93245  23150359.97448
 -20863129.60049 -16256982.18947         0.00041  21209306.13047  21209305.44549
 -15491514.10749 -12071308.70246         0.00041  21848978.02546  21848976.84849
 96 10 16 08 28 00.0000000  0  8 07 02 26 27 05 24 04 09
  -8091504.73049  -6305065.71047         0.00041  21226973.77847  21226971.80749
   5479637.38648   4269847.42646         0.00041  22351463.48946  22351461.27848
  -2652664.06948  -2067012.38544         0.00041  24084299.65844  24084296.50948
  24346682.74147  18971441.09744         0.00041  24917610.84744  24917610.84747
  -3145240.02748  -2450835.02944         0.00041  23867182.64544  23867183.13848
 -10468248.69848  -8157076.32146         0.00041  23130594.68746  23130592.43548
 -20919810.04449 -16301148.76047         0.00041  21198520.33947  21198519.57149
 -15553886.09749 -12119910.25946         0.00041  21837108.73446  21837107.88349
 96 10 16 08 28 30.0000000  0  8 07 02 26 27 05 24 04 09
  -8034663.78149  -6260774.05947         0.00041  21237790.29347  21237788.32249
   5531114.73549   4309959.63146         0.00041  22361258.87846  22361257.28449
  -2580276.45148  -2010606.44344         0.00041  24098074.52444  24098071.34048
  24465515.92447  19064038.38244         0.00041  24940223.63044  24940223.63047
  -3224402.89748  -2512520.36144         0.00041  23852120.19644  23852118.69448
 -10571990.75548  -8237914.27845         0.00041  23110854.17645  23110851.33848
 -20975991.25049 -16344926.31447         0.00041  21187829.15647  21187828.44649
 -15615848.57749 -12168192.71046         0.00041  21825318.15946  21825316.72649
 96 10 16 08 29 00.0000000  0  8 07 02 26 27 05 24 04 09
  -7977485.96849  -6216219.92247         0.00041  21248670.95047  21248668.91449
   5582978.53748   4350372.97446         0.00041  22371127.88746  22371126.39548
  -2507647.37448  -1954012.39244         0.00041  24111894.08544  24111892.04248
  24584536.80547  19156781.92644         0.00041  24962872.25844  24962872.25847
  -3303422.71048  -2574094.21544         0.00041  23837082.77844  23837081.83548
 -10675463.73648  -8318542.58045         0.00041  23091162.90945  23091161.11148
 -21031534.10149 -16388206.44747         0.00041  21177259.85647  21177259.00149
 -15677247.16949 -12216035.76846         0.00041  21813633.96346  21813632.97349
 96 10 16 08 29 30.0000000  0  7 07 02 26 05 24 04 09
  -7919864.36449  -6171319.96947         0.00041  21259635.86347  21259634.01449
   5635339.21749   4391173.47246         0.00041  22381092.58746  22381090.48249
  -2434668.50448  -1897145.72144         0.00041  24125785.35544  24125779.55448
  -3382193.97848  -2635474.41544         0.00041  23822094.38944  23822091.62148
 -10778560.14948  -8398877.43946         0.00041  23071545.83446  23071542.67148
 -21086319.74049 -16430896.54447         0.00041  21166834.58147  21166833.59749
 -15737951.64149 -12263337.95946         0.00041  21802082.58446  21802081.27549
 96 10 16 08 30 00.0000000  0  7 07 02 26 05 24 04 09
  -7861714.27849  -6126008.21847         0.00041  21270701.30647  21270699.46649
   5688280.41749   4432426.32746         0.00041  22391166.31546  22391164.91449
  -2361259.76048  -1839944.16244         0.00041  24139749.16644  24139749.09048
  -3460633.05748  -2696595.75944         0.00041  23807166.26644  23807165.42248
 -10881165.90748  -8478829.96545         0.00041  23052019.40645  23052017.28448
 -21140281.39449 -16472944.57347         0.00041  21156565.89447  21156565.03349
 -15797884.62249 -12310038.98446         0.00041  21790677.43846  21790676.33849
 96 10 16 08 30 30.0000000  0  7 07 02 26 05 24 04 09
  -7803820.89049  -6080896.48947         0.00041  21281717.86947  21281716.41749
   5741009.49849   4473513.89946         0.00041  22401200.10246  22401198.99349
  -2288202.71348  -1783016.56844         0.00041  24153654.13544  24153651.08848
  -3539539.88248  -2758081.57244         0.00041  23792150.20644  23792150.11448
 -10984053.56248  -8559002.15746         0.00041  23032440.09946  23032438.61148
 -21194213.59949 -16514969.65647         0.00041  21146302.80447  21146302.05849
 -15857844.15049 -12356760.69446         0.00041  21779267.83446  21779266.55349
 96 10 16 08 31 00.0000000  0  7 07 02 26 05 24 04 09
  -7746083.35349  -6035906.20447         0.00041  21292704.82647  21292703.53249
   5793603.13249   4514495.94046         0.00041  22411208.42046  22411207.31849
  -2215379.92948  -1726271.52844         0.00041  24167511.91644  24167508.70348
  -3618817.54648  -2819856.39045         0.00041  23777066.85445  23777063.89248
 -11087116.11048  -8639310.62946         0.00041  23012828.58546  23012826.19948
 -21248003.21249 -16556883.62647         0.00041  21136067.13347  21136066.24449
 -15917739.47849 -12403432.37746         0.00041  21767869.82746  21767868.71349
 96 10 16 08 31 30.0000000  0  7 07 02 26 05 24 04 09
  -7688505.12749  -5991040.06247         0.00041  21303661.47047  21303660.27549
   5846064.17749   4555374.66646         0.00041  22421191.41646  22421190.53449
  -2142783.86448  -1669703.17244         0.00041  24181329.06444  24181323.21348
  -3698464.47448  -2881918.90344         0.00041  23761908.89844  23761907.13548
 -11190340.00048  -8719744.82746         0.00041  22993185.63146  22993183.48348
 -21301642.13549 -16598680.17547         0.00041  21125860.15947  21125859.13449
 -15977567.47749 -12450051.59846         0.00041  21756484.99946  21756483.87949
 96 10 16 08 32 00.0000000  0  7 07 02 26 05 24 04 09
  -7630538.68849  -5945871.40947         0.00041  21314692.41547  21314690.94049
   5898952.27649   4596586.15246         0.00041  22431255.35446  22431254.78949
  -2069862.28748  -1612881.16544         0.00041  24195202.24644  24195198.86948
  -3777929.99848  -2943840.10045         0.00041  23746787.41645  23746785.21648
 -11293174.53748  -8799875.62446         0.00041  22973617.27346  22973614.55248
 -21354579.00649 -16639929.67147         0.00041  21115786.20647  21115785.54849
 -16036789.74549 -12496198.82246         0.00041  21745215.58746  21745214.29049
 96 10 16 08 32 30.0000000  0  7 07 02 26 05 24 04 09
  -7572319.47549  -5900505.79047         0.00041  21325771.12547  21325769.50149
   5952135.09449   4638027.29146         0.00041  22441375.84946  22441375.01149
  -1996754.55248  -1555914.13944         0.00041  24209114.81044  24209111.55548
  -3857325.23348  -3005706.48744         0.00041  23731679.72744  23731676.80248
 -11395762.28848  -8879814.13246         0.00041  22954095.27746  22954092.89548
 -21406930.34549 -16680722.90947         0.00041  21105824.17247  21105823.47149
 -16095521.12249 -12541963.53246         0.00041  21734039.33746  21734038.12949
 96 10 16 08 33 00.0000000  0  7 07 02 26 05 24 04 09
  -7513573.27349  -5854729.53046         0.00041  21336950.35046  21336948.54049
   6005907.68649   4679927.99146         0.00041  22451608.58846  22451607.73149
  -1923203.51048  -1498601.60944         0.00041  24223109.66444  24223108.00148
  -3936359.15148  -3067291.34845         0.00041  23716640.04745  23716637.10548
 -11497825.13048  -8959343.61646         0.00041  22934673.15746  22934670.70748
 -21458401.42949 -16720830.23747         0.00041  21096029.41647  21096028.75349
 -16153464.00649 -12587113.83546         0.00041  21723013.04146  21723012.05249
 96 10 16 08 33 30.0000000  0  7 07 02 26 05 24 04 09
  -7454047.62949  -5808345.91147         0.00041  21348277.64947  21348275.86949
   6060542.33249   4722500.43646         0.00041  22462005.82246  22462004.10949
  -1848982.20548  -1440766.83844         0.00041  24237232.65744  24237231.82648
  -4014778.80148  -3128397.56345         0.00041  23701716.02545  23701714.38748
 -11599102.47448  -9038261.01646         0.00041  22915401.11146  22915398.38448
 -21508743.18449 -16760057.56847         0.00041  21086449.72347  21086449.12749
 -16210363.16549 -12631450.84546         0.00041  21712185.53846  21712184.41649
 96 10 16 08 34 00.0000000  0  7 07 02 26 05 24 04 09
  -7395039.71549  -5762365.71547         0.00041  21359506.54947  21359504.56749
   6114735.02948   4764728.48346         0.00041  22472318.11946  22472316.58748
  -1775384.42448  -1383417.89444         0.00041  24251239.34344  24251237.63548
  -4093866.25448  -3190024.13345         0.00041  23686665.67345  23686664.68348
 -11700884.92448  -9117572.00346         0.00041  22896032.46046  22896029.63548
 -21559252.56149 -16799415.51447         0.00041  21076838.06347  21076837.47949
 -16267512.07049 -12675982.45746         0.00041  21701310.71046  21701309.38949
 96 10 16 08 34 30.0000000  0  7 07 02 26 05 24 04 09
  -7336304.98449  -5716598.38947         0.00041  21370683.67147  21370681.64149
   6168727.82148   4806800.76046         0.00041  22482592.37246  22482591.32448
  -1702170.19448  -1326367.84044         0.00041  24265169.92944  24265170.57648
  -4173366.39748  -3251972.27945         0.00041  23671539.36145  23671536.76848
 -11802922.25348  -9197081.59646         0.00041  22876614.30346  22876612.50348
 -21609673.49149 -16838704.54147         0.00041  21067243.36547  21067242.65449
 -16324646.07249 -12720502.45646         0.00041  21690438.35646  21690437.08249
 96 10 16 08 35 00.0000000  0  7 07 02 26 05 24 04 09
  -7277343.14949  -5670654.09947         0.00041  21381903.67147  21381901.78549
   6223018.23348   4849104.95846         0.00041  22492924.16646  22492922.38348
  -1628831.70448  -1269220.95444         0.00041  24279125.78244  24279126.50148
  -4252805.49048  -3313872.84245         0.00041  23656421.62945  23656419.89548
 -11904713.62748  -9276399.54946         0.00041  22857244.95946  22857242.58548
 -21659505.78149 -16877534.89047         0.00041  21057760.65447  21057759.95849
 -16381273.23349 -12764627.51546         0.00041  21679662.72646  21679661.26249
 96 10 16 08 35 30.0000000  0  7 07 02 26 05 24 04 09
  -7218120.68949  -5624506.72947         0.00041  21393173.11947  21393171.39549
   6277616.59149   4891649.12846         0.00041  22503313.84446  22503312.18649
  -1555329.90248  -1211946.83044         0.00041  24293113.37044  24293113.59148
  -4332158.64848  -3375706.47045         0.00041  23641321.42845  23641319.77948
 -12006240.46548  -9355511.36446         0.00041  22837924.59946  22837922.61048
 -21708732.72349 -16915893.53647         0.00041  21048392.89147  21048392.36149
 -16437383.10449 -12808349.49346         0.00041  21668985.24446  21668983.66249
 96 10 16 08 36 00.0000000  0  7 07 02 26 05 24 04 09
  -7158602.62149  -5578129.01447         0.00041  21404499.29247  21404497.32549
   6332543.65049   4934449.41346         0.00041  22513766.12746  22513764.43849
  -1481623.67248  -1154513.37444         0.00041  24307141.29044  24307139.81348
  -4411390.56648  -3437445.62045         0.00041  23626244.39145  23626242.46548
 -12107489.36648  -9434406.60946         0.00041  22818657.87546  22818655.57048
 -21757319.52649 -16953753.37347         0.00041  21039147.28847  21039146.67049
 -16492941.57249 -12851641.80446         0.00041  21658412.94546  21658411.20249
 96 10 16 08 36 30.0000000  0  7 07 02 26 05 24 04 09
  -7098748.61649  -5531489.53046         0.00041  21415888.76546  21415887.04349
   6387847.00349   4977542.92446         0.00041  22524290.29246  22524288.65449
  -1407672.36548  -1096888.99544         0.00041  24321212.98544  24321212.70548
  -4490470.34148  -3499066.19045         0.00041  23611195.38345  23611194.34048
 -12208419.79848  -9513053.68946         0.00041  22799452.00746  22799448.96348
 -21805218.45449 -16991077.20647         0.00041  21030032.26847  21030031.67949
 -16547907.10149 -12894472.09246         0.00041  21647953.06846  21647951.61549
 96 10 16 08 37 00.0000000  0  7 07 02 26 05 24 04 09
  -7038714.24749  -5484709.49946         0.00041  21427313.09446  21427311.39349
   6443355.20049   5020796.05246         0.00041  22534852.71046  22534851.46249
  -1333640.64748  -1039201.95244         0.00041  24335300.48844  24335299.44948
  -4569565.53848  -3560698.79845         0.00041  23596144.46045  23596143.09148
 -12309184.84348  -9591571.89646         0.00041  22780276.17346  22780274.05548
 -21852603.11249 -17028000.30547         0.00041  21021015.39347  21021014.74349
 -16602454.05249 -12936976.21246         0.00041  21637573.20846  21637571.71149
 96 10 16 08 37 30.0000000  0  7 07 02 26 05 24 04 09
  -6978486.85149  -5437779.06246         0.00041  21438773.84846  21438772.09849
   6499093.74849   5064228.66046         0.00041  22545459.84346  22545458.14049
  -1259524.02248   -981448.71344         0.00041  24349407.15644  24349403.05548
  -4648641.37448  -3622316.30945         0.00041  23581097.11145  23581095.55548
 -12409759.84948  -9669942.01846         0.00041  22761137.94446  22761135.15248
 -21899458.16449 -17064510.72547         0.00041  21012099.03247  21012098.40749
 -16656548.97949 -12979128.10346         0.00041  21627279.08546  21627277.82549
 96 10 16 08 38 00.0000000  0  7 07 02 26 05 24 04 09
  -6918077.32949  -5390706.70746         0.00041  21450269.35346  21450267.68449
   6555083.95648   5107857.35946         0.00041  22556114.37746  22556112.59548
  -1185325.01548   -923631.31944         0.00041  24363524.07344  24363522.36448
  -4727688.16948  -3683911.20545         0.00041  23566054.29545  23566053.35748
 -12510112.76648  -9748139.08846         0.00041  22742041.70146  22742038.70548
 -21945774.09549 -17100601.04847         0.00041  21003285.45747  21003284.83149
 -16710155.26749 -13020899.23546         0.00041  21617078.46646  21617077.01749
 96 10 16 08 38 30.0000000  0  7 07 02 26 05 24 04 09
  -6857516.28049  -5343516.27846         0.00041  21461793.85446  21461791.93549
   6611327.22948   5151683.27246         0.00041  22566817.23046  22566815.38048
  -1111065.18948   -865766.47944         0.00041  24377653.94244  24377653.57948
  -4806719.06248  -3745493.68145         0.00041  23551016.26045  23551014.17448
 -12610232.48148  -9826154.44746         0.00041  22722988.49746  22722986.46548
 -21991561.30549 -17136279.38347         0.00041  20994572.42647  20994571.88149
 -16763285.59849 -13062299.49746         0.00041  21606967.91446  21606966.80249
 96 10 16 08 39 00.0000000  0  7 07 02 26 05 24 04 09
  -6796808.59849  -5296211.59646         0.00041  21473346.05246  21473344.14149
   6667834.00548   5195714.50246         0.00041  22577570.23846  22577568.26248
  -1036745.89848   -807855.34944         0.00041  24391797.63644  24391796.59348
  -4885720.98648  -3807053.62345         0.00041  23535982.23645  23535980.02848
 -12710106.67048  -9903978.47946         0.00041  22703983.34946  22703981.23048
 -22036806.12349 -17171535.07647         0.00041  20985962.61647  20985961.94949
 -16815921.37849 -13103314.38946         0.00041  21596951.67946  21596950.39849
 96 10 16 08 39 30.0000000  0  7 07 02 26 05 24 04 09
  -6736002.36949  -5248830.12146         0.00041  21484917.13746  21484915.43449
   6724596.54348   5239945.03346         0.00041  22588371.94146  22588369.86148
   -962392.16748   -749917.43644         0.00041  24405945.96744  24405945.58748
  -4964715.23348  -3868607.55545         0.00041  23520949.09045  23520947.72948
 -12809763.08748  -9981632.81846         0.00041  22685019.58546  22685017.31548
 -22081512.80249 -17206371.44147         0.00041  20977455.31947  20977454.59849
 -16868072.05649 -13143951.27546         0.00041  21587028.02946  21587026.53249
 96 10 16 08 40 00.0000000  0  7 07 02 26 05 24 04 09
  -6675084.61649  -5201361.74346         0.00041  21496509.35446  21496507.79349
   6781616.71048   5284376.31046         0.00041  22599222.31846  22599220.29348
   -887995.66248   -691946.14744         0.00041  24420103.34644  24420102.73148
  -5043690.28048  -3930146.55345         0.00041  23505921.24945  23505919.68848
 -12909188.68648 -10059107.31146         0.00041  22666099.93146  22666097.19548
 -22125664.12649 -17240775.05947         0.00041  20969053.75847  20969052.90749
 -16919756.55749 -13184224.91146         0.00041  21577192.59246  21577191.11249
 96 10 16 08 40 30.0000000  0  7 07 02 26 05 24 04 09
  -6614038.88349  -5153793.64046         0.00041  21508125.95046  21508124.32349
   6838872.60148   5328991.28446         0.00041  22610117.49646  22610115.69748
   -813559.52348   -633943.94744         0.00041  24434271.10344  24434267.71148
  -5122648.81048  -3991672.66145         0.00041  23490895.75045  23490894.08648
 -13008396.52148 -10136412.10946         0.00041  22647220.84346  22647218.78748
 -22169248.32649 -17274736.76547         0.00041  20960759.86647  20960759.01649
 -16970999.38949 -13224154.38946         0.00041  21567441.55046  21567440.19749
 96 10 16 08 41 00.0000000  0  7 07 02 26 05 24 04 09
  -6552847.15949  -5106111.77846         0.00041  21519770.78346  21519768.82949
   6896358.43948   5373785.42146         0.00041  22621056.56946  22621054.77948
   -739078.77948   -575907.03345         0.00041  24448441.38045  24448440.40948
  -5201588.39448  -4053184.01745         0.00041  23475874.93345  23475872.50648
 -13107389.76848 -10213549.70646         0.00041  22628383.12146  22628380.94548
 -22212265.39849 -17308256.55247         0.00041  20952573.84447  20952573.14949
 -17021786.91249 -13263729.08246         0.00041  21557777.00046  21557775.39949
 96 10 16 08 41 30.0000000  0  7 07 02 26 05 24 04 09
  -6491453.55149  -5058272.60646         0.00041  21531453.22946  21531451.53149
   6954111.76948   5418787.99846         0.00041  22632046.57046  22632044.94748
   -664520.55048   -517809.69145         0.00041  24462630.32145  24462628.47048
  -5280475.56148  -4114654.52345         0.00041  23460863.64745  23460860.56848
 -13206137.61648 -10290496.07246         0.00041  22609592.03746  22609590.01048
 -22254688.47949 -17341313.49047         0.00041  20944501.07147  20944500.28949
 -17072098.50049 -13302932.91746         0.00041  21548202.88046  21548201.34749
 96 10 16 08 42 00.0000000  0  7 07 02 26 05 24 04 09
  -6429878.88849  -5010292.34946         0.00041  21543170.73346  21543168.87149
   7012087.61648   5463963.97446         0.00041  22643079.39146  22643077.33048
   -589915.86848   -459676.18444         0.00041  24476827.77244  24476825.01448
  -5359344.76648  -4176111.03645         0.00041  23445854.29945  23445852.72948
 -13304663.47448 -10367269.46146         0.00041  22590843.14946  22590841.20648
 -22296567.29549 -17373946.32447         0.00041  20936531.74547  20936530.83849
 -17121976.91349 -13341799.21246         0.00041  21538711.42946  21538710.05849
 96 10 16 08 42 30.0000000  0  7 07 02 26 05 24 04 09
  -6368138.80749  -4962183.19946         0.00041  21554919.40946  21554917.52749
   7070288.64948   5509315.41046         0.00041  22654154.54046  22654152.70448
   -515278.96848   -401517.56444         0.00041  24491030.20344  24491027.90948
  -5438216.20148  -4237569.28545         0.00041  23430845.07345  23430843.32248
 -13402967.13148 -10443869.71146         0.00041  22572136.73446  22572134.30248
 -22337910.41249 -17406161.72847         0.00041  20928664.32147  20928663.47749
 -17171399.11749 -13380310.02346         0.00041  21529306.81646  21529305.26349
 96 10 16 08 43 00.0000000  0  7 07 02 26 05 24 04 09
  -6306225.88749  -4913939.36346         0.00041  21566701.08346  21566699.03349
   7128753.64548   5554872.54446         0.00041  22665280.04446  22665278.37548
   -440599.16448   -343325.51544         0.00041  24505240.60744  24505239.34348
  -5517075.85848  -4299018.36845         0.00041  23415838.89145  23415837.01948
 -13501024.19748 -10520277.80646         0.00041  22553477.07946  22553474.72748
 -22378705.26849 -17437949.91947         0.00041  20920901.20947  20920900.52549
 -17220333.73949 -13418440.90046         0.00041  21519994.59046  21519993.24749
 96 10 16 08 43 30.0000000  0  7 07 02 26 05 24 04 09
  -6244140.84649  -4865561.40946         0.00041  21578515.35146  21578513.34949
   7187479.98448   5600633.31846         0.00041  22676455.70946  22676453.80748
   -365875.90448   -285099.62144         0.00041  24519460.44744  24519459.05848
  -5595920.75348  -4360455.92845         0.00041  23400834.86045  23400832.91648
 -13598826.85948 -10596487.66746         0.00041  22534865.69846  22534863.43648
 -22418935.21449 -17469297.92147         0.00041  20913245.85947  20913245.16249
 -17268794.49149 -13456202.52746         0.00041  21510773.03246  21510771.71549
 96 10 16 08 44 00.0000000  0  7 07 02 26 05 24 04 09
  -6181906.13249  -4817066.82746         0.00041  21590358.27646  21590356.38049
   7246443.08348   5646578.57446         0.00041  22687675.49146  22687673.86048
   -291128.97348   -226855.25944         0.00041  24533684.62844  24533682.90248
  -5674764.85948  -4421892.87745         0.00041  23385831.23745  23385829.73248
 -13696382.15748 -10672504.77346         0.00041  22516301.34446  22516299.17148
 -22458604.02849 -17500208.67447         0.00041  20905697.21147  20905696.40649
 -17316783.78849 -13493596.78947         0.00041  21501640.89647  21501639.63749
 96 10 16 08 44 30.0000000  0  7 07 02 26 05 24 04 09
  -6119521.99149  -4768455.80946         0.00041  21602229.41246  21602227.68349
   7305642.40348   5692707.88346         0.00041  22698940.69046  22698938.86648
   -216367.08848   -168599.23944         0.00041  24547910.60344  24547909.28148
  -5753612.80148  -4483332.81945         0.00041  23370827.43045  23370825.47448
 -13793710.33548 -10748344.90446         0.00041  22497780.37746  22497778.24148
 -22497704.87849 -17530676.85647         0.00041  20898256.56147  20898255.83549
 -17364290.36449 -13530614.90447         0.00041  21492600.64247  21492599.35649
 96 10 16 08 45 00.0000000  0  7 07 02 26 05 24 04 09
  -6056990.99649  -4719730.35946         0.00041  21614128.84746  21614127.12749
   7365063.27748   5739009.84646         0.00041  22710247.74846  22710246.38348
   -141580.62248   -110324.06644         0.00041  24562139.64844  24562140.33848
  -5832459.76848  -4544772.01745         0.00041  23355823.64545  23355821.69248
 -13890825.67348 -10824019.18746         0.00041  22479300.23546  22479297.91548
 -22536245.69449 -17560708.64947         0.00041  20890922.36747  20890921.69249
 -17411322.74449 -13567263.51447         0.00041  21483650.64847  21483649.13149
 96 10 16 08 45 30.0000000  0  7 07 02 26 05 24 04 09
  -5994327.27849  -4670901.49146         0.00041  21626053.21246  21626051.64449
   7424686.85248   5785469.76346         0.00041  22721594.00546  22721592.50648
    -66775.26448    -52034.18744         0.00041  24576378.68844  24576375.86748
  -5911306.41648  -4606210.95045         0.00041  23340819.44145  23340817.59148
 -13987729.60848 -10899528.74046         0.00041  22460859.60146  22460857.61548
 -22574232.10549 -17590308.43547         0.00041  20883693.69547  20883693.06149
 -17457880.93549 -13603542.62147         0.00041  21474791.21347  21474789.58049
 96 10 16 08 46 00.0000000  0  7 07 02 26 05 24 04 09
  -5931517.46249  -4621958.77646         0.00041  21638005.19246  21638003.97049
   7484546.91148   5832113.95246         0.00041  22732985.96246  22732983.67748
      8068.57748      6285.67844         0.00041  24590617.57544  24590618.00948
  -5990124.84548  -4667627.90145         0.00041  23325820.34045  23325819.17148
 -14084394.00748 -10974851.63646         0.00041  22442465.87846  22442462.99348
 -22611659.81449 -17619472.87147         0.00041  20876571.48447  20876570.82749
 -17503919.07749 -13639416.49947         0.00041  21466030.12347  21466028.86649
 96 10 16 08 46 30.0000000  0  7 07 02 26 05 24 04 09
  -5868559.40049  -4572900.55146         0.00041  21649985.95346  21649984.50749
   7544666.30448   5878960.19946         0.00041  22744425.68346  22744424.17048
     82964.39048     64646.02744         0.00041  24604871.57944  24604870.47148
  -6068898.41348  -4729009.88345         0.00041  23310830.36345  23310828.73748
 -14180794.81948 -11049969.14346         0.00041  22424121.00546  22424118.48848
 -22648522.03749 -17648196.67147         0.00041  20869556.74347  20869556.19149
 -17549418.39449 -13674870.51447         0.00041  21457371.85647  21457370.51549
 96 10 16 08 47 00.0000000  0  7 07 02 26 05 24 04 09
  -5805485.29649  -4523751.90146         0.00041  21661988.42646  21661987.03949
   7605020.76448   5925989.62446         0.00041  22755910.47546  22755909.27148
    157883.27348    123024.38744         0.00041  24619128.10144  24619126.74748
  -6147639.65448  -4790366.69545         0.00041  23295846.81045  23295844.91748
 -14276919.09348 -11124871.16746         0.00041  22405828.97046  22405826.50448
 -22684835.97849 -17676493.23747         0.00041  20862646.44647  20862645.90249
 -17594412.58249 -13709930.91847         0.00041  21448809.90647  21448808.63749
 96 10 16 08 47 30.0000000  0  7 07 02 26 05 24 04 09
  -5742263.19949  -4474487.93346         0.00041  21674019.16946  21674017.79649
   7665641.75148   5973226.73546         0.00041  22767446.16646  22767444.93848
    232838.30948    181430.89844         0.00041  24633389.03244  24633389.96748
  -6226316.06848  -4851672.97745         0.00041  23280874.59045  23280873.31848
 -14372731.89548 -11199530.48746         0.00041  22387596.93746  22387594.08748
 -22720574.28049 -17704341.25147         0.00041  20855845.70247  20855845.18949
 -17638882.63449 -13744582.90447         0.00041  21440347.50747  21440346.30149
 96 10 16 08 48 00.0000000  0  7 07 02 26 05 24 04 09
  -5678909.25249  -4425121.22246         0.00041  21686075.16346  21686073.52249
   7726514.52048   6020660.04446         0.00041  22779030.13846  22779028.89748
    307802.44648    239844.47644         0.00041  24647660.62544  24647655.40948
  -6304947.27848  -4912944.03646         0.00041  23265911.79346  23265909.98048
 -14468255.53848 -11273964.48346         0.00041  22369419.19846  22369416.34748
 -22755754.65649 -17731754.51947         0.00041  20849151.06047  20849150.46249
 -17682850.94849 -13778843.92447         0.00041  21431980.54347  21431979.40349
 96 10 16 08 48 30.0000000  0  7 07 02 26 05 24 04 09
  -5615428.55649  -4375655.74446         0.00041  21698155.36846  21698153.60449
   7787635.61748   6068286.86246         0.00041  22790661.69946  22790659.83048
    382767.09648    298258.47944         0.00041  24661920.27744  24661920.73248
  -6383534.55248  -4974180.87345         0.00041  23250957.22445  23250954.91248
 -14563487.49548 -11348171.20146         0.00041  22351297.22546  22351294.44748
 -22790357.31649 -17758717.62147         0.00041  20842566.22947  20842565.73949
 -17726327.91849 -13812722.08247         0.00041  21423707.26547  21423705.96749
 96 10 16 08 49 00.0000000  0  7 07 02 26 05 24 04 09
  -5551818.12849  -4326089.17646         0.00041  21710260.10646  21710258.37749
   7848995.90148   6116100.06146         0.00041  22802337.44646  22802336.04748
    457723.12648    356665.81744         0.00041  24676185.65544  24676184.30848
  -6462086.98248  -5035390.55445         0.00041  23236009.78645  23236007.11548
 -14658438.52148 -11422159.01046         0.00041  22333228.67246  22333225.74648
 -22824382.47849 -17785230.72447         0.00041  20836091.59847  20836090.99549
 -17769330.46349 -13846230.56047         0.00041  21415524.30847  21415522.75149
 96 10 16 08 49 30.0000000  0  7 07 02 26 05 24 04 09
  -5488068.49549  -4276414.14146         0.00041  21722391.25346  21722389.67949
   7910622.23148   6164120.57446         0.00041  22814064.85346  22814063.33548
    532679.90748    415073.66044         0.00041  24690451.39544  24690448.27748
  -6540606.24748  -5096574.39345         0.00041  23221067.37145  23221065.42448
 -14753121.44048 -11495937.90346         0.00041  22315210.90346  22315208.35548
 -22857818.76249 -17811284.95947         0.00041  20829728.88747  20829728.30649
 -17811837.73149 -13879353.10547         0.00041  21407435.62747  21407433.77249
 96 10 16 08 50 00.0000000  0  7 07 02 26 05 24 04 09
  -5424194.56549  -4226642.24746         0.00041  21734546.01546  21734544.39449
   7972512.66848   6212346.87646         0.00041  22825841.94646  22825840.74948
    607635.65448    473480.74944         0.00041  24704714.46244  24704711.95048
  -6619102.52348  -5157740.30746         0.00041  23206130.33946  23206128.13248
 -14847541.45949 -11569511.93646         0.00041  22297243.92346  22297241.00749
 -22890660.51649 -17836875.92747         0.00041  20823479.36547  20823478.79049
 -17853846.61449 -13912087.30347         0.00041  21399441.46747  21399439.72049
 96 10 16 08 50 30.0000000  0  7 07 02 26 05 24 04 09
  -5360198.86549  -4176775.47146         0.00041  21746723.99946  21746722.21549
   8034656.32848   6260770.49346         0.00041  22837668.15346  22837666.49148
    682591.34148    531887.77244         0.00041  24718977.62844  24718975.21448
  -6697596.49248  -5218904.42945         0.00041  23191193.25945  23191190.98248
 -14941709.10348 -11642889.31146         0.00041  22279323.46746  22279321.44948
 -22922925.60249 -17862017.54447         0.00041  20817339.42047  20817338.87249
 -17895376.03449 -13944447.89447         0.00041  21391538.59347  21391536.97949
 96 10 16 08 51 00.0000000  0  7 07 02 26 05 24 04 09
  -5296064.06249  -4126800.30246         0.00041  21758928.61146  21758926.58449
   8097050.39948   6309389.23346         0.00041  22849540.51946  22849539.53948
    757554.20948    590300.38344         0.00041  24733242.70444  24733240.00148
  -6776095.03548  -5280072.13345         0.00041  23176255.45345  23176253.60148
 -15035642.07949 -11716083.82646         0.00041  22261448.73846  22261446.47949
 -22954622.91749 -17886716.73947         0.00041  20811307.64147  20811306.99249
 -17936422.72649 -13976432.33647         0.00041  21383727.57047  21383726.22549
 96 10 16 08 51 30.0000000  0  7 07 02 26 05 24 04 09
  -5231778.83749  -4076707.91646         0.00041  21771161.66546  21771159.64349
   8159706.68648   6358212.29746         0.00041  22861463.94546  22861462.55748
    832537.06248    648728.60144         0.00041  24747508.26444  24747508.76248
  -6854567.55048  -5341219.54146         0.00041  23161322.14346  23161320.56648
 -15129323.56649 -11789082.38346         0.00041  22243621.73646  22243619.57149
 -22985736.64549 -17910961.18847         0.00041  20805387.02947  20805386.23349
 -17976968.40149 -14008026.37347         0.00041  21376011.94547  21376010.70549
 96 10 16 08 52 00.0000000  0  7 07 02 26 05 24 04 09
  -5167365.36449  -4026515.60046         0.00041  21783419.09546  21783417.15749
   8222574.60848   6407200.27346         0.00041  22873426.81846  22873425.76448
    907507.78748    707147.33944         0.00041  24761779.63344  24761775.16548
  -6933031.72948  -5402360.44746         0.00041  23146391.84646  23146389.55848
 -15222766.72549 -11861895.22246         0.00041  22225840.09646  22225837.86149
 -23016296.69849 -17934774.20547         0.00041  20799571.56247  20799570.67249
 -18017047.94749 -14039257.19147         0.00041  21368385.18447  21368383.95749
 96 10 16 08 52 30.0000000  0  7 07 02 26 05 24 04 09
  -5102808.85349  -3976211.82746         0.00041  21795703.79646  21795701.85449
   8285670.66548   6456366.01146         0.00041  22885434.27446  22885432.35548
    982469.71148    765559.23644         0.00041  24776041.44944  24776040.21248
  -7011470.65048  -5463481.68846         0.00041  23131465.43346  23131462.91448
 -15315941.80149 -11934499.16846         0.00041  22208109.10146  22208107.13749
 -23046286.60749 -17958142.95647         0.00041  20793864.48147  20793863.85849
 -18056646.03749 -14070112.84747         0.00041  21360849.69447  21360848.56049
 96 10 16 08 53 00.0000000  0  7 07 02 26 05 24 04 09
  -5038145.93349  -3925825.14146         0.00041  21808008.50046  21808006.71349
   8348986.02748   6505702.64646         0.00041  22897483.66646  22897481.07048
   1057388.80848    823937.71544         0.00041  24790296.45744  24790296.88248
  -7089878.41248  -5524578.63946         0.00041  23116544.10946  23116542.41948
 -15408844.95849 -12006891.23146         0.00041  22190430.00946  22190428.25549
 -23075704.56849 -17981066.02947         0.00041  20788266.53647  20788265.90049
 -18095776.05549 -14100603.77047         0.00041  21353403.83147  21353402.26449
 96 10 16 08 53 30.0000000  0  7 07 02 26 05 24 04 09
  -4973381.69249  -3875359.50046         0.00041  21820332.66146  21820331.01249
   8412542.29448   6555226.98746         0.00041  22909577.47746  22909575.35848
   1132266.42848    882283.90544         0.00041  24804547.57644  24804545.47648
  -7168231.86348  -5585633.26446         0.00041  23101633.81246  23101632.11648
 -15501430.73149 -12079035.98046         0.00041  22172811.86246  22172809.63049
 -23104528.51949 -18003526.23947         0.00041  20782781.59947  20782781.03049
 -18134415.71049 -14130712.59147         0.00041  21346050.89347  21346049.38249
 96 10 16 08 54 00.0000000  0  7 07 02 26 05 24 04 09
  -4908541.86749  -3824834.96646         0.00041  21832671.46546  21832669.72249
   8476323.74648   6604926.81046         0.00041  22921714.01146  22921712.45048
   1207076.80948    940577.70044         0.00041  24818783.69844  24818781.41148
  -7246572.79348  -5646678.14246         0.00041  23086727.13146  23086724.49148
 -15593712.71249 -12150944.00746         0.00041  22155251.46346  22155248.83149
 -23132778.84149 -18025539.46647         0.00041  20777405.59147  20777405.17249
 -18172566.84549 -14160440.74947         0.00041  21338790.87647  21338789.37749
 96 10 16 08 54 30.0000000  0  7 07 02 26 05 24 04 09
  -4843616.48649  -3774243.76346         0.00041  21845025.88746  21845024.48649
   8540356.15448   6654822.17046         0.00041  22933900.09646  22933897.64548
   1281841.54848    998835.94744         0.00041  24833007.28444  24833008.77348
  -7324878.26448  -5707695.39546         0.00041  23071825.79446  23071823.44348
 -15685671.70249 -12222600.35446         0.00041  22137752.46546  22137749.76949
 -23160441.00849 -18047094.39047         0.00041  20772141.79847  20772141.29049
 -18210199.45249 -14189764.86447         0.00041  21331629.53547  21331627.93449
 96 10 16 08 55 00.0000000  0  7 07 02 26 05 24 04 09
  -4778596.91549  -3723579.16146         0.00041  21857399.09946  21857397.27149
   8604627.75048   6704903.92346         0.00041  22946129.34046  22946128.08948
   1356564.11648   1057061.30444         0.00041  24847227.88344  24847227.88348
  -7403135.91548  -5768675.36146         0.00041  23056933.83146  23056931.54248
 -15777311.61349 -12294008.06946         0.00041  22120313.48746  22120311.38349
 -23187524.31649 -18068198.25747         0.00041  20766987.99547  20766987.47249
 -18247300.06849 -14218674.43847         0.00041  21324569.69647  21324568.00449
 96 10 16 08 55 30.0000000  0  7 07 02 26 05 24 04 09
  -4713454.62549  -3672818.94046         0.00041  21869795.05046  21869793.34549
   8669136.13948   6755170.17646         0.00041  22958404.08046  22958403.69048
   1431256.87048   1115263.46244         0.00041  24861443.05044  24861441.52748
  -7481347.26748  -5829619.26146         0.00041  23042050.27446  23042048.32348
 -15868632.75949 -12365167.39546         0.00041  22102935.91746  22102933.48549
 -23214026.56149 -18088849.34747         0.00041  20761944.80347  20761944.30049
 -18283837.93549 -14247145.50847         0.00041  21317616.59547  21317615.18349
